<?xml version="1.0" encoding="UTF-8" standalone="no" ?>
<gpx xmlns="http://www.topografix.com/GPX/1/1" xmlns:xsi="http://www.w3.org/2001/XMLSchema-instance" xsi:schemaLocation="http://www.topografix.com/GPX/1/1 http://www.topografix.com/GPX/1/1/gpx.xsd" version="1.1" creator="VisuGPX - https://www.visugpx.com">
  <metadata>
    <name>Cadaques J12</name>
    <desc><![CDATA[File with points/tracks from Locus Map/4.25.1]]></desc>
  </metadata>
  <trk>
    <name><![CDATA[2024-09-27 la Seu d'Urgel J12]]></name>
    <extensions>
      <line xmlns="http://www.topografix.com/GPX/gpx_style/0/2">
        <color>0000FF</color>
        <opacity>0.70</opacity>
        <width>6.0</width>
      </line>
    </extensions>
    <trkseg>
      <trkpt lat="42.36997" lon="1.77995">
        <ele>1048.78</ele>
        <time>2024-09-27T07:04:27.999Z</time>
      </trkpt>
      <trkpt lat="42.37006" lon="1.77991">
        <ele>1049.66</ele>
        <time>2024-09-27T07:06:15.999Z</time>
      </trkpt>
      <trkpt lat="42.37017" lon="1.77993">
        <ele>1050.1</ele>
        <time>2024-09-27T07:06:20.999Z</time>
      </trkpt>
      <trkpt lat="42.37026" lon="1.77984">
        <ele>1050.44</ele>
        <time>2024-09-27T07:06:25.999Z</time>
      </trkpt>
      <trkpt lat="42.3703" lon="1.77964">
        <ele>1050.69</ele>
        <time>2024-09-27T07:06:30.999Z</time>
      </trkpt>
      <trkpt lat="42.37033" lon="1.77942">
        <ele>1050.88</ele>
        <time>2024-09-27T07:06:35.999Z</time>
      </trkpt>
      <trkpt lat="42.37032" lon="1.77919">
        <ele>1051.02</ele>
        <time>2024-09-27T07:06:40.999Z</time>
      </trkpt>
      <trkpt lat="42.37028" lon="1.77893">
        <ele>1051.41</ele>
        <time>2024-09-27T07:06:45.999Z</time>
      </trkpt>
      <trkpt lat="42.37024" lon="1.7786">
        <ele>1051.66</ele>
        <time>2024-09-27T07:06:50.999Z</time>
      </trkpt>
      <trkpt lat="42.37023" lon="1.77825">
        <ele>1051.5</ele>
        <time>2024-09-27T07:06:55.999Z</time>
      </trkpt>
      <trkpt lat="42.37034" lon="1.77799">
        <ele>1051.04</ele>
        <time>2024-09-27T07:07:00.999Z</time>
      </trkpt>
      <trkpt lat="42.37047" lon="1.77775">
        <ele>1050.67</ele>
        <time>2024-09-27T07:07:05.999Z</time>
      </trkpt>
      <trkpt lat="42.37055" lon="1.7776">
        <ele>1050.54</ele>
        <time>2024-09-27T07:07:10.999Z</time>
      </trkpt>
      <trkpt lat="42.37046" lon="1.77764">
        <ele>1050.28</ele>
        <time>2024-09-27T07:07:19.999Z</time>
      </trkpt>
      <trkpt lat="42.37037" lon="1.77764">
        <ele>1048.64</ele>
        <time>2024-09-27T07:09:53.999Z</time>
      </trkpt>
      <trkpt lat="42.37029" lon="1.77756">
        <ele>1047.55</ele>
        <time>2024-09-27T07:10:59.000Z</time>
      </trkpt>
      <trkpt lat="42.37021" lon="1.77752">
        <ele>1046.98</ele>
        <time>2024-09-27T07:11:59.000Z</time>
      </trkpt>
      <trkpt lat="42.37026" lon="1.77742">
        <ele>1046.67</ele>
        <time>2024-09-27T07:13:03.000Z</time>
      </trkpt>
      <trkpt lat="42.37029" lon="1.77753">
        <ele>1046.4</ele>
        <time>2024-09-27T07:14:32.000Z</time>
      </trkpt>
      <trkpt lat="42.37039" lon="1.77755">
        <ele>1046.23</ele>
        <time>2024-09-27T07:14:40.000Z</time>
      </trkpt>
      <trkpt lat="42.37048" lon="1.77748">
        <ele>1046.03</ele>
        <time>2024-09-27T07:14:49.000Z</time>
      </trkpt>
      <trkpt lat="42.37066" lon="1.7773">
        <ele>1045.51</ele>
        <time>2024-09-27T07:14:54.000Z</time>
      </trkpt>
      <trkpt lat="42.37083" lon="1.77702">
        <ele>1044.7</ele>
        <time>2024-09-27T07:14:59.000Z</time>
      </trkpt>
      <trkpt lat="42.371" lon="1.7767">
        <ele>1043.91</ele>
        <time>2024-09-27T07:15:04.000Z</time>
      </trkpt>
      <trkpt lat="42.37119" lon="1.77634">
        <ele>1043.02</ele>
        <time>2024-09-27T07:15:09.000Z</time>
      </trkpt>
      <trkpt lat="42.37139" lon="1.77595">
        <ele>1042.09</ele>
        <time>2024-09-27T07:15:14.000Z</time>
      </trkpt>
      <trkpt lat="42.37164" lon="1.77557">
        <ele>1041.2</ele>
        <time>2024-09-27T07:15:19.000Z</time>
      </trkpt>
      <trkpt lat="42.37196" lon="1.77534">
        <ele>1040.31</ele>
        <time>2024-09-27T07:15:24.000Z</time>
      </trkpt>
      <trkpt lat="42.37227" lon="1.77522">
        <ele>1039.54</ele>
        <time>2024-09-27T07:15:29.000Z</time>
      </trkpt>
      <trkpt lat="42.37253" lon="1.77512">
        <ele>1039.02</ele>
        <time>2024-09-27T07:15:34.000Z</time>
      </trkpt>
      <trkpt lat="42.37271" lon="1.77501">
        <ele>1038.74</ele>
        <time>2024-09-27T07:15:39.000Z</time>
      </trkpt>
      <trkpt lat="42.37285" lon="1.77492">
        <ele>1038.68</ele>
        <time>2024-09-27T07:15:44.000Z</time>
      </trkpt>
      <trkpt lat="42.37289" lon="1.77477">
        <ele>1038.61</ele>
        <time>2024-09-27T07:15:49.000Z</time>
      </trkpt>
      <trkpt lat="42.37281" lon="1.77455">
        <ele>1038.29</ele>
        <time>2024-09-27T07:15:54.000Z</time>
      </trkpt>
      <trkpt lat="42.37277" lon="1.77425">
        <ele>1037.73</ele>
        <time>2024-09-27T07:15:59.000Z</time>
      </trkpt>
      <trkpt lat="42.37282" lon="1.7739">
        <ele>1037.32</ele>
        <time>2024-09-27T07:16:04.000Z</time>
      </trkpt>
      <trkpt lat="42.37299" lon="1.77355">
        <ele>1036.75</ele>
        <time>2024-09-27T07:16:09.000Z</time>
      </trkpt>
      <trkpt lat="42.37325" lon="1.77325">
        <ele>1035.74</ele>
        <time>2024-09-27T07:16:14.000Z</time>
      </trkpt>
      <trkpt lat="42.37352" lon="1.77296">
        <ele>1034.78</ele>
        <time>2024-09-27T07:16:19.000Z</time>
      </trkpt>
      <trkpt lat="42.37376" lon="1.77267">
        <ele>1033.95</ele>
        <time>2024-09-27T07:16:24.000Z</time>
      </trkpt>
      <trkpt lat="42.37397" lon="1.77235">
        <ele>1033.15</ele>
        <time>2024-09-27T07:16:29.000Z</time>
      </trkpt>
      <trkpt lat="42.37414" lon="1.77201">
        <ele>1032.35</ele>
        <time>2024-09-27T07:16:34.000Z</time>
      </trkpt>
      <trkpt lat="42.37427" lon="1.77167">
        <ele>1031.54</ele>
        <time>2024-09-27T07:16:39.000Z</time>
      </trkpt>
      <trkpt lat="42.37437" lon="1.77131">
        <ele>1031.07</ele>
        <time>2024-09-27T07:16:44.000Z</time>
      </trkpt>
      <trkpt lat="42.37443" lon="1.77093">
        <ele>1030.53</ele>
        <time>2024-09-27T07:16:49.000Z</time>
      </trkpt>
      <trkpt lat="42.37445" lon="1.77053">
        <ele>1029.94</ele>
        <time>2024-09-27T07:16:54.000Z</time>
      </trkpt>
      <trkpt lat="42.37445" lon="1.77014">
        <ele>1029.31</ele>
        <time>2024-09-27T07:16:59.000Z</time>
      </trkpt>
      <trkpt lat="42.37439" lon="1.76974">
        <ele>1029.02</ele>
        <time>2024-09-27T07:17:04.000Z</time>
      </trkpt>
      <trkpt lat="42.3743" lon="1.76935">
        <ele>1028.46</ele>
        <time>2024-09-27T07:17:09.000Z</time>
      </trkpt>
      <trkpt lat="42.37418" lon="1.76898">
        <ele>1027.79</ele>
        <time>2024-09-27T07:17:14.000Z</time>
      </trkpt>
      <trkpt lat="42.37403" lon="1.76862">
        <ele>1027.42</ele>
        <time>2024-09-27T07:17:19.000Z</time>
      </trkpt>
      <trkpt lat="42.37385" lon="1.76826">
        <ele>1027.29</ele>
        <time>2024-09-27T07:17:24.000Z</time>
      </trkpt>
      <trkpt lat="42.37369" lon="1.76789">
        <ele>1027.12</ele>
        <time>2024-09-27T07:17:29.000Z</time>
      </trkpt>
      <trkpt lat="42.37354" lon="1.76754">
        <ele>1027.09</ele>
        <time>2024-09-27T07:17:34.000Z</time>
      </trkpt>
      <trkpt lat="42.37343" lon="1.76722">
        <ele>1027.18</ele>
        <time>2024-09-27T07:17:39.000Z</time>
      </trkpt>
      <trkpt lat="42.37332" lon="1.76692">
        <ele>1027.48</ele>
        <time>2024-09-27T07:17:44.000Z</time>
      </trkpt>
      <trkpt lat="42.37326" lon="1.76666">
        <ele>1027.51</ele>
        <time>2024-09-27T07:17:49.000Z</time>
      </trkpt>
      <trkpt lat="42.37321" lon="1.76645">
        <ele>1027.51</ele>
        <time>2024-09-27T07:17:54.000Z</time>
      </trkpt>
      <trkpt lat="42.37317" lon="1.76623">
        <ele>1027.52</ele>
        <time>2024-09-27T07:17:59.000Z</time>
      </trkpt>
      <trkpt lat="42.37314" lon="1.76603">
        <ele>1027.53</ele>
        <time>2024-09-27T07:18:04.000Z</time>
      </trkpt>
      <trkpt lat="42.37311" lon="1.76583">
        <ele>1027.55</ele>
        <time>2024-09-27T07:18:09.000Z</time>
      </trkpt>
      <trkpt lat="42.37309" lon="1.76563">
        <ele>1027.57</ele>
        <time>2024-09-27T07:18:14.000Z</time>
      </trkpt>
      <trkpt lat="42.37307" lon="1.76542">
        <ele>1027.59</ele>
        <time>2024-09-27T07:18:19.000Z</time>
      </trkpt>
      <trkpt lat="42.37306" lon="1.76521">
        <ele>1027.62</ele>
        <time>2024-09-27T07:18:24.000Z</time>
      </trkpt>
      <trkpt lat="42.37304" lon="1.76499">
        <ele>1027.66</ele>
        <time>2024-09-27T07:18:29.000Z</time>
      </trkpt>
      <trkpt lat="42.37302" lon="1.76477">
        <ele>1027.71</ele>
        <time>2024-09-27T07:18:34.000Z</time>
      </trkpt>
      <trkpt lat="42.37301" lon="1.76456">
        <ele>1027.78</ele>
        <time>2024-09-27T07:18:39.000Z</time>
      </trkpt>
      <trkpt lat="42.37299" lon="1.76434">
        <ele>1027.87</ele>
        <time>2024-09-27T07:18:44.000Z</time>
      </trkpt>
      <trkpt lat="42.37297" lon="1.76414">
        <ele>1027.99</ele>
        <time>2024-09-27T07:18:49.000Z</time>
      </trkpt>
      <trkpt lat="42.37297" lon="1.76397">
        <ele>1028.13</ele>
        <time>2024-09-27T07:18:54.000Z</time>
      </trkpt>
      <trkpt lat="42.37295" lon="1.76378">
        <ele>1028.3</ele>
        <time>2024-09-27T07:18:59.000Z</time>
      </trkpt>
      <trkpt lat="42.37294" lon="1.76359">
        <ele>1028.49</ele>
        <time>2024-09-27T07:19:04.000Z</time>
      </trkpt>
      <trkpt lat="42.37292" lon="1.76341">
        <ele>1028.67</ele>
        <time>2024-09-27T07:19:09.000Z</time>
      </trkpt>
      <trkpt lat="42.37291" lon="1.76322">
        <ele>1028.86</ele>
        <time>2024-09-27T07:19:14.000Z</time>
      </trkpt>
      <trkpt lat="42.37289" lon="1.76302">
        <ele>1029.05</ele>
        <time>2024-09-27T07:19:19.000Z</time>
      </trkpt>
      <trkpt lat="42.37288" lon="1.76283">
        <ele>1029.23</ele>
        <time>2024-09-27T07:19:24.000Z</time>
      </trkpt>
      <trkpt lat="42.37287" lon="1.76264">
        <ele>1029.41</ele>
        <time>2024-09-27T07:19:29.000Z</time>
      </trkpt>
      <trkpt lat="42.37285" lon="1.76244">
        <ele>1029.6</ele>
        <time>2024-09-27T07:19:34.000Z</time>
      </trkpt>
      <trkpt lat="42.37284" lon="1.76225">
        <ele>1029.78</ele>
        <time>2024-09-27T07:19:39.000Z</time>
      </trkpt>
      <trkpt lat="42.37283" lon="1.76206">
        <ele>1029.97</ele>
        <time>2024-09-27T07:19:44.000Z</time>
      </trkpt>
      <trkpt lat="42.37282" lon="1.76187">
        <ele>1030.16</ele>
        <time>2024-09-27T07:19:49.000Z</time>
      </trkpt>
      <trkpt lat="42.37282" lon="1.76168">
        <ele>1030.35</ele>
        <time>2024-09-27T07:19:54.000Z</time>
      </trkpt>
      <trkpt lat="42.37283" lon="1.76148">
        <ele>1030.53</ele>
        <time>2024-09-27T07:19:59.000Z</time>
      </trkpt>
      <trkpt lat="42.37285" lon="1.76129">
        <ele>1030.71</ele>
        <time>2024-09-27T07:20:04.000Z</time>
      </trkpt>
      <trkpt lat="42.37288" lon="1.7611">
        <ele>1030.88</ele>
        <time>2024-09-27T07:20:09.000Z</time>
      </trkpt>
      <trkpt lat="42.37291" lon="1.76091">
        <ele>1031.06</ele>
        <time>2024-09-27T07:20:14.000Z</time>
      </trkpt>
      <trkpt lat="42.37296" lon="1.76071">
        <ele>1031.23</ele>
        <time>2024-09-27T07:20:19.000Z</time>
      </trkpt>
      <trkpt lat="42.37301" lon="1.76052">
        <ele>1031.41</ele>
        <time>2024-09-27T07:20:24.000Z</time>
      </trkpt>
      <trkpt lat="42.37307" lon="1.76032">
        <ele>1031.58</ele>
        <time>2024-09-27T07:20:29.000Z</time>
      </trkpt>
      <trkpt lat="42.37312" lon="1.76012">
        <ele>1031.75</ele>
        <time>2024-09-27T07:20:34.000Z</time>
      </trkpt>
      <trkpt lat="42.37318" lon="1.75992">
        <ele>1031.92</ele>
        <time>2024-09-27T07:20:39.000Z</time>
      </trkpt>
      <trkpt lat="42.37324" lon="1.75972">
        <ele>1032.09</ele>
        <time>2024-09-27T07:20:44.000Z</time>
      </trkpt>
      <trkpt lat="42.37328" lon="1.75953">
        <ele>1032.26</ele>
        <time>2024-09-27T07:20:49.000Z</time>
      </trkpt>
      <trkpt lat="42.37332" lon="1.75933">
        <ele>1032.44</ele>
        <time>2024-09-27T07:20:54.000Z</time>
      </trkpt>
      <trkpt lat="42.37335" lon="1.75914">
        <ele>1032.63</ele>
        <time>2024-09-27T07:20:59.000Z</time>
      </trkpt>
      <trkpt lat="42.37337" lon="1.75895">
        <ele>1032.82</ele>
        <time>2024-09-27T07:21:04.000Z</time>
      </trkpt>
      <trkpt lat="42.37339" lon="1.75876">
        <ele>1033.02</ele>
        <time>2024-09-27T07:21:09.000Z</time>
      </trkpt>
      <trkpt lat="42.37339" lon="1.75856">
        <ele>1033.22</ele>
        <time>2024-09-27T07:21:14.000Z</time>
      </trkpt>
      <trkpt lat="42.37339" lon="1.75836">
        <ele>1033.42</ele>
        <time>2024-09-27T07:21:19.000Z</time>
      </trkpt>
      <trkpt lat="42.37337" lon="1.75817">
        <ele>1033.61</ele>
        <time>2024-09-27T07:21:24.000Z</time>
      </trkpt>
      <trkpt lat="42.37335" lon="1.75796">
        <ele>1033.81</ele>
        <time>2024-09-27T07:21:29.000Z</time>
      </trkpt>
      <trkpt lat="42.37332" lon="1.75775">
        <ele>1034.01</ele>
        <time>2024-09-27T07:21:34.000Z</time>
      </trkpt>
      <trkpt lat="42.37329" lon="1.75754">
        <ele>1034.21</ele>
        <time>2024-09-27T07:21:39.000Z</time>
      </trkpt>
      <trkpt lat="42.37326" lon="1.75733">
        <ele>1034.41</ele>
        <time>2024-09-27T07:21:44.000Z</time>
      </trkpt>
      <trkpt lat="42.37322" lon="1.75711">
        <ele>1034.62</ele>
        <time>2024-09-27T07:21:49.000Z</time>
      </trkpt>
      <trkpt lat="42.37319" lon="1.75689">
        <ele>1034.82</ele>
        <time>2024-09-27T07:21:54.000Z</time>
      </trkpt>
      <trkpt lat="42.37317" lon="1.75667">
        <ele>1035.03</ele>
        <time>2024-09-27T07:21:59.000Z</time>
      </trkpt>
      <trkpt lat="42.37317" lon="1.75644">
        <ele>1035.23</ele>
        <time>2024-09-27T07:22:04.000Z</time>
      </trkpt>
      <trkpt lat="42.37317" lon="1.75622">
        <ele>1035.43</ele>
        <time>2024-09-27T07:22:09.000Z</time>
      </trkpt>
      <trkpt lat="42.37319" lon="1.75599">
        <ele>1035.63</ele>
        <time>2024-09-27T07:22:14.000Z</time>
      </trkpt>
      <trkpt lat="42.37322" lon="1.75576">
        <ele>1035.83</ele>
        <time>2024-09-27T07:22:19.000Z</time>
      </trkpt>
      <trkpt lat="42.37327" lon="1.7555">
        <ele>1037.16</ele>
        <time>2024-09-27T07:22:24.000Z</time>
      </trkpt>
      <trkpt lat="42.37333" lon="1.75522">
        <ele>1037.77</ele>
        <time>2024-09-27T07:22:29.000Z</time>
      </trkpt>
      <trkpt lat="42.3734" lon="1.75493">
        <ele>1038.1</ele>
        <time>2024-09-27T07:22:34.000Z</time>
      </trkpt>
      <trkpt lat="42.37349" lon="1.75462">
        <ele>1038.32</ele>
        <time>2024-09-27T07:22:39.000Z</time>
      </trkpt>
      <trkpt lat="42.37359" lon="1.75421">
        <ele>1038.53</ele>
        <time>2024-09-27T07:22:44.999Z</time>
      </trkpt>
      <trkpt lat="42.37369" lon="1.75384">
        <ele>1038.7</ele>
        <time>2024-09-27T07:22:49.999Z</time>
      </trkpt>
      <trkpt lat="42.37379" lon="1.75346">
        <ele>1038.87</ele>
        <time>2024-09-27T07:22:54.999Z</time>
      </trkpt>
      <trkpt lat="42.37387" lon="1.75307">
        <ele>1039.01</ele>
        <time>2024-09-27T07:22:59.999Z</time>
      </trkpt>
      <trkpt lat="42.37392" lon="1.75268">
        <ele>1039.13</ele>
        <time>2024-09-27T07:23:04.999Z</time>
      </trkpt>
      <trkpt lat="42.37394" lon="1.75229">
        <ele>1039.24</ele>
        <time>2024-09-27T07:23:09.999Z</time>
      </trkpt>
      <trkpt lat="42.37393" lon="1.7519">
        <ele>1039.34</ele>
        <time>2024-09-27T07:23:14.999Z</time>
      </trkpt>
      <trkpt lat="42.37388" lon="1.7515">
        <ele>1039.42</ele>
        <time>2024-09-27T07:23:19.999Z</time>
      </trkpt>
      <trkpt lat="42.37381" lon="1.75111">
        <ele>1039.49</ele>
        <time>2024-09-27T07:23:24.999Z</time>
      </trkpt>
      <trkpt lat="42.37374" lon="1.75072">
        <ele>1039.56</ele>
        <time>2024-09-27T07:23:29.999Z</time>
      </trkpt>
      <trkpt lat="42.37368" lon="1.75033">
        <ele>1039.59</ele>
        <time>2024-09-27T07:23:34.999Z</time>
      </trkpt>
      <trkpt lat="42.37362" lon="1.74995">
        <ele>1039.48</ele>
        <time>2024-09-27T07:23:39.999Z</time>
      </trkpt>
      <trkpt lat="42.37356" lon="1.74957">
        <ele>1039.39</ele>
        <time>2024-09-27T07:23:44.999Z</time>
      </trkpt>
      <trkpt lat="42.37349" lon="1.7492">
        <ele>1039.18</ele>
        <time>2024-09-27T07:23:49.999Z</time>
      </trkpt>
      <trkpt lat="42.37343" lon="1.74883">
        <ele>1038.87</ele>
        <time>2024-09-27T07:23:54.999Z</time>
      </trkpt>
      <trkpt lat="42.37337" lon="1.74844">
        <ele>1038.51</ele>
        <time>2024-09-27T07:23:59.999Z</time>
      </trkpt>
      <trkpt lat="42.37331" lon="1.74805">
        <ele>1038.16</ele>
        <time>2024-09-27T07:24:04.999Z</time>
      </trkpt>
      <trkpt lat="42.37324" lon="1.74765">
        <ele>1037.75</ele>
        <time>2024-09-27T07:24:09.999Z</time>
      </trkpt>
      <trkpt lat="42.37317" lon="1.74724">
        <ele>1037.33</ele>
        <time>2024-09-27T07:24:14.999Z</time>
      </trkpt>
      <trkpt lat="42.37311" lon="1.74684">
        <ele>1036.83</ele>
        <time>2024-09-27T07:24:19.999Z</time>
      </trkpt>
      <trkpt lat="42.37304" lon="1.74642">
        <ele>1036.38</ele>
        <time>2024-09-27T07:24:24.999Z</time>
      </trkpt>
      <trkpt lat="42.37299" lon="1.746">
        <ele>1035.89</ele>
        <time>2024-09-27T07:24:29.999Z</time>
      </trkpt>
      <trkpt lat="42.37294" lon="1.74561">
        <ele>1035.25</ele>
        <time>2024-09-27T07:24:34.999Z</time>
      </trkpt>
      <trkpt lat="42.37291" lon="1.74526">
        <ele>1034.72</ele>
        <time>2024-09-27T07:24:39.999Z</time>
      </trkpt>
      <trkpt lat="42.37288" lon="1.74496">
        <ele>1034.63</ele>
        <time>2024-09-27T07:24:44.999Z</time>
      </trkpt>
      <trkpt lat="42.37288" lon="1.74469">
        <ele>1034.98</ele>
        <time>2024-09-27T07:24:49.999Z</time>
      </trkpt>
      <trkpt lat="42.37291" lon="1.74444">
        <ele>1035.08</ele>
        <time>2024-09-27T07:24:54.999Z</time>
      </trkpt>
      <trkpt lat="42.37295" lon="1.74422">
        <ele>1035.12</ele>
        <time>2024-09-27T07:24:59.999Z</time>
      </trkpt>
      <trkpt lat="42.37298" lon="1.744">
        <ele>1035.15</ele>
        <time>2024-09-27T07:25:04.999Z</time>
      </trkpt>
      <trkpt lat="42.373" lon="1.74382">
        <ele>1035.18</ele>
        <time>2024-09-27T07:25:09.999Z</time>
      </trkpt>
      <trkpt lat="42.37302" lon="1.74363">
        <ele>1035.21</ele>
        <time>2024-09-27T07:25:14.999Z</time>
      </trkpt>
      <trkpt lat="42.37304" lon="1.74343">
        <ele>1035.23</ele>
        <time>2024-09-27T07:25:19.999Z</time>
      </trkpt>
      <trkpt lat="42.37308" lon="1.74324">
        <ele>1035.24</ele>
        <time>2024-09-27T07:25:24.999Z</time>
      </trkpt>
      <trkpt lat="42.37312" lon="1.74305">
        <ele>1035.22</ele>
        <time>2024-09-27T07:25:29.999Z</time>
      </trkpt>
      <trkpt lat="42.37316" lon="1.74286">
        <ele>1035.19</ele>
        <time>2024-09-27T07:25:34.999Z</time>
      </trkpt>
      <trkpt lat="42.3732" lon="1.74267">
        <ele>1035.14</ele>
        <time>2024-09-27T07:25:39.999Z</time>
      </trkpt>
      <trkpt lat="42.37324" lon="1.74247">
        <ele>1035.08</ele>
        <time>2024-09-27T07:25:44.999Z</time>
      </trkpt>
      <trkpt lat="42.37328" lon="1.74227">
        <ele>1035.03</ele>
        <time>2024-09-27T07:25:49.999Z</time>
      </trkpt>
      <trkpt lat="42.37332" lon="1.74206">
        <ele>1034.96</ele>
        <time>2024-09-27T07:25:54.999Z</time>
      </trkpt>
      <trkpt lat="42.37337" lon="1.74182">
        <ele>1034.89</ele>
        <time>2024-09-27T07:25:59.999Z</time>
      </trkpt>
      <trkpt lat="42.3734" lon="1.74157">
        <ele>1034.7</ele>
        <time>2024-09-27T07:26:04.999Z</time>
      </trkpt>
      <trkpt lat="42.37342" lon="1.74131">
        <ele>1034.38</ele>
        <time>2024-09-27T07:26:09.999Z</time>
      </trkpt>
      <trkpt lat="42.37342" lon="1.74102">
        <ele>1034.28</ele>
        <time>2024-09-27T07:26:14.999Z</time>
      </trkpt>
      <trkpt lat="42.37341" lon="1.74071">
        <ele>1034.23</ele>
        <time>2024-09-27T07:26:19.999Z</time>
      </trkpt>
      <trkpt lat="42.37337" lon="1.74038">
        <ele>1034.14</ele>
        <time>2024-09-27T07:26:24.999Z</time>
      </trkpt>
      <trkpt lat="42.37329" lon="1.74002">
        <ele>1034</ele>
        <time>2024-09-27T07:26:29.999Z</time>
      </trkpt>
      <trkpt lat="42.37318" lon="1.73968">
        <ele>1033.86</ele>
        <time>2024-09-27T07:26:34.999Z</time>
      </trkpt>
      <trkpt lat="42.37303" lon="1.73935">
        <ele>1033.74</ele>
        <time>2024-09-27T07:26:39.999Z</time>
      </trkpt>
      <trkpt lat="42.37286" lon="1.73903">
        <ele>1033.64</ele>
        <time>2024-09-27T07:26:44.999Z</time>
      </trkpt>
      <trkpt lat="42.3727" lon="1.73876">
        <ele>1033.55</ele>
        <time>2024-09-27T07:26:49.999Z</time>
      </trkpt>
      <trkpt lat="42.37256" lon="1.73852">
        <ele>1033.47</ele>
        <time>2024-09-27T07:26:54.999Z</time>
      </trkpt>
      <trkpt lat="42.37243" lon="1.73831">
        <ele>1033.38</ele>
        <time>2024-09-27T07:26:59.999Z</time>
      </trkpt>
      <trkpt lat="42.37232" lon="1.73812">
        <ele>1033.33</ele>
        <time>2024-09-27T07:27:04.999Z</time>
      </trkpt>
      <trkpt lat="42.3722" lon="1.73793">
        <ele>1033.29</ele>
        <time>2024-09-27T07:27:09.999Z</time>
      </trkpt>
      <trkpt lat="42.37208" lon="1.73774">
        <ele>1033.22</ele>
        <time>2024-09-27T07:27:14.999Z</time>
      </trkpt>
      <trkpt lat="42.37196" lon="1.73754">
        <ele>1033.11</ele>
        <time>2024-09-27T07:27:19.999Z</time>
      </trkpt>
      <trkpt lat="42.37184" lon="1.73734">
        <ele>1033.02</ele>
        <time>2024-09-27T07:27:24.999Z</time>
      </trkpt>
      <trkpt lat="42.37171" lon="1.73714">
        <ele>1032.95</ele>
        <time>2024-09-27T07:27:29.999Z</time>
      </trkpt>
      <trkpt lat="42.37158" lon="1.73692">
        <ele>1032.88</ele>
        <time>2024-09-27T07:27:34.999Z</time>
      </trkpt>
      <trkpt lat="42.37144" lon="1.7367">
        <ele>1032.77</ele>
        <time>2024-09-27T07:27:39.999Z</time>
      </trkpt>
      <trkpt lat="42.37131" lon="1.73648">
        <ele>1032.64</ele>
        <time>2024-09-27T07:27:44.999Z</time>
      </trkpt>
      <trkpt lat="42.37117" lon="1.73626">
        <ele>1032.5</ele>
        <time>2024-09-27T07:27:49.999Z</time>
      </trkpt>
      <trkpt lat="42.37104" lon="1.73606">
        <ele>1032.37</ele>
        <time>2024-09-27T07:27:54.999Z</time>
      </trkpt>
      <trkpt lat="42.37092" lon="1.73586">
        <ele>1032.35</ele>
        <time>2024-09-27T07:27:59.999Z</time>
      </trkpt>
      <trkpt lat="42.37081" lon="1.73569">
        <ele>1032.33</ele>
        <time>2024-09-27T07:28:04.999Z</time>
      </trkpt>
      <trkpt lat="42.3707" lon="1.73552">
        <ele>1032.31</ele>
        <time>2024-09-27T07:28:09.999Z</time>
      </trkpt>
      <trkpt lat="42.37059" lon="1.73535">
        <ele>1032.28</ele>
        <time>2024-09-27T07:28:14.999Z</time>
      </trkpt>
      <trkpt lat="42.37049" lon="1.73518">
        <ele>1032.25</ele>
        <time>2024-09-27T07:28:19.999Z</time>
      </trkpt>
      <trkpt lat="42.37038" lon="1.735">
        <ele>1032.22</ele>
        <time>2024-09-27T07:28:24.999Z</time>
      </trkpt>
      <trkpt lat="42.37027" lon="1.73483">
        <ele>1032.19</ele>
        <time>2024-09-27T07:28:29.999Z</time>
      </trkpt>
      <trkpt lat="42.37018" lon="1.73466">
        <ele>1032.16</ele>
        <time>2024-09-27T07:28:34.999Z</time>
      </trkpt>
      <trkpt lat="42.37008" lon="1.73447">
        <ele>1032.13</ele>
        <time>2024-09-27T07:28:39.999Z</time>
      </trkpt>
      <trkpt lat="42.36998" lon="1.7343">
        <ele>1032.09</ele>
        <time>2024-09-27T07:28:44.999Z</time>
      </trkpt>
      <trkpt lat="42.36988" lon="1.73411">
        <ele>1032.05</ele>
        <time>2024-09-27T07:28:49.999Z</time>
      </trkpt>
      <trkpt lat="42.3698" lon="1.73395">
        <ele>1032.02</ele>
        <time>2024-09-27T07:28:54.999Z</time>
      </trkpt>
      <trkpt lat="42.36972" lon="1.73376">
        <ele>1031.99</ele>
        <time>2024-09-27T07:28:59.999Z</time>
      </trkpt>
      <trkpt lat="42.36964" lon="1.73354">
        <ele>1031.97</ele>
        <time>2024-09-27T07:29:04.999Z</time>
      </trkpt>
      <trkpt lat="42.36956" lon="1.73333">
        <ele>1031.95</ele>
        <time>2024-09-27T07:29:09.999Z</time>
      </trkpt>
      <trkpt lat="42.36949" lon="1.73311">
        <ele>1031.92</ele>
        <time>2024-09-27T07:29:14.999Z</time>
      </trkpt>
      <trkpt lat="42.36945" lon="1.733">
        <ele>1031.89</ele>
        <time>2024-09-27T07:29:44.999Z</time>
      </trkpt>
      <trkpt lat="42.36941" lon="1.73286">
        <ele>1031.9</ele>
        <time>2024-09-27T07:29:49.999Z</time>
      </trkpt>
      <trkpt lat="42.36935" lon="1.73263">
        <ele>1031.93</ele>
        <time>2024-09-27T07:29:54.999Z</time>
      </trkpt>
      <trkpt lat="42.36928" lon="1.73233">
        <ele>1031.99</ele>
        <time>2024-09-27T07:29:59.999Z</time>
      </trkpt>
      <trkpt lat="42.36922" lon="1.732">
        <ele>1032.07</ele>
        <time>2024-09-27T07:30:04.999Z</time>
      </trkpt>
      <trkpt lat="42.36916" lon="1.7316">
        <ele>1032.09</ele>
        <time>2024-09-27T07:30:09.999Z</time>
      </trkpt>
      <trkpt lat="42.36911" lon="1.73115">
        <ele>1032.02</ele>
        <time>2024-09-27T07:30:14.999Z</time>
      </trkpt>
      <trkpt lat="42.36906" lon="1.73066">
        <ele>1031.84</ele>
        <time>2024-09-27T07:30:19.999Z</time>
      </trkpt>
      <trkpt lat="42.369" lon="1.73017">
        <ele>1031.48</ele>
        <time>2024-09-27T07:30:24.999Z</time>
      </trkpt>
      <trkpt lat="42.36894" lon="1.72965">
        <ele>1031.39</ele>
        <time>2024-09-27T07:30:29.999Z</time>
      </trkpt>
      <trkpt lat="42.36888" lon="1.72911">
        <ele>1031.3</ele>
        <time>2024-09-27T07:30:34.999Z</time>
      </trkpt>
      <trkpt lat="42.36881" lon="1.72857">
        <ele>1031.13</ele>
        <time>2024-09-27T07:30:39.999Z</time>
      </trkpt>
      <trkpt lat="42.36875" lon="1.72805">
        <ele>1030.68</ele>
        <time>2024-09-27T07:30:44.999Z</time>
      </trkpt>
      <trkpt lat="42.36869" lon="1.72757">
        <ele>1030.03</ele>
        <time>2024-09-27T07:30:49.999Z</time>
      </trkpt>
      <trkpt lat="42.36864" lon="1.7271">
        <ele>1029.53</ele>
        <time>2024-09-27T07:30:54.999Z</time>
      </trkpt>
      <trkpt lat="42.36858" lon="1.72667">
        <ele>1028.94</ele>
        <time>2024-09-27T07:30:59.999Z</time>
      </trkpt>
      <trkpt lat="42.3685" lon="1.72628">
        <ele>1028.52</ele>
        <time>2024-09-27T07:31:04.999Z</time>
      </trkpt>
      <trkpt lat="42.36838" lon="1.72592">
        <ele>1028.33</ele>
        <time>2024-09-27T07:31:09.999Z</time>
      </trkpt>
      <trkpt lat="42.36824" lon="1.72558">
        <ele>1028.36</ele>
        <time>2024-09-27T07:31:14.999Z</time>
      </trkpt>
      <trkpt lat="42.36807" lon="1.72526">
        <ele>1028.6</ele>
        <time>2024-09-27T07:31:19.999Z</time>
      </trkpt>
      <trkpt lat="42.36788" lon="1.72495">
        <ele>1028.76</ele>
        <time>2024-09-27T07:31:24.999Z</time>
      </trkpt>
      <trkpt lat="42.36769" lon="1.72465">
        <ele>1028.6</ele>
        <time>2024-09-27T07:31:29.999Z</time>
      </trkpt>
      <trkpt lat="42.36751" lon="1.72438">
        <ele>1027.96</ele>
        <time>2024-09-27T07:31:34.999Z</time>
      </trkpt>
      <trkpt lat="42.36735" lon="1.72413">
        <ele>1027.32</ele>
        <time>2024-09-27T07:31:39.999Z</time>
      </trkpt>
      <trkpt lat="42.3672" lon="1.72387">
        <ele>1026.65</ele>
        <time>2024-09-27T07:31:44.999Z</time>
      </trkpt>
      <trkpt lat="42.36705" lon="1.72359">
        <ele>1025.98</ele>
        <time>2024-09-27T07:31:49.999Z</time>
      </trkpt>
      <trkpt lat="42.36695" lon="1.72327">
        <ele>1025.48</ele>
        <time>2024-09-27T07:31:54.999Z</time>
      </trkpt>
      <trkpt lat="42.36689" lon="1.72296">
        <ele>1025.07</ele>
        <time>2024-09-27T07:31:59.999Z</time>
      </trkpt>
      <trkpt lat="42.36682" lon="1.72264">
        <ele>1024.82</ele>
        <time>2024-09-27T07:32:04.999Z</time>
      </trkpt>
      <trkpt lat="42.36676" lon="1.72232">
        <ele>1024.66</ele>
        <time>2024-09-27T07:32:09.999Z</time>
      </trkpt>
      <trkpt lat="42.36672" lon="1.72199">
        <ele>1024.42</ele>
        <time>2024-09-27T07:32:14.999Z</time>
      </trkpt>
      <trkpt lat="42.36669" lon="1.72166">
        <ele>1023.67</ele>
        <time>2024-09-27T07:32:19.999Z</time>
      </trkpt>
      <trkpt lat="42.36666" lon="1.72132">
        <ele>1022.82</ele>
        <time>2024-09-27T07:32:24.999Z</time>
      </trkpt>
      <trkpt lat="42.36662" lon="1.72096">
        <ele>1021.83</ele>
        <time>2024-09-27T07:32:29.999Z</time>
      </trkpt>
      <trkpt lat="42.36658" lon="1.72057">
        <ele>1020.89</ele>
        <time>2024-09-27T07:32:34.999Z</time>
      </trkpt>
      <trkpt lat="42.36653" lon="1.72013">
        <ele>1019.8</ele>
        <time>2024-09-27T07:32:39.999Z</time>
      </trkpt>
      <trkpt lat="42.36646" lon="1.71967">
        <ele>1018.56</ele>
        <time>2024-09-27T07:32:44.999Z</time>
      </trkpt>
      <trkpt lat="42.36639" lon="1.71922">
        <ele>1017.32</ele>
        <time>2024-09-27T07:32:49.999Z</time>
      </trkpt>
      <trkpt lat="42.3663" lon="1.71882">
        <ele>1016.12</ele>
        <time>2024-09-27T07:32:54.999Z</time>
      </trkpt>
      <trkpt lat="42.36619" lon="1.71843">
        <ele>1014.95</ele>
        <time>2024-09-27T07:32:59.999Z</time>
      </trkpt>
      <trkpt lat="42.36606" lon="1.71805">
        <ele>1014.09</ele>
        <time>2024-09-27T07:33:04.999Z</time>
      </trkpt>
      <trkpt lat="42.36593" lon="1.71769">
        <ele>1013.45</ele>
        <time>2024-09-27T07:33:09.999Z</time>
      </trkpt>
      <trkpt lat="42.3658" lon="1.71735">
        <ele>1012.92</ele>
        <time>2024-09-27T07:33:14.999Z</time>
      </trkpt>
      <trkpt lat="42.36568" lon="1.71702">
        <ele>1012.78</ele>
        <time>2024-09-27T07:33:19.999Z</time>
      </trkpt>
      <trkpt lat="42.36556" lon="1.71671">
        <ele>1012.44</ele>
        <time>2024-09-27T07:33:24.999Z</time>
      </trkpt>
      <trkpt lat="42.36546" lon="1.71639">
        <ele>1011.88</ele>
        <time>2024-09-27T07:33:29.999Z</time>
      </trkpt>
      <trkpt lat="42.36539" lon="1.71608">
        <ele>1011.04</ele>
        <time>2024-09-27T07:33:34.999Z</time>
      </trkpt>
      <trkpt lat="42.36533" lon="1.71575">
        <ele>1010.19</ele>
        <time>2024-09-27T07:33:39.999Z</time>
      </trkpt>
      <trkpt lat="42.36529" lon="1.71542">
        <ele>1009.35</ele>
        <time>2024-09-27T07:33:44.999Z</time>
      </trkpt>
      <trkpt lat="42.36527" lon="1.71509">
        <ele>1008.22</ele>
        <time>2024-09-27T07:33:49.999Z</time>
      </trkpt>
      <trkpt lat="42.36524" lon="1.7148">
        <ele>1007.64</ele>
        <time>2024-09-27T07:33:54.999Z</time>
      </trkpt>
      <trkpt lat="42.36522" lon="1.71462">
        <ele>1007.52</ele>
        <time>2024-09-27T07:33:59.999Z</time>
      </trkpt>
      <trkpt lat="42.36522" lon="1.71448">
        <ele>1006.96</ele>
        <time>2024-09-27T07:34:39.999Z</time>
      </trkpt>
      <trkpt lat="42.36519" lon="1.71422">
        <ele>1005.79</ele>
        <time>2024-09-27T07:34:44.999Z</time>
      </trkpt>
      <trkpt lat="42.36514" lon="1.71393">
        <ele>1005.03</ele>
        <time>2024-09-27T07:34:49.999Z</time>
      </trkpt>
      <trkpt lat="42.36507" lon="1.71361">
        <ele>1004.51</ele>
        <time>2024-09-27T07:34:54.999Z</time>
      </trkpt>
      <trkpt lat="42.36498" lon="1.71331">
        <ele>1004.16</ele>
        <time>2024-09-27T07:34:59.999Z</time>
      </trkpt>
      <trkpt lat="42.36464" lon="1.71264">
        <ele>1003.8</ele>
        <time>2024-09-27T07:35:14.000Z</time>
      </trkpt>
      <trkpt lat="42.36453" lon="1.71223">
        <ele>1003.84</ele>
        <time>2024-09-27T07:35:19.000Z</time>
      </trkpt>
      <trkpt lat="42.3644" lon="1.71186">
        <ele>1003.7</ele>
        <time>2024-09-27T07:35:24.000Z</time>
      </trkpt>
      <trkpt lat="42.36427" lon="1.7115">
        <ele>1003.27</ele>
        <time>2024-09-27T07:35:29.000Z</time>
      </trkpt>
      <trkpt lat="42.36417" lon="1.71115">
        <ele>1003.52</ele>
        <time>2024-09-27T07:35:34.000Z</time>
      </trkpt>
      <trkpt lat="42.36411" lon="1.71086">
        <ele>1003.7</ele>
        <time>2024-09-27T07:35:39.000Z</time>
      </trkpt>
      <trkpt lat="42.36405" lon="1.71055">
        <ele>1003.15</ele>
        <time>2024-09-27T07:35:44.000Z</time>
      </trkpt>
      <trkpt lat="42.36402" lon="1.71025">
        <ele>1002.28</ele>
        <time>2024-09-27T07:35:49.000Z</time>
      </trkpt>
      <trkpt lat="42.36399" lon="1.70994">
        <ele>1001.55</ele>
        <time>2024-09-27T07:35:54.000Z</time>
      </trkpt>
      <trkpt lat="42.36398" lon="1.70963">
        <ele>1000.98</ele>
        <time>2024-09-27T07:35:59.000Z</time>
      </trkpt>
      <trkpt lat="42.36399" lon="1.70931">
        <ele>1000.52</ele>
        <time>2024-09-27T07:36:04.000Z</time>
      </trkpt>
      <trkpt lat="42.36401" lon="1.70899">
        <ele>1000.05</ele>
        <time>2024-09-27T07:36:09.000Z</time>
      </trkpt>
      <trkpt lat="42.36403" lon="1.7087">
        <ele>999.69</ele>
        <time>2024-09-27T07:36:14.000Z</time>
      </trkpt>
      <trkpt lat="42.36406" lon="1.7084">
        <ele>999.46</ele>
        <time>2024-09-27T07:36:19.000Z</time>
      </trkpt>
      <trkpt lat="42.36409" lon="1.70813">
        <ele>999.32</ele>
        <time>2024-09-27T07:36:24.000Z</time>
      </trkpt>
      <trkpt lat="42.36413" lon="1.70783">
        <ele>999.25</ele>
        <time>2024-09-27T07:36:29.000Z</time>
      </trkpt>
      <trkpt lat="42.36416" lon="1.70753">
        <ele>999.23</ele>
        <time>2024-09-27T07:36:34.000Z</time>
      </trkpt>
      <trkpt lat="42.3642" lon="1.70724">
        <ele>999.15</ele>
        <time>2024-09-27T07:36:39.000Z</time>
      </trkpt>
      <trkpt lat="42.36423" lon="1.70692">
        <ele>998.93</ele>
        <time>2024-09-27T07:36:44.000Z</time>
      </trkpt>
      <trkpt lat="42.36425" lon="1.70658">
        <ele>998.8</ele>
        <time>2024-09-27T07:36:49.000Z</time>
      </trkpt>
      <trkpt lat="42.36423" lon="1.70625">
        <ele>998.71</ele>
        <time>2024-09-27T07:36:54.000Z</time>
      </trkpt>
      <trkpt lat="42.36416" lon="1.70594">
        <ele>998.63</ele>
        <time>2024-09-27T07:36:59.000Z</time>
      </trkpt>
      <trkpt lat="42.36404" lon="1.70564">
        <ele>998.52</ele>
        <time>2024-09-27T07:37:04.000Z</time>
      </trkpt>
      <trkpt lat="42.36389" lon="1.70539">
        <ele>998.41</ele>
        <time>2024-09-27T07:37:09.000Z</time>
      </trkpt>
      <trkpt lat="42.36372" lon="1.70521">
        <ele>998.3</ele>
        <time>2024-09-27T07:37:14.000Z</time>
      </trkpt>
      <trkpt lat="42.36353" lon="1.70506">
        <ele>998.23</ele>
        <time>2024-09-27T07:37:19.000Z</time>
      </trkpt>
      <trkpt lat="42.36335" lon="1.70496">
        <ele>998.21</ele>
        <time>2024-09-27T07:37:24.000Z</time>
      </trkpt>
      <trkpt lat="42.36318" lon="1.70488">
        <ele>998.21</ele>
        <time>2024-09-27T07:37:29.000Z</time>
      </trkpt>
      <trkpt lat="42.363" lon="1.70479">
        <ele>998.21</ele>
        <time>2024-09-27T07:37:34.000Z</time>
      </trkpt>
      <trkpt lat="42.36282" lon="1.7047">
        <ele>998.26</ele>
        <time>2024-09-27T07:37:39.000Z</time>
      </trkpt>
      <trkpt lat="42.36263" lon="1.70459">
        <ele>998.33</ele>
        <time>2024-09-27T07:37:44.000Z</time>
      </trkpt>
      <trkpt lat="42.36244" lon="1.70447">
        <ele>998.35</ele>
        <time>2024-09-27T07:37:49.000Z</time>
      </trkpt>
      <trkpt lat="42.36223" lon="1.70435">
        <ele>998.36</ele>
        <time>2024-09-27T07:37:54.000Z</time>
      </trkpt>
      <trkpt lat="42.362" lon="1.70423">
        <ele>998.35</ele>
        <time>2024-09-27T07:37:59.000Z</time>
      </trkpt>
      <trkpt lat="42.36177" lon="1.7041">
        <ele>998.29</ele>
        <time>2024-09-27T07:38:04.000Z</time>
      </trkpt>
      <trkpt lat="42.36152" lon="1.70396">
        <ele>998.23</ele>
        <time>2024-09-27T07:38:09.000Z</time>
      </trkpt>
      <trkpt lat="42.36125" lon="1.70382">
        <ele>998.14</ele>
        <time>2024-09-27T07:38:14.000Z</time>
      </trkpt>
      <trkpt lat="42.36098" lon="1.70366">
        <ele>998.13</ele>
        <time>2024-09-27T07:38:19.000Z</time>
      </trkpt>
      <trkpt lat="42.36067" lon="1.70348">
        <ele>998.18</ele>
        <time>2024-09-27T07:38:24.000Z</time>
      </trkpt>
      <trkpt lat="42.36038" lon="1.70327">
        <ele>997.99</ele>
        <time>2024-09-27T07:38:29.000Z</time>
      </trkpt>
      <trkpt lat="42.36009" lon="1.70302">
        <ele>997.84</ele>
        <time>2024-09-27T07:38:34.000Z</time>
      </trkpt>
      <trkpt lat="42.3598" lon="1.70274">
        <ele>997.65</ele>
        <time>2024-09-27T07:38:39.000Z</time>
      </trkpt>
      <trkpt lat="42.35951" lon="1.70247">
        <ele>997.39</ele>
        <time>2024-09-27T07:38:44.000Z</time>
      </trkpt>
      <trkpt lat="42.35924" lon="1.70215">
        <ele>996.86</ele>
        <time>2024-09-27T07:38:49.000Z</time>
      </trkpt>
      <trkpt lat="42.35907" lon="1.7017">
        <ele>996.44</ele>
        <time>2024-09-27T07:38:54.000Z</time>
      </trkpt>
      <trkpt lat="42.35902" lon="1.70119">
        <ele>996.08</ele>
        <time>2024-09-27T07:38:59.000Z</time>
      </trkpt>
      <trkpt lat="42.35915" lon="1.70069">
        <ele>995.38</ele>
        <time>2024-09-27T07:39:04.000Z</time>
      </trkpt>
      <trkpt lat="42.3593" lon="1.70021">
        <ele>994.78</ele>
        <time>2024-09-27T07:39:09.000Z</time>
      </trkpt>
      <trkpt lat="42.35945" lon="1.69977">
        <ele>994.05</ele>
        <time>2024-09-27T07:39:14.000Z</time>
      </trkpt>
      <trkpt lat="42.35958" lon="1.69936">
        <ele>993.33</ele>
        <time>2024-09-27T07:39:19.000Z</time>
      </trkpt>
      <trkpt lat="42.3597" lon="1.69899">
        <ele>992.57</ele>
        <time>2024-09-27T07:39:24.000Z</time>
      </trkpt>
      <trkpt lat="42.35981" lon="1.6986">
        <ele>991.89</ele>
        <time>2024-09-27T07:39:29.000Z</time>
      </trkpt>
      <trkpt lat="42.35987" lon="1.69819">
        <ele>991.27</ele>
        <time>2024-09-27T07:39:34.000Z</time>
      </trkpt>
      <trkpt lat="42.3599" lon="1.69774">
        <ele>990.95</ele>
        <time>2024-09-27T07:39:39.000Z</time>
      </trkpt>
      <trkpt lat="42.35987" lon="1.69726">
        <ele>991.09</ele>
        <time>2024-09-27T07:39:44.000Z</time>
      </trkpt>
      <trkpt lat="42.3598" lon="1.69685">
        <ele>991.14</ele>
        <time>2024-09-27T07:39:49.000Z</time>
      </trkpt>
      <trkpt lat="42.35974" lon="1.69649">
        <ele>990.94</ele>
        <time>2024-09-27T07:39:54.000Z</time>
      </trkpt>
      <trkpt lat="42.35971" lon="1.69622">
        <ele>991.02</ele>
        <time>2024-09-27T07:39:59.000Z</time>
      </trkpt>
      <trkpt lat="42.35972" lon="1.69599">
        <ele>991.03</ele>
        <time>2024-09-27T07:40:04.000Z</time>
      </trkpt>
      <trkpt lat="42.35973" lon="1.69577">
        <ele>990.91</ele>
        <time>2024-09-27T07:40:09.000Z</time>
      </trkpt>
      <trkpt lat="42.35974" lon="1.6956">
        <ele>990.61</ele>
        <time>2024-09-27T07:40:14.000Z</time>
      </trkpt>
      <trkpt lat="42.35975" lon="1.69546">
        <ele>989.1</ele>
        <time>2024-09-27T07:41:16.000Z</time>
      </trkpt>
      <trkpt lat="42.35975" lon="1.69529">
        <ele>988.38</ele>
        <time>2024-09-27T07:41:21.000Z</time>
      </trkpt>
      <trkpt lat="42.35976" lon="1.69506">
        <ele>987.69</ele>
        <time>2024-09-27T07:41:26.000Z</time>
      </trkpt>
      <trkpt lat="42.35977" lon="1.69482">
        <ele>985.01</ele>
        <time>2024-09-27T07:41:31.000Z</time>
      </trkpt>
      <trkpt lat="42.35978" lon="1.69466">
        <ele>984.59</ele>
        <time>2024-09-27T07:41:36.000Z</time>
      </trkpt>
      <trkpt lat="42.3597" lon="1.6946">
        <ele>983.35</ele>
        <time>2024-09-27T07:45:36.000Z</time>
      </trkpt>
      <trkpt lat="42.35971" lon="1.69447">
        <ele>983.14</ele>
        <time>2024-09-27T07:45:44.000Z</time>
      </trkpt>
      <trkpt lat="42.35969" lon="1.69427">
        <ele>983.03</ele>
        <time>2024-09-27T07:45:49.000Z</time>
      </trkpt>
      <trkpt lat="42.35962" lon="1.69402">
        <ele>982.59</ele>
        <time>2024-09-27T07:45:54.000Z</time>
      </trkpt>
      <trkpt lat="42.35955" lon="1.69365">
        <ele>982.36</ele>
        <time>2024-09-27T07:46:00.000Z</time>
      </trkpt>
      <trkpt lat="42.35953" lon="1.6933">
        <ele>982.16</ele>
        <time>2024-09-27T07:46:05.000Z</time>
      </trkpt>
      <trkpt lat="42.35956" lon="1.69293">
        <ele>981.84</ele>
        <time>2024-09-27T07:46:10.000Z</time>
      </trkpt>
      <trkpt lat="42.35965" lon="1.69252">
        <ele>981.22</ele>
        <time>2024-09-27T07:46:15.000Z</time>
      </trkpt>
      <trkpt lat="42.35979" lon="1.69215">
        <ele>980.48</ele>
        <time>2024-09-27T07:46:20.000Z</time>
      </trkpt>
      <trkpt lat="42.35995" lon="1.69181">
        <ele>979.72</ele>
        <time>2024-09-27T07:46:25.000Z</time>
      </trkpt>
      <trkpt lat="42.36012" lon="1.69151">
        <ele>978.97</ele>
        <time>2024-09-27T07:46:30.000Z</time>
      </trkpt>
      <trkpt lat="42.36026" lon="1.69121">
        <ele>978.62</ele>
        <time>2024-09-27T07:46:35.000Z</time>
      </trkpt>
      <trkpt lat="42.36036" lon="1.69095">
        <ele>978.43</ele>
        <time>2024-09-27T07:46:40.000Z</time>
      </trkpt>
      <trkpt lat="42.36043" lon="1.69072">
        <ele>978.33</ele>
        <time>2024-09-27T07:46:45.000Z</time>
      </trkpt>
      <trkpt lat="42.36048" lon="1.69048">
        <ele>978.22</ele>
        <time>2024-09-27T07:46:50.000Z</time>
      </trkpt>
      <trkpt lat="42.36053" lon="1.69026">
        <ele>978.2</ele>
        <time>2024-09-27T07:46:55.000Z</time>
      </trkpt>
      <trkpt lat="42.36055" lon="1.69004">
        <ele>978.19</ele>
        <time>2024-09-27T07:47:00.000Z</time>
      </trkpt>
      <trkpt lat="42.36057" lon="1.68982">
        <ele>978.19</ele>
        <time>2024-09-27T07:47:05.000Z</time>
      </trkpt>
      <trkpt lat="42.36057" lon="1.6896">
        <ele>978.2</ele>
        <time>2024-09-27T07:47:10.000Z</time>
      </trkpt>
      <trkpt lat="42.36057" lon="1.68937">
        <ele>978.23</ele>
        <time>2024-09-27T07:47:15.000Z</time>
      </trkpt>
      <trkpt lat="42.36057" lon="1.68908">
        <ele>978.39</ele>
        <time>2024-09-27T07:47:20.999Z</time>
      </trkpt>
      <trkpt lat="42.36057" lon="1.68881">
        <ele>978.5</ele>
        <time>2024-09-27T07:47:25.999Z</time>
      </trkpt>
      <trkpt lat="42.36056" lon="1.68851">
        <ele>978.44</ele>
        <time>2024-09-27T07:47:30.999Z</time>
      </trkpt>
      <trkpt lat="42.36055" lon="1.68819">
        <ele>978.3</ele>
        <time>2024-09-27T07:47:35.999Z</time>
      </trkpt>
      <trkpt lat="42.36052" lon="1.68787">
        <ele>978.28</ele>
        <time>2024-09-27T07:47:40.999Z</time>
      </trkpt>
      <trkpt lat="42.36047" lon="1.68755">
        <ele>978.33</ele>
        <time>2024-09-27T07:47:45.999Z</time>
      </trkpt>
      <trkpt lat="42.36039" lon="1.68724">
        <ele>978.5</ele>
        <time>2024-09-27T07:47:50.999Z</time>
      </trkpt>
      <trkpt lat="42.36028" lon="1.6869">
        <ele>978.57</ele>
        <time>2024-09-27T07:47:55.999Z</time>
      </trkpt>
      <trkpt lat="42.36014" lon="1.68656">
        <ele>978.58</ele>
        <time>2024-09-27T07:48:00.999Z</time>
      </trkpt>
      <trkpt lat="42.36" lon="1.6862">
        <ele>978.83</ele>
        <time>2024-09-27T07:48:05.999Z</time>
      </trkpt>
      <trkpt lat="42.35982" lon="1.68577">
        <ele>979.1</ele>
        <time>2024-09-27T07:48:10.999Z</time>
      </trkpt>
      <trkpt lat="42.35963" lon="1.6853">
        <ele>979.26</ele>
        <time>2024-09-27T07:48:15.999Z</time>
      </trkpt>
      <trkpt lat="42.35952" lon="1.68478">
        <ele>979.23</ele>
        <time>2024-09-27T07:48:20.999Z</time>
      </trkpt>
      <trkpt lat="42.35952" lon="1.68427">
        <ele>979.21</ele>
        <time>2024-09-27T07:48:25.999Z</time>
      </trkpt>
      <trkpt lat="42.35961" lon="1.68378">
        <ele>978.75</ele>
        <time>2024-09-27T07:48:30.999Z</time>
      </trkpt>
      <trkpt lat="42.35978" lon="1.68338">
        <ele>978.48</ele>
        <time>2024-09-27T07:48:35.999Z</time>
      </trkpt>
      <trkpt lat="42.36" lon="1.68305">
        <ele>978.12</ele>
        <time>2024-09-27T07:48:40.999Z</time>
      </trkpt>
      <trkpt lat="42.36028" lon="1.68278">
        <ele>977.71</ele>
        <time>2024-09-27T07:48:45.999Z</time>
      </trkpt>
      <trkpt lat="42.36061" lon="1.68255">
        <ele>977.26</ele>
        <time>2024-09-27T07:48:50.999Z</time>
      </trkpt>
      <trkpt lat="42.36095" lon="1.68235">
        <ele>976.88</ele>
        <time>2024-09-27T07:48:55.999Z</time>
      </trkpt>
      <trkpt lat="42.36129" lon="1.68217">
        <ele>976.5</ele>
        <time>2024-09-27T07:49:00.999Z</time>
      </trkpt>
      <trkpt lat="42.36162" lon="1.68203">
        <ele>975.98</ele>
        <time>2024-09-27T07:49:05.999Z</time>
      </trkpt>
      <trkpt lat="42.36193" lon="1.68192">
        <ele>974.99</ele>
        <time>2024-09-27T07:49:10.999Z</time>
      </trkpt>
      <trkpt lat="42.36225" lon="1.68182">
        <ele>974.07</ele>
        <time>2024-09-27T07:49:15.999Z</time>
      </trkpt>
      <trkpt lat="42.36256" lon="1.68175">
        <ele>973.16</ele>
        <time>2024-09-27T07:49:20.999Z</time>
      </trkpt>
      <trkpt lat="42.36287" lon="1.68168">
        <ele>972.17</ele>
        <time>2024-09-27T07:49:25.999Z</time>
      </trkpt>
      <trkpt lat="42.3632" lon="1.68164">
        <ele>971.44</ele>
        <time>2024-09-27T07:49:30.999Z</time>
      </trkpt>
      <trkpt lat="42.36352" lon="1.6816">
        <ele>970.88</ele>
        <time>2024-09-27T07:49:35.999Z</time>
      </trkpt>
      <trkpt lat="42.36383" lon="1.68148">
        <ele>970.06</ele>
        <time>2024-09-27T07:49:40.999Z</time>
      </trkpt>
      <trkpt lat="42.36412" lon="1.68128">
        <ele>968.86</ele>
        <time>2024-09-27T07:49:45.999Z</time>
      </trkpt>
      <trkpt lat="42.3644" lon="1.68099">
        <ele>967.67</ele>
        <time>2024-09-27T07:49:50.999Z</time>
      </trkpt>
      <trkpt lat="42.36468" lon="1.68068">
        <ele>966.61</ele>
        <time>2024-09-27T07:49:55.999Z</time>
      </trkpt>
      <trkpt lat="42.36493" lon="1.68037">
        <ele>966.61</ele>
        <time>2024-09-27T07:50:00.999Z</time>
      </trkpt>
      <trkpt lat="42.36519" lon="1.68004">
        <ele>966.9</ele>
        <time>2024-09-27T07:50:05.999Z</time>
      </trkpt>
      <trkpt lat="42.36544" lon="1.67969">
        <ele>966.85</ele>
        <time>2024-09-27T07:50:10.999Z</time>
      </trkpt>
      <trkpt lat="42.36569" lon="1.67931">
        <ele>966.68</ele>
        <time>2024-09-27T07:50:15.999Z</time>
      </trkpt>
      <trkpt lat="42.36591" lon="1.67896">
        <ele>966.47</ele>
        <time>2024-09-27T07:50:20.999Z</time>
      </trkpt>
      <trkpt lat="42.3661" lon="1.67857">
        <ele>966.05</ele>
        <time>2024-09-27T07:50:25.999Z</time>
      </trkpt>
      <trkpt lat="42.36624" lon="1.67815">
        <ele>965.65</ele>
        <time>2024-09-27T07:50:30.999Z</time>
      </trkpt>
      <trkpt lat="42.36632" lon="1.6777">
        <ele>965.14</ele>
        <time>2024-09-27T07:50:35.999Z</time>
      </trkpt>
      <trkpt lat="42.36633" lon="1.67724">
        <ele>964.56</ele>
        <time>2024-09-27T07:50:40.999Z</time>
      </trkpt>
      <trkpt lat="42.3663" lon="1.67678">
        <ele>963.89</ele>
        <time>2024-09-27T07:50:45.999Z</time>
      </trkpt>
      <trkpt lat="42.36622" lon="1.67632">
        <ele>963.2</ele>
        <time>2024-09-27T07:50:50.999Z</time>
      </trkpt>
      <trkpt lat="42.36609" lon="1.67588">
        <ele>962.58</ele>
        <time>2024-09-27T07:50:55.999Z</time>
      </trkpt>
      <trkpt lat="42.36593" lon="1.67546">
        <ele>961.97</ele>
        <time>2024-09-27T07:51:00.999Z</time>
      </trkpt>
      <trkpt lat="42.36572" lon="1.67505">
        <ele>961.42</ele>
        <time>2024-09-27T07:51:05.999Z</time>
      </trkpt>
      <trkpt lat="42.36549" lon="1.67466">
        <ele>960.87</ele>
        <time>2024-09-27T07:51:10.999Z</time>
      </trkpt>
      <trkpt lat="42.36526" lon="1.67427">
        <ele>960.32</ele>
        <time>2024-09-27T07:51:15.999Z</time>
      </trkpt>
      <trkpt lat="42.36503" lon="1.67389">
        <ele>959.98</ele>
        <time>2024-09-27T07:51:20.999Z</time>
      </trkpt>
      <trkpt lat="42.3648" lon="1.6735">
        <ele>959.89</ele>
        <time>2024-09-27T07:51:25.999Z</time>
      </trkpt>
      <trkpt lat="42.3646" lon="1.67312">
        <ele>959.68</ele>
        <time>2024-09-27T07:51:30.999Z</time>
      </trkpt>
      <trkpt lat="42.36442" lon="1.67275">
        <ele>959.67</ele>
        <time>2024-09-27T07:51:35.999Z</time>
      </trkpt>
      <trkpt lat="42.36424" lon="1.6724">
        <ele>959.57</ele>
        <time>2024-09-27T07:51:40.999Z</time>
      </trkpt>
      <trkpt lat="42.36407" lon="1.67207">
        <ele>959.48</ele>
        <time>2024-09-27T07:51:45.999Z</time>
      </trkpt>
      <trkpt lat="42.36391" lon="1.67173">
        <ele>959.34</ele>
        <time>2024-09-27T07:51:50.999Z</time>
      </trkpt>
      <trkpt lat="42.36375" lon="1.6714">
        <ele>959.35</ele>
        <time>2024-09-27T07:51:55.999Z</time>
      </trkpt>
      <trkpt lat="42.36359" lon="1.67109">
        <ele>959.32</ele>
        <time>2024-09-27T07:52:00.999Z</time>
      </trkpt>
      <trkpt lat="42.36339" lon="1.67071">
        <ele>959.19</ele>
        <time>2024-09-27T07:52:05.999Z</time>
      </trkpt>
      <trkpt lat="42.36318" lon="1.67033">
        <ele>959.07</ele>
        <time>2024-09-27T07:52:10.999Z</time>
      </trkpt>
      <trkpt lat="42.3623" lon="1.66706">
        <ele>958.73</ele>
        <time>2024-09-27T07:52:43.999Z</time>
      </trkpt>
      <trkpt lat="42.36246" lon="1.66653">
        <ele>954.56</ele>
        <time>2024-09-27T07:52:48.999Z</time>
      </trkpt>
      <trkpt lat="42.36265" lon="1.66608">
        <ele>950.61</ele>
        <time>2024-09-27T07:52:53.999Z</time>
      </trkpt>
      <trkpt lat="42.36288" lon="1.66573">
        <ele>948.6</ele>
        <time>2024-09-27T07:52:58.999Z</time>
      </trkpt>
      <trkpt lat="42.36311" lon="1.66545">
        <ele>947.38</ele>
        <time>2024-09-27T07:53:03.999Z</time>
      </trkpt>
      <trkpt lat="42.36334" lon="1.66517">
        <ele>946.77</ele>
        <time>2024-09-27T07:53:08.999Z</time>
      </trkpt>
      <trkpt lat="42.36356" lon="1.66491">
        <ele>946.41</ele>
        <time>2024-09-27T07:53:13.999Z</time>
      </trkpt>
      <trkpt lat="42.36377" lon="1.66466">
        <ele>946.49</ele>
        <time>2024-09-27T07:53:18.999Z</time>
      </trkpt>
      <trkpt lat="42.36395" lon="1.66441">
        <ele>946.56</ele>
        <time>2024-09-27T07:53:23.999Z</time>
      </trkpt>
      <trkpt lat="42.3641" lon="1.66416">
        <ele>946.78</ele>
        <time>2024-09-27T07:53:28.999Z</time>
      </trkpt>
      <trkpt lat="42.36421" lon="1.66387">
        <ele>946.94</ele>
        <time>2024-09-27T07:53:33.999Z</time>
      </trkpt>
      <trkpt lat="42.36431" lon="1.66357">
        <ele>947.03</ele>
        <time>2024-09-27T07:53:38.999Z</time>
      </trkpt>
      <trkpt lat="42.36436" lon="1.66323">
        <ele>947.03</ele>
        <time>2024-09-27T07:53:43.999Z</time>
      </trkpt>
      <trkpt lat="42.3644" lon="1.66288">
        <ele>946.77</ele>
        <time>2024-09-27T07:53:48.999Z</time>
      </trkpt>
      <trkpt lat="42.36443" lon="1.66252">
        <ele>946.52</ele>
        <time>2024-09-27T07:53:53.999Z</time>
      </trkpt>
      <trkpt lat="42.3648" lon="1.661">
        <ele>946.14</ele>
        <time>2024-09-27T07:54:13.999Z</time>
      </trkpt>
      <trkpt lat="42.36499" lon="1.66046">
        <ele>945.21</ele>
        <time>2024-09-27T07:54:18.999Z</time>
      </trkpt>
      <trkpt lat="42.36524" lon="1.66008">
        <ele>944.06</ele>
        <time>2024-09-27T07:54:23.999Z</time>
      </trkpt>
      <trkpt lat="42.36554" lon="1.6598">
        <ele>942.97</ele>
        <time>2024-09-27T07:54:28.999Z</time>
      </trkpt>
      <trkpt lat="42.36585" lon="1.65954">
        <ele>942.19</ele>
        <time>2024-09-27T07:54:33.999Z</time>
      </trkpt>
      <trkpt lat="42.36615" lon="1.65926">
        <ele>941.31</ele>
        <time>2024-09-27T07:54:38.999Z</time>
      </trkpt>
      <trkpt lat="42.36643" lon="1.65892">
        <ele>940.71</ele>
        <time>2024-09-27T07:54:43.999Z</time>
      </trkpt>
      <trkpt lat="42.36666" lon="1.6585">
        <ele>939.72</ele>
        <time>2024-09-27T07:54:48.999Z</time>
      </trkpt>
      <trkpt lat="42.36684" lon="1.65802">
        <ele>938.68</ele>
        <time>2024-09-27T07:54:53.999Z</time>
      </trkpt>
      <trkpt lat="42.36695" lon="1.65752">
        <ele>938.1</ele>
        <time>2024-09-27T07:54:58.999Z</time>
      </trkpt>
      <trkpt lat="42.36697" lon="1.65703">
        <ele>937.82</ele>
        <time>2024-09-27T07:55:03.999Z</time>
      </trkpt>
      <trkpt lat="42.36695" lon="1.65656">
        <ele>937.68</ele>
        <time>2024-09-27T07:55:08.999Z</time>
      </trkpt>
      <trkpt lat="42.36687" lon="1.65613">
        <ele>937.98</ele>
        <time>2024-09-27T07:55:13.999Z</time>
      </trkpt>
      <trkpt lat="42.36673" lon="1.65574">
        <ele>938.43</ele>
        <time>2024-09-27T07:55:18.999Z</time>
      </trkpt>
      <trkpt lat="42.36655" lon="1.65541">
        <ele>938.91</ele>
        <time>2024-09-27T07:55:23.999Z</time>
      </trkpt>
      <trkpt lat="42.36634" lon="1.6551">
        <ele>939.24</ele>
        <time>2024-09-27T07:55:28.999Z</time>
      </trkpt>
      <trkpt lat="42.36611" lon="1.65481">
        <ele>939.44</ele>
        <time>2024-09-27T07:55:33.999Z</time>
      </trkpt>
      <trkpt lat="42.36585" lon="1.65457">
        <ele>939.3</ele>
        <time>2024-09-27T07:55:38.999Z</time>
      </trkpt>
      <trkpt lat="42.36556" lon="1.6544">
        <ele>938.16</ele>
        <time>2024-09-27T07:55:43.999Z</time>
      </trkpt>
      <trkpt lat="42.36525" lon="1.65436">
        <ele>937.29</ele>
        <time>2024-09-27T07:55:48.999Z</time>
      </trkpt>
      <trkpt lat="42.36494" lon="1.65433">
        <ele>936.54</ele>
        <time>2024-09-27T07:55:53.999Z</time>
      </trkpt>
      <trkpt lat="42.36465" lon="1.65432">
        <ele>935.71</ele>
        <time>2024-09-27T07:55:58.999Z</time>
      </trkpt>
      <trkpt lat="42.36439" lon="1.65425">
        <ele>935.2</ele>
        <time>2024-09-27T07:56:03.999Z</time>
      </trkpt>
      <trkpt lat="42.36418" lon="1.65405">
        <ele>934.91</ele>
        <time>2024-09-27T07:56:08.999Z</time>
      </trkpt>
      <trkpt lat="42.36413" lon="1.65371">
        <ele>934.77</ele>
        <time>2024-09-27T07:56:13.999Z</time>
      </trkpt>
      <trkpt lat="42.36418" lon="1.65338">
        <ele>934.67</ele>
        <time>2024-09-27T07:56:18.999Z</time>
      </trkpt>
      <trkpt lat="42.36421" lon="1.65305">
        <ele>934.32</ele>
        <time>2024-09-27T07:56:23.999Z</time>
      </trkpt>
      <trkpt lat="42.36423" lon="1.6527">
        <ele>934.03</ele>
        <time>2024-09-27T07:56:28.999Z</time>
      </trkpt>
      <trkpt lat="42.36423" lon="1.65236">
        <ele>933.64</ele>
        <time>2024-09-27T07:56:33.999Z</time>
      </trkpt>
      <trkpt lat="42.36424" lon="1.65201">
        <ele>933.15</ele>
        <time>2024-09-27T07:56:38.999Z</time>
      </trkpt>
      <trkpt lat="42.36425" lon="1.65165">
        <ele>932.75</ele>
        <time>2024-09-27T07:56:43.999Z</time>
      </trkpt>
      <trkpt lat="42.36427" lon="1.65128">
        <ele>932.42</ele>
        <time>2024-09-27T07:56:48.999Z</time>
      </trkpt>
      <trkpt lat="42.36433" lon="1.65092">
        <ele>932.1</ele>
        <time>2024-09-27T07:56:53.999Z</time>
      </trkpt>
      <trkpt lat="42.36443" lon="1.65058">
        <ele>931.93</ele>
        <time>2024-09-27T07:56:58.999Z</time>
      </trkpt>
      <trkpt lat="42.36455" lon="1.65028">
        <ele>931.85</ele>
        <time>2024-09-27T07:57:03.999Z</time>
      </trkpt>
      <trkpt lat="42.36468" lon="1.65001">
        <ele>931.91</ele>
        <time>2024-09-27T07:57:08.999Z</time>
      </trkpt>
      <trkpt lat="42.36481" lon="1.6498">
        <ele>932.1</ele>
        <time>2024-09-27T07:57:13.999Z</time>
      </trkpt>
      <trkpt lat="42.36493" lon="1.64963">
        <ele>932.31</ele>
        <time>2024-09-27T07:57:18.999Z</time>
      </trkpt>
      <trkpt lat="42.36505" lon="1.64947">
        <ele>932.4</ele>
        <time>2024-09-27T07:57:23.999Z</time>
      </trkpt>
      <trkpt lat="42.36517" lon="1.64931">
        <ele>932.5</ele>
        <time>2024-09-27T07:57:28.999Z</time>
      </trkpt>
      <trkpt lat="42.3653" lon="1.64914">
        <ele>932.85</ele>
        <time>2024-09-27T07:57:33.999Z</time>
      </trkpt>
      <trkpt lat="42.36545" lon="1.64896">
        <ele>933.02</ele>
        <time>2024-09-27T07:57:38.999Z</time>
      </trkpt>
      <trkpt lat="42.36562" lon="1.64877">
        <ele>932.91</ele>
        <time>2024-09-27T07:57:43.999Z</time>
      </trkpt>
      <trkpt lat="42.36578" lon="1.64856">
        <ele>932.71</ele>
        <time>2024-09-27T07:57:48.999Z</time>
      </trkpt>
      <trkpt lat="42.36595" lon="1.64835">
        <ele>932.53</ele>
        <time>2024-09-27T07:57:53.999Z</time>
      </trkpt>
      <trkpt lat="42.36613" lon="1.64813">
        <ele>932.4</ele>
        <time>2024-09-27T07:57:58.999Z</time>
      </trkpt>
      <trkpt lat="42.36631" lon="1.6479">
        <ele>932.42</ele>
        <time>2024-09-27T07:58:03.999Z</time>
      </trkpt>
      <trkpt lat="42.36649" lon="1.64768">
        <ele>932.36</ele>
        <time>2024-09-27T07:58:08.999Z</time>
      </trkpt>
      <trkpt lat="42.36667" lon="1.64749">
        <ele>932.32</ele>
        <time>2024-09-27T07:58:13.999Z</time>
      </trkpt>
      <trkpt lat="42.36687" lon="1.64733">
        <ele>932.29</ele>
        <time>2024-09-27T07:58:18.999Z</time>
      </trkpt>
      <trkpt lat="42.3671" lon="1.64721">
        <ele>932.14</ele>
        <time>2024-09-27T07:58:23.999Z</time>
      </trkpt>
      <trkpt lat="42.36735" lon="1.64713">
        <ele>932.04</ele>
        <time>2024-09-27T07:58:28.999Z</time>
      </trkpt>
      <trkpt lat="42.36761" lon="1.64708">
        <ele>931.99</ele>
        <time>2024-09-27T07:58:33.999Z</time>
      </trkpt>
      <trkpt lat="42.36787" lon="1.64705">
        <ele>931.92</ele>
        <time>2024-09-27T07:58:38.999Z</time>
      </trkpt>
      <trkpt lat="42.36814" lon="1.64701">
        <ele>931.79</ele>
        <time>2024-09-27T07:58:43.999Z</time>
      </trkpt>
      <trkpt lat="42.36841" lon="1.64696">
        <ele>931.67</ele>
        <time>2024-09-27T07:58:48.999Z</time>
      </trkpt>
      <trkpt lat="42.3687" lon="1.64691">
        <ele>931.5</ele>
        <time>2024-09-27T07:58:53.999Z</time>
      </trkpt>
      <trkpt lat="42.36901" lon="1.64686">
        <ele>931.36</ele>
        <time>2024-09-27T07:58:58.999Z</time>
      </trkpt>
      <trkpt lat="42.3693" lon="1.6468">
        <ele>931.32</ele>
        <time>2024-09-27T07:59:03.999Z</time>
      </trkpt>
      <trkpt lat="42.36959" lon="1.64669">
        <ele>931.19</ele>
        <time>2024-09-27T07:59:08.999Z</time>
      </trkpt>
      <trkpt lat="42.36988" lon="1.64656">
        <ele>931</ele>
        <time>2024-09-27T07:59:13.999Z</time>
      </trkpt>
      <trkpt lat="42.37017" lon="1.6464">
        <ele>930.77</ele>
        <time>2024-09-27T07:59:18.999Z</time>
      </trkpt>
      <trkpt lat="42.37046" lon="1.64622">
        <ele>930.36</ele>
        <time>2024-09-27T07:59:23.999Z</time>
      </trkpt>
      <trkpt lat="42.37075" lon="1.64603">
        <ele>929.9</ele>
        <time>2024-09-27T07:59:28.999Z</time>
      </trkpt>
      <trkpt lat="42.37103" lon="1.64582">
        <ele>929.64</ele>
        <time>2024-09-27T07:59:33.999Z</time>
      </trkpt>
      <trkpt lat="42.37129" lon="1.6456">
        <ele>929.26</ele>
        <time>2024-09-27T07:59:39.000Z</time>
      </trkpt>
      <trkpt lat="42.37155" lon="1.64536">
        <ele>928.84</ele>
        <time>2024-09-27T07:59:44.000Z</time>
      </trkpt>
      <trkpt lat="42.37178" lon="1.6451">
        <ele>928.43</ele>
        <time>2024-09-27T07:59:49.000Z</time>
      </trkpt>
      <trkpt lat="42.372" lon="1.64482">
        <ele>927.67</ele>
        <time>2024-09-27T07:59:54.000Z</time>
      </trkpt>
      <trkpt lat="42.37222" lon="1.64451">
        <ele>926.96</ele>
        <time>2024-09-27T07:59:59.000Z</time>
      </trkpt>
      <trkpt lat="42.37243" lon="1.6442">
        <ele>926.25</ele>
        <time>2024-09-27T08:00:04.000Z</time>
      </trkpt>
      <trkpt lat="42.37262" lon="1.64386">
        <ele>925.72</ele>
        <time>2024-09-27T08:00:09.000Z</time>
      </trkpt>
      <trkpt lat="42.37274" lon="1.64344">
        <ele>925.55</ele>
        <time>2024-09-27T08:00:14.000Z</time>
      </trkpt>
      <trkpt lat="42.37284" lon="1.64302">
        <ele>924.98</ele>
        <time>2024-09-27T08:00:19.000Z</time>
      </trkpt>
      <trkpt lat="42.37295" lon="1.64257">
        <ele>924.47</ele>
        <time>2024-09-27T08:00:24.000Z</time>
      </trkpt>
      <trkpt lat="42.37305" lon="1.6421">
        <ele>924.01</ele>
        <time>2024-09-27T08:00:29.000Z</time>
      </trkpt>
      <trkpt lat="42.37315" lon="1.64163">
        <ele>923.4</ele>
        <time>2024-09-27T08:00:34.000Z</time>
      </trkpt>
      <trkpt lat="42.37325" lon="1.64115">
        <ele>922.77</ele>
        <time>2024-09-27T08:00:39.000Z</time>
      </trkpt>
      <trkpt lat="42.37335" lon="1.64069">
        <ele>922.02</ele>
        <time>2024-09-27T08:00:44.000Z</time>
      </trkpt>
      <trkpt lat="42.37347" lon="1.64026">
        <ele>921.29</ele>
        <time>2024-09-27T08:00:49.000Z</time>
      </trkpt>
      <trkpt lat="42.3736" lon="1.63981">
        <ele>920.65</ele>
        <time>2024-09-27T08:00:54.000Z</time>
      </trkpt>
      <trkpt lat="42.37378" lon="1.63936">
        <ele>920.13</ele>
        <time>2024-09-27T08:00:59.000Z</time>
      </trkpt>
      <trkpt lat="42.37396" lon="1.63891">
        <ele>919.46</ele>
        <time>2024-09-27T08:01:04.000Z</time>
      </trkpt>
      <trkpt lat="42.37413" lon="1.63845">
        <ele>918.84</ele>
        <time>2024-09-27T08:01:09.000Z</time>
      </trkpt>
      <trkpt lat="42.3743" lon="1.63799">
        <ele>918.05</ele>
        <time>2024-09-27T08:01:14.000Z</time>
      </trkpt>
      <trkpt lat="42.37443" lon="1.63748">
        <ele>917.24</ele>
        <time>2024-09-27T08:01:19.000Z</time>
      </trkpt>
      <trkpt lat="42.37452" lon="1.63695">
        <ele>916.54</ele>
        <time>2024-09-27T08:01:24.000Z</time>
      </trkpt>
      <trkpt lat="42.37456" lon="1.6364">
        <ele>915.61</ele>
        <time>2024-09-27T08:01:29.000Z</time>
      </trkpt>
      <trkpt lat="42.37453" lon="1.63586">
        <ele>914.55</ele>
        <time>2024-09-27T08:01:34.000Z</time>
      </trkpt>
      <trkpt lat="42.37442" lon="1.63538">
        <ele>914.07</ele>
        <time>2024-09-27T08:01:39.000Z</time>
      </trkpt>
      <trkpt lat="42.37429" lon="1.63493">
        <ele>913.64</ele>
        <time>2024-09-27T08:01:44.000Z</time>
      </trkpt>
      <trkpt lat="42.37425" lon="1.63449">
        <ele>913.13</ele>
        <time>2024-09-27T08:01:49.000Z</time>
      </trkpt>
      <trkpt lat="42.3743" lon="1.63413">
        <ele>912.91</ele>
        <time>2024-09-27T08:01:54.000Z</time>
      </trkpt>
      <trkpt lat="42.37436" lon="1.63388">
        <ele>912.72</ele>
        <time>2024-09-27T08:01:59.000Z</time>
      </trkpt>
      <trkpt lat="42.37439" lon="1.63368">
        <ele>912.68</ele>
        <time>2024-09-27T08:02:04.000Z</time>
      </trkpt>
      <trkpt lat="42.37443" lon="1.6335">
        <ele>912.61</ele>
        <time>2024-09-27T08:02:09.000Z</time>
      </trkpt>
      <trkpt lat="42.37447" lon="1.63331">
        <ele>912.49</ele>
        <time>2024-09-27T08:02:14.000Z</time>
      </trkpt>
      <trkpt lat="42.37451" lon="1.63313">
        <ele>912.36</ele>
        <time>2024-09-27T08:02:19.000Z</time>
      </trkpt>
      <trkpt lat="42.37452" lon="1.63294">
        <ele>912.23</ele>
        <time>2024-09-27T08:02:24.000Z</time>
      </trkpt>
      <trkpt lat="42.3745" lon="1.63274">
        <ele>912.12</ele>
        <time>2024-09-27T08:02:29.000Z</time>
      </trkpt>
      <trkpt lat="42.37447" lon="1.63255">
        <ele>912.03</ele>
        <time>2024-09-27T08:02:34.000Z</time>
      </trkpt>
      <trkpt lat="42.37443" lon="1.63239">
        <ele>911.95</ele>
        <time>2024-09-27T08:02:39.000Z</time>
      </trkpt>
      <trkpt lat="42.37438" lon="1.63223">
        <ele>911.9</ele>
        <time>2024-09-27T08:02:44.000Z</time>
      </trkpt>
      <trkpt lat="42.37432" lon="1.63208">
        <ele>911.88</ele>
        <time>2024-09-27T08:02:49.000Z</time>
      </trkpt>
      <trkpt lat="42.37424" lon="1.63194">
        <ele>911.89</ele>
        <time>2024-09-27T08:02:54.000Z</time>
      </trkpt>
      <trkpt lat="42.37414" lon="1.63179">
        <ele>911.92</ele>
        <time>2024-09-27T08:02:59.000Z</time>
      </trkpt>
      <trkpt lat="42.37403" lon="1.63164">
        <ele>911.97</ele>
        <time>2024-09-27T08:03:04.000Z</time>
      </trkpt>
      <trkpt lat="42.3739" lon="1.63147">
        <ele>912.03</ele>
        <time>2024-09-27T08:03:09.000Z</time>
      </trkpt>
      <trkpt lat="42.37376" lon="1.6313">
        <ele>912.09</ele>
        <time>2024-09-27T08:03:14.000Z</time>
      </trkpt>
      <trkpt lat="42.37363" lon="1.63114">
        <ele>912.18</ele>
        <time>2024-09-27T08:03:19.000Z</time>
      </trkpt>
      <trkpt lat="42.37349" lon="1.63096">
        <ele>912.42</ele>
        <time>2024-09-27T08:03:24.000Z</time>
      </trkpt>
      <trkpt lat="42.37336" lon="1.63078">
        <ele>912.95</ele>
        <time>2024-09-27T08:03:29.000Z</time>
      </trkpt>
      <trkpt lat="42.37323" lon="1.63058">
        <ele>913.3</ele>
        <time>2024-09-27T08:03:34.000Z</time>
      </trkpt>
      <trkpt lat="42.37309" lon="1.63036">
        <ele>913.49</ele>
        <time>2024-09-27T08:03:39.000Z</time>
      </trkpt>
      <trkpt lat="42.37297" lon="1.63012">
        <ele>913.62</ele>
        <time>2024-09-27T08:03:44.000Z</time>
      </trkpt>
      <trkpt lat="42.37288" lon="1.62985">
        <ele>913.72</ele>
        <time>2024-09-27T08:03:49.000Z</time>
      </trkpt>
      <trkpt lat="42.37281" lon="1.62955">
        <ele>913.83</ele>
        <time>2024-09-27T08:03:54.000Z</time>
      </trkpt>
      <trkpt lat="42.37277" lon="1.62925">
        <ele>913.91</ele>
        <time>2024-09-27T08:03:59.000Z</time>
      </trkpt>
      <trkpt lat="42.37275" lon="1.62896">
        <ele>914.05</ele>
        <time>2024-09-27T08:04:04.000Z</time>
      </trkpt>
      <trkpt lat="42.37273" lon="1.62867">
        <ele>914.19</ele>
        <time>2024-09-27T08:04:09.000Z</time>
      </trkpt>
      <trkpt lat="42.37272" lon="1.62836">
        <ele>914.3</ele>
        <time>2024-09-27T08:04:14.000Z</time>
      </trkpt>
      <trkpt lat="42.3727" lon="1.62803">
        <ele>914.4</ele>
        <time>2024-09-27T08:04:19.000Z</time>
      </trkpt>
      <trkpt lat="42.37269" lon="1.62766">
        <ele>914.46</ele>
        <time>2024-09-27T08:04:24.000Z</time>
      </trkpt>
      <trkpt lat="42.37269" lon="1.62727">
        <ele>914.49</ele>
        <time>2024-09-27T08:04:29.000Z</time>
      </trkpt>
      <trkpt lat="42.37269" lon="1.62683">
        <ele>914.48</ele>
        <time>2024-09-27T08:04:34.000Z</time>
      </trkpt>
      <trkpt lat="42.37268" lon="1.62634">
        <ele>914.17</ele>
        <time>2024-09-27T08:04:39.000Z</time>
      </trkpt>
      <trkpt lat="42.3727" lon="1.62579">
        <ele>913.75</ele>
        <time>2024-09-27T08:04:44.000Z</time>
      </trkpt>
      <trkpt lat="42.3727" lon="1.62516">
        <ele>913.16</ele>
        <time>2024-09-27T08:04:49.000Z</time>
      </trkpt>
      <trkpt lat="42.3727" lon="1.62448">
        <ele>912.56</ele>
        <time>2024-09-27T08:04:54.000Z</time>
      </trkpt>
      <trkpt lat="42.3727" lon="1.62376">
        <ele>911.76</ele>
        <time>2024-09-27T08:04:59.000Z</time>
      </trkpt>
      <trkpt lat="42.3727" lon="1.62301">
        <ele>910.56</ele>
        <time>2024-09-27T08:05:04.000Z</time>
      </trkpt>
      <trkpt lat="42.37266" lon="1.62224">
        <ele>909.27</ele>
        <time>2024-09-27T08:05:09.000Z</time>
      </trkpt>
      <trkpt lat="42.37249" lon="1.62151">
        <ele>907.74</ele>
        <time>2024-09-27T08:05:14.000Z</time>
      </trkpt>
      <trkpt lat="42.37218" lon="1.6209">
        <ele>906.41</ele>
        <time>2024-09-27T08:05:19.000Z</time>
      </trkpt>
      <trkpt lat="42.3718" lon="1.62044">
        <ele>905.4</ele>
        <time>2024-09-27T08:05:24.000Z</time>
      </trkpt>
      <trkpt lat="42.37143" lon="1.62005">
        <ele>904.13</ele>
        <time>2024-09-27T08:05:29.000Z</time>
      </trkpt>
      <trkpt lat="42.37112" lon="1.61962">
        <ele>902.81</ele>
        <time>2024-09-27T08:05:34.000Z</time>
      </trkpt>
      <trkpt lat="42.37093" lon="1.61914">
        <ele>901.53</ele>
        <time>2024-09-27T08:05:39.000Z</time>
      </trkpt>
      <trkpt lat="42.37075" lon="1.61866">
        <ele>900.33</ele>
        <time>2024-09-27T08:05:44.000Z</time>
      </trkpt>
      <trkpt lat="42.37059" lon="1.61819">
        <ele>899.11</ele>
        <time>2024-09-27T08:05:49.000Z</time>
      </trkpt>
      <trkpt lat="42.37043" lon="1.61774">
        <ele>897.78</ele>
        <time>2024-09-27T08:05:54.000Z</time>
      </trkpt>
      <trkpt lat="42.37028" lon="1.61728">
        <ele>896.52</ele>
        <time>2024-09-27T08:05:59.000Z</time>
      </trkpt>
      <trkpt lat="42.37012" lon="1.6168">
        <ele>895.12</ele>
        <time>2024-09-27T08:06:04.000Z</time>
      </trkpt>
      <trkpt lat="42.36995" lon="1.61631">
        <ele>893.56</ele>
        <time>2024-09-27T08:06:09.000Z</time>
      </trkpt>
      <trkpt lat="42.36981" lon="1.6158">
        <ele>891.8</ele>
        <time>2024-09-27T08:06:14.000Z</time>
      </trkpt>
      <trkpt lat="42.36968" lon="1.61529">
        <ele>890.21</ele>
        <time>2024-09-27T08:06:19.000Z</time>
      </trkpt>
      <trkpt lat="42.36956" lon="1.61479">
        <ele>888.91</ele>
        <time>2024-09-27T08:06:24.000Z</time>
      </trkpt>
      <trkpt lat="42.36944" lon="1.61428">
        <ele>887.64</ele>
        <time>2024-09-27T08:06:29.000Z</time>
      </trkpt>
      <trkpt lat="42.36933" lon="1.61378">
        <ele>886.28</ele>
        <time>2024-09-27T08:06:34.000Z</time>
      </trkpt>
      <trkpt lat="42.36924" lon="1.61329">
        <ele>884.82</ele>
        <time>2024-09-27T08:06:39.000Z</time>
      </trkpt>
      <trkpt lat="42.36916" lon="1.6128">
        <ele>883.57</ele>
        <time>2024-09-27T08:06:44.000Z</time>
      </trkpt>
      <trkpt lat="42.3691" lon="1.61233">
        <ele>882.28</ele>
        <time>2024-09-27T08:06:49.000Z</time>
      </trkpt>
      <trkpt lat="42.36906" lon="1.61184">
        <ele>881.19</ele>
        <time>2024-09-27T08:06:54.000Z</time>
      </trkpt>
      <trkpt lat="42.36908" lon="1.61136">
        <ele>880.1</ele>
        <time>2024-09-27T08:06:59.000Z</time>
      </trkpt>
      <trkpt lat="42.36919" lon="1.61089">
        <ele>878.77</ele>
        <time>2024-09-27T08:07:04.000Z</time>
      </trkpt>
      <trkpt lat="42.36938" lon="1.61045">
        <ele>877.64</ele>
        <time>2024-09-27T08:07:09.000Z</time>
      </trkpt>
      <trkpt lat="42.36966" lon="1.61007">
        <ele>876.57</ele>
        <time>2024-09-27T08:07:14.000Z</time>
      </trkpt>
      <trkpt lat="42.36995" lon="1.60973">
        <ele>875.24</ele>
        <time>2024-09-27T08:07:19.000Z</time>
      </trkpt>
      <trkpt lat="42.37023" lon="1.60938">
        <ele>873.84</ele>
        <time>2024-09-27T08:07:24.000Z</time>
      </trkpt>
      <trkpt lat="42.37046" lon="1.60901">
        <ele>872.21</ele>
        <time>2024-09-27T08:07:29.000Z</time>
      </trkpt>
      <trkpt lat="42.37066" lon="1.60856">
        <ele>870.44</ele>
        <time>2024-09-27T08:07:34.000Z</time>
      </trkpt>
      <trkpt lat="42.37082" lon="1.60805">
        <ele>869.24</ele>
        <time>2024-09-27T08:07:39.000Z</time>
      </trkpt>
      <trkpt lat="42.37093" lon="1.60746">
        <ele>868.28</ele>
        <time>2024-09-27T08:07:44.000Z</time>
      </trkpt>
      <trkpt lat="42.37099" lon="1.6068">
        <ele>866.94</ele>
        <time>2024-09-27T08:07:49.000Z</time>
      </trkpt>
      <trkpt lat="42.37105" lon="1.60613">
        <ele>865.39</ele>
        <time>2024-09-27T08:07:54.000Z</time>
      </trkpt>
      <trkpt lat="42.37109" lon="1.60548">
        <ele>863.69</ele>
        <time>2024-09-27T08:07:59.000Z</time>
      </trkpt>
      <trkpt lat="42.37113" lon="1.60489">
        <ele>862.03</ele>
        <time>2024-09-27T08:08:04.000Z</time>
      </trkpt>
      <trkpt lat="42.37117" lon="1.60436">
        <ele>860.43</ele>
        <time>2024-09-27T08:08:09.000Z</time>
      </trkpt>
      <trkpt lat="42.37121" lon="1.60389">
        <ele>859.08</ele>
        <time>2024-09-27T08:08:14.000Z</time>
      </trkpt>
      <trkpt lat="42.37124" lon="1.6035">
        <ele>858.1</ele>
        <time>2024-09-27T08:08:19.000Z</time>
      </trkpt>
      <trkpt lat="42.37128" lon="1.60318">
        <ele>857.33</ele>
        <time>2024-09-27T08:08:24.000Z</time>
      </trkpt>
      <trkpt lat="42.37132" lon="1.60289">
        <ele>856.66</ele>
        <time>2024-09-27T08:08:29.000Z</time>
      </trkpt>
      <trkpt lat="42.37135" lon="1.60262">
        <ele>856.19</ele>
        <time>2024-09-27T08:08:34.000Z</time>
      </trkpt>
      <trkpt lat="42.37137" lon="1.60233">
        <ele>855.68</ele>
        <time>2024-09-27T08:08:39.000Z</time>
      </trkpt>
      <trkpt lat="42.37138" lon="1.60204">
        <ele>854.97</ele>
        <time>2024-09-27T08:08:44.000Z</time>
      </trkpt>
      <trkpt lat="42.37141" lon="1.60178">
        <ele>854.68</ele>
        <time>2024-09-27T08:08:49.000Z</time>
      </trkpt>
      <trkpt lat="42.37142" lon="1.60156">
        <ele>854.6</ele>
        <time>2024-09-27T08:08:54.000Z</time>
      </trkpt>
      <trkpt lat="42.3714" lon="1.60135">
        <ele>854.51</ele>
        <time>2024-09-27T08:08:59.000Z</time>
      </trkpt>
      <trkpt lat="42.37137" lon="1.60114">
        <ele>854.42</ele>
        <time>2024-09-27T08:09:04.000Z</time>
      </trkpt>
      <trkpt lat="42.37134" lon="1.60093">
        <ele>854.34</ele>
        <time>2024-09-27T08:09:09.000Z</time>
      </trkpt>
      <trkpt lat="42.3713" lon="1.60072">
        <ele>854.24</ele>
        <time>2024-09-27T08:09:14.000Z</time>
      </trkpt>
      <trkpt lat="42.37126" lon="1.6005">
        <ele>854.16</ele>
        <time>2024-09-27T08:09:19.000Z</time>
      </trkpt>
      <trkpt lat="42.37121" lon="1.60029">
        <ele>854.11</ele>
        <time>2024-09-27T08:09:24.000Z</time>
      </trkpt>
      <trkpt lat="42.37115" lon="1.60006">
        <ele>854.02</ele>
        <time>2024-09-27T08:09:29.000Z</time>
      </trkpt>
      <trkpt lat="42.37109" lon="1.59982">
        <ele>854</ele>
        <time>2024-09-27T08:09:34.000Z</time>
      </trkpt>
      <trkpt lat="42.37101" lon="1.59959">
        <ele>854.1</ele>
        <time>2024-09-27T08:09:39.000Z</time>
      </trkpt>
      <trkpt lat="42.37094" lon="1.59935">
        <ele>854.58</ele>
        <time>2024-09-27T08:09:44.000Z</time>
      </trkpt>
      <trkpt lat="42.37087" lon="1.59912">
        <ele>854.91</ele>
        <time>2024-09-27T08:09:49.000Z</time>
      </trkpt>
      <trkpt lat="42.37079" lon="1.59889">
        <ele>855.41</ele>
        <time>2024-09-27T08:09:54.000Z</time>
      </trkpt>
      <trkpt lat="42.3707" lon="1.59865">
        <ele>856.02</ele>
        <time>2024-09-27T08:09:59.000Z</time>
      </trkpt>
      <trkpt lat="42.37057" lon="1.59842">
        <ele>856.5</ele>
        <time>2024-09-27T08:10:04.000Z</time>
      </trkpt>
      <trkpt lat="42.37039" lon="1.59824">
        <ele>856.79</ele>
        <time>2024-09-27T08:10:09.000Z</time>
      </trkpt>
      <trkpt lat="42.37018" lon="1.59811">
        <ele>857.22</ele>
        <time>2024-09-27T08:10:14.000Z</time>
      </trkpt>
      <trkpt lat="42.36998" lon="1.59797">
        <ele>857.41</ele>
        <time>2024-09-27T08:10:19.000Z</time>
      </trkpt>
      <trkpt lat="42.36977" lon="1.59782">
        <ele>857.33</ele>
        <time>2024-09-27T08:10:24.000Z</time>
      </trkpt>
      <trkpt lat="42.36958" lon="1.59764">
        <ele>857.16</ele>
        <time>2024-09-27T08:10:29.000Z</time>
      </trkpt>
      <trkpt lat="42.36936" lon="1.59741">
        <ele>856.86</ele>
        <time>2024-09-27T08:10:34.000Z</time>
      </trkpt>
      <trkpt lat="42.36916" lon="1.59709">
        <ele>856.05</ele>
        <time>2024-09-27T08:10:39.000Z</time>
      </trkpt>
      <trkpt lat="42.36897" lon="1.59669">
        <ele>854.89</ele>
        <time>2024-09-27T08:10:44.000Z</time>
      </trkpt>
      <trkpt lat="42.36879" lon="1.59625">
        <ele>853.94</ele>
        <time>2024-09-27T08:10:49.000Z</time>
      </trkpt>
      <trkpt lat="42.3687" lon="1.5957">
        <ele>853.11</ele>
        <time>2024-09-27T08:10:54.000Z</time>
      </trkpt>
      <trkpt lat="42.36869" lon="1.59508">
        <ele>852.26</ele>
        <time>2024-09-27T08:10:59.000Z</time>
      </trkpt>
      <trkpt lat="42.36868" lon="1.59445">
        <ele>851.23</ele>
        <time>2024-09-27T08:11:04.000Z</time>
      </trkpt>
      <trkpt lat="42.36862" lon="1.5938">
        <ele>850.17</ele>
        <time>2024-09-27T08:11:09.000Z</time>
      </trkpt>
      <trkpt lat="42.36856" lon="1.59316">
        <ele>849.25</ele>
        <time>2024-09-27T08:11:14.000Z</time>
      </trkpt>
      <trkpt lat="42.36847" lon="1.59257">
        <ele>848.44</ele>
        <time>2024-09-27T08:11:19.000Z</time>
      </trkpt>
      <trkpt lat="42.36832" lon="1.59201">
        <ele>847.36</ele>
        <time>2024-09-27T08:11:24.000Z</time>
      </trkpt>
      <trkpt lat="42.36813" lon="1.59149">
        <ele>846.08</ele>
        <time>2024-09-27T08:11:29.000Z</time>
      </trkpt>
      <trkpt lat="42.36792" lon="1.59101">
        <ele>844.58</ele>
        <time>2024-09-27T08:11:34.000Z</time>
      </trkpt>
      <trkpt lat="42.36771" lon="1.59053">
        <ele>843.08</ele>
        <time>2024-09-27T08:11:39.000Z</time>
      </trkpt>
      <trkpt lat="42.36751" lon="1.59007">
        <ele>841.59</ele>
        <time>2024-09-27T08:11:44.000Z</time>
      </trkpt>
      <trkpt lat="42.36731" lon="1.58961">
        <ele>840.23</ele>
        <time>2024-09-27T08:11:49.000Z</time>
      </trkpt>
      <trkpt lat="42.36712" lon="1.58916">
        <ele>839.29</ele>
        <time>2024-09-27T08:11:54.000Z</time>
      </trkpt>
      <trkpt lat="42.36692" lon="1.58872">
        <ele>838.08</ele>
        <time>2024-09-27T08:11:59.000Z</time>
      </trkpt>
      <trkpt lat="42.36668" lon="1.58837">
        <ele>836.83</ele>
        <time>2024-09-27T08:12:04.000Z</time>
      </trkpt>
      <trkpt lat="42.36633" lon="1.58806">
        <ele>835.47</ele>
        <time>2024-09-27T08:12:09.999Z</time>
      </trkpt>
      <trkpt lat="42.36601" lon="1.58791">
        <ele>834.3</ele>
        <time>2024-09-27T08:12:14.999Z</time>
      </trkpt>
      <trkpt lat="42.36566" lon="1.58788">
        <ele>833.19</ele>
        <time>2024-09-27T08:12:19.999Z</time>
      </trkpt>
      <trkpt lat="42.36533" lon="1.58793">
        <ele>832.09</ele>
        <time>2024-09-27T08:12:24.999Z</time>
      </trkpt>
      <trkpt lat="42.36501" lon="1.58799">
        <ele>831.02</ele>
        <time>2024-09-27T08:12:29.999Z</time>
      </trkpt>
      <trkpt lat="42.36473" lon="1.58805">
        <ele>830.05</ele>
        <time>2024-09-27T08:12:34.999Z</time>
      </trkpt>
      <trkpt lat="42.36445" lon="1.58811">
        <ele>829.26</ele>
        <time>2024-09-27T08:12:39.999Z</time>
      </trkpt>
      <trkpt lat="42.36416" lon="1.58816">
        <ele>828.63</ele>
        <time>2024-09-27T08:12:44.999Z</time>
      </trkpt>
      <trkpt lat="42.36387" lon="1.58818">
        <ele>828.37</ele>
        <time>2024-09-27T08:12:49.999Z</time>
      </trkpt>
      <trkpt lat="42.36359" lon="1.58814">
        <ele>827.97</ele>
        <time>2024-09-27T08:12:54.999Z</time>
      </trkpt>
      <trkpt lat="42.36332" lon="1.58807">
        <ele>827.42</ele>
        <time>2024-09-27T08:12:59.999Z</time>
      </trkpt>
      <trkpt lat="42.36305" lon="1.588">
        <ele>826.73</ele>
        <time>2024-09-27T08:13:04.999Z</time>
      </trkpt>
      <trkpt lat="42.36283" lon="1.58793">
        <ele>826.4</ele>
        <time>2024-09-27T08:13:09.999Z</time>
      </trkpt>
      <trkpt lat="42.36267" lon="1.58786">
        <ele>826.37</ele>
        <time>2024-09-27T08:13:14.999Z</time>
      </trkpt>
      <trkpt lat="42.36251" lon="1.58775">
        <ele>826.4</ele>
        <time>2024-09-27T08:13:19.999Z</time>
      </trkpt>
      <trkpt lat="42.36236" lon="1.5876">
        <ele>826.51</ele>
        <time>2024-09-27T08:13:24.999Z</time>
      </trkpt>
      <trkpt lat="42.36222" lon="1.58743">
        <ele>826.59</ele>
        <time>2024-09-27T08:13:29.999Z</time>
      </trkpt>
      <trkpt lat="42.36206" lon="1.58728">
        <ele>826.51</ele>
        <time>2024-09-27T08:13:34.999Z</time>
      </trkpt>
      <trkpt lat="42.36188" lon="1.58711">
        <ele>826.41</ele>
        <time>2024-09-27T08:13:39.999Z</time>
      </trkpt>
      <trkpt lat="42.36169" lon="1.58698">
        <ele>826.39</ele>
        <time>2024-09-27T08:13:44.999Z</time>
      </trkpt>
      <trkpt lat="42.3615" lon="1.58684">
        <ele>826.36</ele>
        <time>2024-09-27T08:13:49.999Z</time>
      </trkpt>
      <trkpt lat="42.36134" lon="1.58671">
        <ele>826.37</ele>
        <time>2024-09-27T08:13:54.999Z</time>
      </trkpt>
      <trkpt lat="42.36118" lon="1.58659">
        <ele>826.38</ele>
        <time>2024-09-27T08:13:59.999Z</time>
      </trkpt>
      <trkpt lat="42.36103" lon="1.58644">
        <ele>826.42</ele>
        <time>2024-09-27T08:14:04.999Z</time>
      </trkpt>
      <trkpt lat="42.36088" lon="1.58628">
        <ele>826.47</ele>
        <time>2024-09-27T08:14:09.999Z</time>
      </trkpt>
      <trkpt lat="42.36076" lon="1.5861">
        <ele>826.5</ele>
        <time>2024-09-27T08:14:14.999Z</time>
      </trkpt>
      <trkpt lat="42.36066" lon="1.5859">
        <ele>826.52</ele>
        <time>2024-09-27T08:14:19.999Z</time>
      </trkpt>
      <trkpt lat="42.36057" lon="1.58568">
        <ele>826.66</ele>
        <time>2024-09-27T08:14:24.999Z</time>
      </trkpt>
      <trkpt lat="42.36049" lon="1.58546">
        <ele>826.68</ele>
        <time>2024-09-27T08:14:29.999Z</time>
      </trkpt>
      <trkpt lat="42.36043" lon="1.58523">
        <ele>826.75</ele>
        <time>2024-09-27T08:14:34.999Z</time>
      </trkpt>
      <trkpt lat="42.36038" lon="1.58496">
        <ele>826.93</ele>
        <time>2024-09-27T08:14:39.999Z</time>
      </trkpt>
      <trkpt lat="42.36037" lon="1.58465">
        <ele>827.02</ele>
        <time>2024-09-27T08:14:44.999Z</time>
      </trkpt>
      <trkpt lat="42.3604" lon="1.58432">
        <ele>827.04</ele>
        <time>2024-09-27T08:14:49.999Z</time>
      </trkpt>
      <trkpt lat="42.36045" lon="1.58397">
        <ele>827.05</ele>
        <time>2024-09-27T08:14:54.999Z</time>
      </trkpt>
      <trkpt lat="42.36048" lon="1.58362">
        <ele>827.02</ele>
        <time>2024-09-27T08:14:59.999Z</time>
      </trkpt>
      <trkpt lat="42.36049" lon="1.58324">
        <ele>827.01</ele>
        <time>2024-09-27T08:15:04.999Z</time>
      </trkpt>
      <trkpt lat="42.36045" lon="1.58285">
        <ele>827.03</ele>
        <time>2024-09-27T08:15:09.999Z</time>
      </trkpt>
      <trkpt lat="42.36032" lon="1.58247">
        <ele>827.04</ele>
        <time>2024-09-27T08:15:14.999Z</time>
      </trkpt>
      <trkpt lat="42.36014" lon="1.58211">
        <ele>827.06</ele>
        <time>2024-09-27T08:15:19.999Z</time>
      </trkpt>
      <trkpt lat="42.35996" lon="1.58177">
        <ele>827.26</ele>
        <time>2024-09-27T08:15:24.999Z</time>
      </trkpt>
      <trkpt lat="42.35979" lon="1.58145">
        <ele>827.59</ele>
        <time>2024-09-27T08:15:29.999Z</time>
      </trkpt>
      <trkpt lat="42.35965" lon="1.58117">
        <ele>827.88</ele>
        <time>2024-09-27T08:15:34.999Z</time>
      </trkpt>
      <trkpt lat="42.35952" lon="1.58092">
        <ele>828.29</ele>
        <time>2024-09-27T08:15:39.999Z</time>
      </trkpt>
      <trkpt lat="42.3594" lon="1.58069">
        <ele>828.71</ele>
        <time>2024-09-27T08:15:44.999Z</time>
      </trkpt>
      <trkpt lat="42.35929" lon="1.58047">
        <ele>828.74</ele>
        <time>2024-09-27T08:15:49.999Z</time>
      </trkpt>
      <trkpt lat="42.35919" lon="1.58022">
        <ele>828.78</ele>
        <time>2024-09-27T08:15:54.999Z</time>
      </trkpt>
      <trkpt lat="42.35911" lon="1.57992">
        <ele>828.8</ele>
        <time>2024-09-27T08:15:59.999Z</time>
      </trkpt>
      <trkpt lat="42.35907" lon="1.57958">
        <ele>828.78</ele>
        <time>2024-09-27T08:16:04.999Z</time>
      </trkpt>
      <trkpt lat="42.35909" lon="1.5792">
        <ele>828.69</ele>
        <time>2024-09-27T08:16:09.999Z</time>
      </trkpt>
      <trkpt lat="42.35918" lon="1.57879">
        <ele>828.52</ele>
        <time>2024-09-27T08:16:14.999Z</time>
      </trkpt>
      <trkpt lat="42.35938" lon="1.57838">
        <ele>828.13</ele>
        <time>2024-09-27T08:16:19.999Z</time>
      </trkpt>
      <trkpt lat="42.3597" lon="1.57802">
        <ele>827.22</ele>
        <time>2024-09-27T08:16:24.999Z</time>
      </trkpt>
      <trkpt lat="42.36009" lon="1.57775">
        <ele>826.54</ele>
        <time>2024-09-27T08:16:29.999Z</time>
      </trkpt>
      <trkpt lat="42.36047" lon="1.5775">
        <ele>825.79</ele>
        <time>2024-09-27T08:16:34.999Z</time>
      </trkpt>
      <trkpt lat="42.36086" lon="1.57724">
        <ele>824.79</ele>
        <time>2024-09-27T08:16:39.999Z</time>
      </trkpt>
      <trkpt lat="42.36121" lon="1.57693">
        <ele>823.85</ele>
        <time>2024-09-27T08:16:44.999Z</time>
      </trkpt>
      <trkpt lat="42.36149" lon="1.57652">
        <ele>823.03</ele>
        <time>2024-09-27T08:16:49.999Z</time>
      </trkpt>
      <trkpt lat="42.36167" lon="1.57599">
        <ele>821.92</ele>
        <time>2024-09-27T08:16:54.999Z</time>
      </trkpt>
      <trkpt lat="42.36181" lon="1.57546">
        <ele>821.12</ele>
        <time>2024-09-27T08:16:59.999Z</time>
      </trkpt>
      <trkpt lat="42.36194" lon="1.57495">
        <ele>820.56</ele>
        <time>2024-09-27T08:17:04.999Z</time>
      </trkpt>
      <trkpt lat="42.36208" lon="1.57444">
        <ele>820.1</ele>
        <time>2024-09-27T08:17:09.999Z</time>
      </trkpt>
      <trkpt lat="42.36218" lon="1.57392">
        <ele>819.64</ele>
        <time>2024-09-27T08:17:14.999Z</time>
      </trkpt>
      <trkpt lat="42.36216" lon="1.57341">
        <ele>818.98</ele>
        <time>2024-09-27T08:17:19.999Z</time>
      </trkpt>
      <trkpt lat="42.36201" lon="1.57294">
        <ele>818.28</ele>
        <time>2024-09-27T08:17:24.999Z</time>
      </trkpt>
      <trkpt lat="42.36181" lon="1.5725">
        <ele>817.65</ele>
        <time>2024-09-27T08:17:29.999Z</time>
      </trkpt>
      <trkpt lat="42.36165" lon="1.57203">
        <ele>817.23</ele>
        <time>2024-09-27T08:17:34.999Z</time>
      </trkpt>
      <trkpt lat="42.36154" lon="1.57156">
        <ele>817.06</ele>
        <time>2024-09-27T08:17:39.999Z</time>
      </trkpt>
      <trkpt lat="42.36136" lon="1.57115">
        <ele>816.48</ele>
        <time>2024-09-27T08:17:44.999Z</time>
      </trkpt>
      <trkpt lat="42.36116" lon="1.57075">
        <ele>815.82</ele>
        <time>2024-09-27T08:17:49.999Z</time>
      </trkpt>
      <trkpt lat="42.36093" lon="1.5704">
        <ele>815.32</ele>
        <time>2024-09-27T08:17:54.999Z</time>
      </trkpt>
      <trkpt lat="42.36065" lon="1.57012">
        <ele>814.54</ele>
        <time>2024-09-27T08:17:59.999Z</time>
      </trkpt>
      <trkpt lat="42.36037" lon="1.56983">
        <ele>813.61</ele>
        <time>2024-09-27T08:18:04.999Z</time>
      </trkpt>
      <trkpt lat="42.36007" lon="1.56953">
        <ele>813.06</ele>
        <time>2024-09-27T08:18:09.999Z</time>
      </trkpt>
      <trkpt lat="42.35982" lon="1.56917">
        <ele>812.59</ele>
        <time>2024-09-27T08:18:14.999Z</time>
      </trkpt>
      <trkpt lat="42.35966" lon="1.56871">
        <ele>812.68</ele>
        <time>2024-09-27T08:18:19.999Z</time>
      </trkpt>
      <trkpt lat="42.35959" lon="1.56819">
        <ele>812.79</ele>
        <time>2024-09-27T08:18:24.999Z</time>
      </trkpt>
      <trkpt lat="42.35947" lon="1.5677">
        <ele>811.9</ele>
        <time>2024-09-27T08:18:29.999Z</time>
      </trkpt>
      <trkpt lat="42.35924" lon="1.56722">
        <ele>810.69</ele>
        <time>2024-09-27T08:18:34.999Z</time>
      </trkpt>
      <trkpt lat="42.3591" lon="1.56666">
        <ele>809.24</ele>
        <time>2024-09-27T08:18:39.999Z</time>
      </trkpt>
      <trkpt lat="42.3591" lon="1.56608">
        <ele>807.89</ele>
        <time>2024-09-27T08:18:44.999Z</time>
      </trkpt>
      <trkpt lat="42.35924" lon="1.56551">
        <ele>806.81</ele>
        <time>2024-09-27T08:18:49.999Z</time>
      </trkpt>
      <trkpt lat="42.35939" lon="1.56496">
        <ele>805.82</ele>
        <time>2024-09-27T08:18:54.999Z</time>
      </trkpt>
      <trkpt lat="42.35953" lon="1.5644">
        <ele>804.77</ele>
        <time>2024-09-27T08:18:59.999Z</time>
      </trkpt>
      <trkpt lat="42.35967" lon="1.56385">
        <ele>803.51</ele>
        <time>2024-09-27T08:19:04.999Z</time>
      </trkpt>
      <trkpt lat="42.35973" lon="1.56329">
        <ele>802.35</ele>
        <time>2024-09-27T08:19:09.999Z</time>
      </trkpt>
      <trkpt lat="42.35967" lon="1.56277">
        <ele>801.2</ele>
        <time>2024-09-27T08:19:14.999Z</time>
      </trkpt>
      <trkpt lat="42.35957" lon="1.5623">
        <ele>799.78</ele>
        <time>2024-09-27T08:19:19.999Z</time>
      </trkpt>
      <trkpt lat="42.35946" lon="1.5618">
        <ele>798.26</ele>
        <time>2024-09-27T08:19:24.999Z</time>
      </trkpt>
      <trkpt lat="42.3594" lon="1.56123">
        <ele>796.19</ele>
        <time>2024-09-27T08:19:29.999Z</time>
      </trkpt>
      <trkpt lat="42.3594" lon="1.56061">
        <ele>794.35</ele>
        <time>2024-09-27T08:19:34.999Z</time>
      </trkpt>
      <trkpt lat="42.35943" lon="1.55998">
        <ele>792.84</ele>
        <time>2024-09-27T08:19:39.999Z</time>
      </trkpt>
      <trkpt lat="42.35948" lon="1.5594">
        <ele>791.6</ele>
        <time>2024-09-27T08:19:44.999Z</time>
      </trkpt>
      <trkpt lat="42.35951" lon="1.55889">
        <ele>790.55</ele>
        <time>2024-09-27T08:19:49.999Z</time>
      </trkpt>
      <trkpt lat="42.35948" lon="1.55846">
        <ele>789.63</ele>
        <time>2024-09-27T08:19:54.999Z</time>
      </trkpt>
      <trkpt lat="42.35943" lon="1.5581">
        <ele>788.99</ele>
        <time>2024-09-27T08:19:59.999Z</time>
      </trkpt>
      <trkpt lat="42.35938" lon="1.55781">
        <ele>788.48</ele>
        <time>2024-09-27T08:20:04.999Z</time>
      </trkpt>
      <trkpt lat="42.35931" lon="1.55756">
        <ele>788.17</ele>
        <time>2024-09-27T08:20:09.999Z</time>
      </trkpt>
      <trkpt lat="42.35923" lon="1.55735">
        <ele>788.13</ele>
        <time>2024-09-27T08:20:14.999Z</time>
      </trkpt>
      <trkpt lat="42.35915" lon="1.55716">
        <ele>788.11</ele>
        <time>2024-09-27T08:20:19.999Z</time>
      </trkpt>
      <trkpt lat="42.35908" lon="1.55698">
        <ele>788.11</ele>
        <time>2024-09-27T08:20:24.999Z</time>
      </trkpt>
      <trkpt lat="42.35902" lon="1.5568">
        <ele>788.08</ele>
        <time>2024-09-27T08:20:29.999Z</time>
      </trkpt>
      <trkpt lat="42.35895" lon="1.55663">
        <ele>788.04</ele>
        <time>2024-09-27T08:20:34.999Z</time>
      </trkpt>
      <trkpt lat="42.35888" lon="1.55645">
        <ele>787.95</ele>
        <time>2024-09-27T08:20:39.999Z</time>
      </trkpt>
      <trkpt lat="42.35881" lon="1.55625">
        <ele>787.85</ele>
        <time>2024-09-27T08:20:44.999Z</time>
      </trkpt>
      <trkpt lat="42.35873" lon="1.55604">
        <ele>787.76</ele>
        <time>2024-09-27T08:20:49.999Z</time>
      </trkpt>
      <trkpt lat="42.35866" lon="1.55582">
        <ele>787.59</ele>
        <time>2024-09-27T08:20:54.999Z</time>
      </trkpt>
      <trkpt lat="42.35858" lon="1.55557">
        <ele>787.17</ele>
        <time>2024-09-27T08:20:59.999Z</time>
      </trkpt>
      <trkpt lat="42.35851" lon="1.55528">
        <ele>786.97</ele>
        <time>2024-09-27T08:21:04.999Z</time>
      </trkpt>
      <trkpt lat="42.35849" lon="1.55497">
        <ele>786.86</ele>
        <time>2024-09-27T08:21:09.999Z</time>
      </trkpt>
      <trkpt lat="42.35851" lon="1.55463">
        <ele>786.8</ele>
        <time>2024-09-27T08:21:14.999Z</time>
      </trkpt>
      <trkpt lat="42.35855" lon="1.55431">
        <ele>786.74</ele>
        <time>2024-09-27T08:21:19.999Z</time>
      </trkpt>
      <trkpt lat="42.35858" lon="1.55399">
        <ele>786.71</ele>
        <time>2024-09-27T08:21:24.999Z</time>
      </trkpt>
      <trkpt lat="42.35857" lon="1.55365">
        <ele>786.68</ele>
        <time>2024-09-27T08:21:29.999Z</time>
      </trkpt>
      <trkpt lat="42.35851" lon="1.55332">
        <ele>786.65</ele>
        <time>2024-09-27T08:21:34.999Z</time>
      </trkpt>
      <trkpt lat="42.35842" lon="1.55295">
        <ele>786.61</ele>
        <time>2024-09-27T08:21:39.999Z</time>
      </trkpt>
      <trkpt lat="42.35834" lon="1.55255">
        <ele>786.57</ele>
        <time>2024-09-27T08:21:44.999Z</time>
      </trkpt>
      <trkpt lat="42.35824" lon="1.55216">
        <ele>786.62</ele>
        <time>2024-09-27T08:21:49.999Z</time>
      </trkpt>
      <trkpt lat="42.35815" lon="1.55176">
        <ele>786.67</ele>
        <time>2024-09-27T08:21:54.999Z</time>
      </trkpt>
      <trkpt lat="42.35805" lon="1.55135">
        <ele>786.77</ele>
        <time>2024-09-27T08:21:59.999Z</time>
      </trkpt>
      <trkpt lat="42.35797" lon="1.55095">
        <ele>786.7</ele>
        <time>2024-09-27T08:22:04.999Z</time>
      </trkpt>
      <trkpt lat="42.35792" lon="1.55052">
        <ele>786.45</ele>
        <time>2024-09-27T08:22:09.999Z</time>
      </trkpt>
      <trkpt lat="42.35792" lon="1.55013">
        <ele>786.22</ele>
        <time>2024-09-27T08:22:14.999Z</time>
      </trkpt>
      <trkpt lat="42.35797" lon="1.54973">
        <ele>785.85</ele>
        <time>2024-09-27T08:22:19.999Z</time>
      </trkpt>
      <trkpt lat="42.35809" lon="1.54934">
        <ele>785.5</ele>
        <time>2024-09-27T08:22:24.999Z</time>
      </trkpt>
      <trkpt lat="42.35823" lon="1.54898">
        <ele>785.09</ele>
        <time>2024-09-27T08:22:29.999Z</time>
      </trkpt>
      <trkpt lat="42.35837" lon="1.54861">
        <ele>784.5</ele>
        <time>2024-09-27T08:22:34.999Z</time>
      </trkpt>
      <trkpt lat="42.35849" lon="1.54825">
        <ele>783.81</ele>
        <time>2024-09-27T08:22:39.999Z</time>
      </trkpt>
      <trkpt lat="42.35857" lon="1.54784">
        <ele>782.91</ele>
        <time>2024-09-27T08:22:44.999Z</time>
      </trkpt>
      <trkpt lat="42.35864" lon="1.5474">
        <ele>782.25</ele>
        <time>2024-09-27T08:22:49.999Z</time>
      </trkpt>
      <trkpt lat="42.35871" lon="1.54695">
        <ele>781.59</ele>
        <time>2024-09-27T08:22:54.999Z</time>
      </trkpt>
      <trkpt lat="42.35879" lon="1.54653">
        <ele>780.48</ele>
        <time>2024-09-27T08:22:59.999Z</time>
      </trkpt>
      <trkpt lat="42.35886" lon="1.54611">
        <ele>778.96</ele>
        <time>2024-09-27T08:23:04.999Z</time>
      </trkpt>
      <trkpt lat="42.35892" lon="1.54569">
        <ele>779.41</ele>
        <time>2024-09-27T08:23:09.999Z</time>
      </trkpt>
      <trkpt lat="42.35896" lon="1.54531">
        <ele>781.02</ele>
        <time>2024-09-27T08:23:14.999Z</time>
      </trkpt>
      <trkpt lat="42.35897" lon="1.54492">
        <ele>781.98</ele>
        <time>2024-09-27T08:23:19.999Z</time>
      </trkpt>
      <trkpt lat="42.35896" lon="1.54451">
        <ele>781.91</ele>
        <time>2024-09-27T08:23:24.999Z</time>
      </trkpt>
      <trkpt lat="42.35893" lon="1.54409">
        <ele>781.25</ele>
        <time>2024-09-27T08:23:29.999Z</time>
      </trkpt>
      <trkpt lat="42.35887" lon="1.54367">
        <ele>780.68</ele>
        <time>2024-09-27T08:23:34.999Z</time>
      </trkpt>
      <trkpt lat="42.35875" lon="1.54327">
        <ele>779.93</ele>
        <time>2024-09-27T08:23:39.999Z</time>
      </trkpt>
      <trkpt lat="42.35862" lon="1.54288">
        <ele>779.42</ele>
        <time>2024-09-27T08:23:44.999Z</time>
      </trkpt>
      <trkpt lat="42.35847" lon="1.5425">
        <ele>778.7</ele>
        <time>2024-09-27T08:23:49.999Z</time>
      </trkpt>
      <trkpt lat="42.35826" lon="1.54219">
        <ele>778.23</ele>
        <time>2024-09-27T08:23:54.999Z</time>
      </trkpt>
      <trkpt lat="42.35798" lon="1.54196">
        <ele>778.11</ele>
        <time>2024-09-27T08:23:59.999Z</time>
      </trkpt>
      <trkpt lat="42.3577" lon="1.54178">
        <ele>777.72</ele>
        <time>2024-09-27T08:24:04.999Z</time>
      </trkpt>
      <trkpt lat="42.35739" lon="1.54162">
        <ele>776.72</ele>
        <time>2024-09-27T08:24:09.999Z</time>
      </trkpt>
      <trkpt lat="42.35705" lon="1.54139">
        <ele>775.96</ele>
        <time>2024-09-27T08:24:14.999Z</time>
      </trkpt>
      <trkpt lat="42.35679" lon="1.54094">
        <ele>775.38</ele>
        <time>2024-09-27T08:24:19.999Z</time>
      </trkpt>
      <trkpt lat="42.35671" lon="1.54033">
        <ele>774.56</ele>
        <time>2024-09-27T08:24:24.999Z</time>
      </trkpt>
      <trkpt lat="42.35679" lon="1.5397">
        <ele>773.36</ele>
        <time>2024-09-27T08:24:30.000Z</time>
      </trkpt>
      <trkpt lat="42.35688" lon="1.53907">
        <ele>771.97</ele>
        <time>2024-09-27T08:24:35.000Z</time>
      </trkpt>
      <trkpt lat="42.35695" lon="1.53846">
        <ele>770.5</ele>
        <time>2024-09-27T08:24:40.000Z</time>
      </trkpt>
      <trkpt lat="42.35693" lon="1.53791">
        <ele>768.49</ele>
        <time>2024-09-27T08:24:45.000Z</time>
      </trkpt>
      <trkpt lat="42.35687" lon="1.53742">
        <ele>765.6</ele>
        <time>2024-09-27T08:24:50.000Z</time>
      </trkpt>
      <trkpt lat="42.35675" lon="1.53692">
        <ele>763.95</ele>
        <time>2024-09-27T08:24:55.000Z</time>
      </trkpt>
      <trkpt lat="42.35668" lon="1.53639">
        <ele>763.51</ele>
        <time>2024-09-27T08:25:00.000Z</time>
      </trkpt>
      <trkpt lat="42.35676" lon="1.53588">
        <ele>762.49</ele>
        <time>2024-09-27T08:25:05.000Z</time>
      </trkpt>
      <trkpt lat="42.3569" lon="1.53539">
        <ele>760.44</ele>
        <time>2024-09-27T08:25:10.000Z</time>
      </trkpt>
      <trkpt lat="42.35703" lon="1.53491">
        <ele>758.66</ele>
        <time>2024-09-27T08:25:15.000Z</time>
      </trkpt>
      <trkpt lat="42.35713" lon="1.53442">
        <ele>757.33</ele>
        <time>2024-09-27T08:25:20.000Z</time>
      </trkpt>
      <trkpt lat="42.35717" lon="1.53392">
        <ele>756.08</ele>
        <time>2024-09-27T08:25:25.000Z</time>
      </trkpt>
      <trkpt lat="42.35715" lon="1.53341">
        <ele>755.22</ele>
        <time>2024-09-27T08:25:30.000Z</time>
      </trkpt>
      <trkpt lat="42.35711" lon="1.53292">
        <ele>754.43</ele>
        <time>2024-09-27T08:25:35.000Z</time>
      </trkpt>
      <trkpt lat="42.35707" lon="1.53247">
        <ele>753.77</ele>
        <time>2024-09-27T08:25:40.000Z</time>
      </trkpt>
      <trkpt lat="42.35704" lon="1.53204">
        <ele>752.85</ele>
        <time>2024-09-27T08:25:45.000Z</time>
      </trkpt>
      <trkpt lat="42.357" lon="1.53161">
        <ele>752.9</ele>
        <time>2024-09-27T08:25:50.000Z</time>
      </trkpt>
      <trkpt lat="42.35695" lon="1.53123">
        <ele>753.88</ele>
        <time>2024-09-27T08:25:55.000Z</time>
      </trkpt>
      <trkpt lat="42.35691" lon="1.53092">
        <ele>753.92</ele>
        <time>2024-09-27T08:26:00.000Z</time>
      </trkpt>
      <trkpt lat="42.35687" lon="1.53068">
        <ele>753.89</ele>
        <time>2024-09-27T08:26:05.000Z</time>
      </trkpt>
      <trkpt lat="42.35683" lon="1.53048">
        <ele>753.85</ele>
        <time>2024-09-27T08:26:10.000Z</time>
      </trkpt>
      <trkpt lat="42.35679" lon="1.53029">
        <ele>753.81</ele>
        <time>2024-09-27T08:26:15.000Z</time>
      </trkpt>
      <trkpt lat="42.35674" lon="1.53011">
        <ele>753.81</ele>
        <time>2024-09-27T08:26:20.000Z</time>
      </trkpt>
      <trkpt lat="42.3567" lon="1.52994">
        <ele>753.84</ele>
        <time>2024-09-27T08:26:25.000Z</time>
      </trkpt>
      <trkpt lat="42.35666" lon="1.52978">
        <ele>753.9</ele>
        <time>2024-09-27T08:26:30.000Z</time>
      </trkpt>
      <trkpt lat="42.35662" lon="1.52961">
        <ele>753.98</ele>
        <time>2024-09-27T08:26:35.000Z</time>
      </trkpt>
      <trkpt lat="42.35658" lon="1.52945">
        <ele>754.06</ele>
        <time>2024-09-27T08:26:40.000Z</time>
      </trkpt>
      <trkpt lat="42.35653" lon="1.5293">
        <ele>754.15</ele>
        <time>2024-09-27T08:26:45.000Z</time>
      </trkpt>
      <trkpt lat="42.35649" lon="1.52914">
        <ele>754.27</ele>
        <time>2024-09-27T08:26:50.000Z</time>
      </trkpt>
      <trkpt lat="42.35644" lon="1.52896">
        <ele>754.43</ele>
        <time>2024-09-27T08:26:55.000Z</time>
      </trkpt>
      <trkpt lat="42.35638" lon="1.52874">
        <ele>754.61</ele>
        <time>2024-09-27T08:27:00.000Z</time>
      </trkpt>
      <trkpt lat="42.35631" lon="1.52853">
        <ele>754.81</ele>
        <time>2024-09-27T08:27:05.000Z</time>
      </trkpt>
      <trkpt lat="42.35625" lon="1.52832">
        <ele>755.03</ele>
        <time>2024-09-27T08:27:10.000Z</time>
      </trkpt>
      <trkpt lat="42.35619" lon="1.5281">
        <ele>755.23</ele>
        <time>2024-09-27T08:27:15.000Z</time>
      </trkpt>
      <trkpt lat="42.35613" lon="1.52789">
        <ele>755.45</ele>
        <time>2024-09-27T08:27:20.000Z</time>
      </trkpt>
      <trkpt lat="42.35607" lon="1.52768">
        <ele>755.67</ele>
        <time>2024-09-27T08:27:25.000Z</time>
      </trkpt>
      <trkpt lat="42.356" lon="1.52747">
        <ele>755.87</ele>
        <time>2024-09-27T08:27:30.000Z</time>
      </trkpt>
      <trkpt lat="42.35593" lon="1.52725">
        <ele>756.07</ele>
        <time>2024-09-27T08:27:35.000Z</time>
      </trkpt>
      <trkpt lat="42.35587" lon="1.52702">
        <ele>756.51</ele>
        <time>2024-09-27T08:27:40.000Z</time>
      </trkpt>
      <trkpt lat="42.3558" lon="1.52676">
        <ele>757.6</ele>
        <time>2024-09-27T08:27:45.000Z</time>
      </trkpt>
      <trkpt lat="42.35574" lon="1.52647">
        <ele>758.04</ele>
        <time>2024-09-27T08:27:50.000Z</time>
      </trkpt>
      <trkpt lat="42.35574" lon="1.52615">
        <ele>758.26</ele>
        <time>2024-09-27T08:27:55.000Z</time>
      </trkpt>
      <trkpt lat="42.35577" lon="1.52583">
        <ele>758.37</ele>
        <time>2024-09-27T08:28:00.000Z</time>
      </trkpt>
      <trkpt lat="42.35584" lon="1.52549">
        <ele>758.38</ele>
        <time>2024-09-27T08:28:05.000Z</time>
      </trkpt>
      <trkpt lat="42.35591" lon="1.52515">
        <ele>758.31</ele>
        <time>2024-09-27T08:28:10.000Z</time>
      </trkpt>
      <trkpt lat="42.356" lon="1.52482">
        <ele>758.25</ele>
        <time>2024-09-27T08:28:15.000Z</time>
      </trkpt>
      <trkpt lat="42.3561" lon="1.52448">
        <ele>758.22</ele>
        <time>2024-09-27T08:28:20.000Z</time>
      </trkpt>
      <trkpt lat="42.3562" lon="1.52414">
        <ele>758.2</ele>
        <time>2024-09-27T08:28:25.000Z</time>
      </trkpt>
      <trkpt lat="42.3563" lon="1.52379">
        <ele>758.19</ele>
        <time>2024-09-27T08:28:30.000Z</time>
      </trkpt>
      <trkpt lat="42.3564" lon="1.52343">
        <ele>758.27</ele>
        <time>2024-09-27T08:28:35.000Z</time>
      </trkpt>
      <trkpt lat="42.35651" lon="1.52308">
        <ele>758.24</ele>
        <time>2024-09-27T08:28:40.000Z</time>
      </trkpt>
      <trkpt lat="42.35662" lon="1.52273">
        <ele>758.15</ele>
        <time>2024-09-27T08:28:45.000Z</time>
      </trkpt>
      <trkpt lat="42.35677" lon="1.52237">
        <ele>758.08</ele>
        <time>2024-09-27T08:28:50.000Z</time>
      </trkpt>
      <trkpt lat="42.35751" lon="1.52094">
        <ele>758.07</ele>
        <time>2024-09-27T08:29:09.000Z</time>
      </trkpt>
      <trkpt lat="42.35765" lon="1.52073">
        <ele>758.02</ele>
        <time>2024-09-27T08:29:14.000Z</time>
      </trkpt>
      <trkpt lat="42.35784" lon="1.52042">
        <ele>757.82</ele>
        <time>2024-09-27T08:29:19.000Z</time>
      </trkpt>
      <trkpt lat="42.35804" lon="1.52008">
        <ele>757.56</ele>
        <time>2024-09-27T08:29:24.000Z</time>
      </trkpt>
      <trkpt lat="42.35822" lon="1.51975">
        <ele>757.42</ele>
        <time>2024-09-27T08:29:29.000Z</time>
      </trkpt>
      <trkpt lat="42.3584" lon="1.51944">
        <ele>757.3</ele>
        <time>2024-09-27T08:29:34.000Z</time>
      </trkpt>
      <trkpt lat="42.35859" lon="1.51913">
        <ele>757.17</ele>
        <time>2024-09-27T08:29:39.000Z</time>
      </trkpt>
      <trkpt lat="42.35887" lon="1.51868">
        <ele>757.04</ele>
        <time>2024-09-27T08:29:44.000Z</time>
      </trkpt>
      <trkpt lat="42.35907" lon="1.51837">
        <ele>756.97</ele>
        <time>2024-09-27T08:29:49.000Z</time>
      </trkpt>
      <trkpt lat="42.35923" lon="1.51806">
        <ele>756.89</ele>
        <time>2024-09-27T08:29:54.000Z</time>
      </trkpt>
      <trkpt lat="42.35938" lon="1.51775">
        <ele>756.78</ele>
        <time>2024-09-27T08:29:59.000Z</time>
      </trkpt>
      <trkpt lat="42.35949" lon="1.5174">
        <ele>756.56</ele>
        <time>2024-09-27T08:30:04.000Z</time>
      </trkpt>
      <trkpt lat="42.35957" lon="1.51703">
        <ele>756.19</ele>
        <time>2024-09-27T08:30:09.000Z</time>
      </trkpt>
      <trkpt lat="42.35965" lon="1.51666">
        <ele>755.78</ele>
        <time>2024-09-27T08:30:14.000Z</time>
      </trkpt>
      <trkpt lat="42.35972" lon="1.5163">
        <ele>755.42</ele>
        <time>2024-09-27T08:30:19.000Z</time>
      </trkpt>
      <trkpt lat="42.35979" lon="1.51594">
        <ele>755.05</ele>
        <time>2024-09-27T08:30:24.000Z</time>
      </trkpt>
      <trkpt lat="42.35989" lon="1.51555">
        <ele>754.65</ele>
        <time>2024-09-27T08:30:29.000Z</time>
      </trkpt>
      <trkpt lat="42.35998" lon="1.51517">
        <ele>754.37</ele>
        <time>2024-09-27T08:30:34.000Z</time>
      </trkpt>
      <trkpt lat="42.36008" lon="1.51479">
        <ele>753.88</ele>
        <time>2024-09-27T08:30:39.000Z</time>
      </trkpt>
      <trkpt lat="42.36017" lon="1.5144">
        <ele>753.57</ele>
        <time>2024-09-27T08:30:44.000Z</time>
      </trkpt>
      <trkpt lat="42.36022" lon="1.514">
        <ele>753.7</ele>
        <time>2024-09-27T08:30:49.000Z</time>
      </trkpt>
      <trkpt lat="42.36023" lon="1.51358">
        <ele>753.7</ele>
        <time>2024-09-27T08:30:54.000Z</time>
      </trkpt>
      <trkpt lat="42.36018" lon="1.51318">
        <ele>753.51</ele>
        <time>2024-09-27T08:30:59.000Z</time>
      </trkpt>
      <trkpt lat="42.3601" lon="1.5128">
        <ele>753.73</ele>
        <time>2024-09-27T08:31:04.000Z</time>
      </trkpt>
      <trkpt lat="42.35997" lon="1.51244">
        <ele>753.82</ele>
        <time>2024-09-27T08:31:09.000Z</time>
      </trkpt>
      <trkpt lat="42.3598" lon="1.51212">
        <ele>753.78</ele>
        <time>2024-09-27T08:31:14.000Z</time>
      </trkpt>
      <trkpt lat="42.35965" lon="1.51181">
        <ele>753.7</ele>
        <time>2024-09-27T08:31:19.000Z</time>
      </trkpt>
      <trkpt lat="42.35949" lon="1.51149">
        <ele>753.39</ele>
        <time>2024-09-27T08:31:24.000Z</time>
      </trkpt>
      <trkpt lat="42.35933" lon="1.51115">
        <ele>752.96</ele>
        <time>2024-09-27T08:31:29.000Z</time>
      </trkpt>
      <trkpt lat="42.35915" lon="1.51078">
        <ele>752.31</ele>
        <time>2024-09-27T08:31:34.000Z</time>
      </trkpt>
      <trkpt lat="42.35895" lon="1.51037">
        <ele>751.54</ele>
        <time>2024-09-27T08:31:39.000Z</time>
      </trkpt>
      <trkpt lat="42.35872" lon="1.50993">
        <ele>750.96</ele>
        <time>2024-09-27T08:31:44.000Z</time>
      </trkpt>
      <trkpt lat="42.35848" lon="1.50945">
        <ele>750.56</ele>
        <time>2024-09-27T08:31:49.000Z</time>
      </trkpt>
      <trkpt lat="42.35823" lon="1.50896">
        <ele>750.03</ele>
        <time>2024-09-27T08:31:54.000Z</time>
      </trkpt>
      <trkpt lat="42.35797" lon="1.50844">
        <ele>749.52</ele>
        <time>2024-09-27T08:31:59.000Z</time>
      </trkpt>
      <trkpt lat="42.35775" lon="1.50792">
        <ele>748.9</ele>
        <time>2024-09-27T08:32:04.000Z</time>
      </trkpt>
      <trkpt lat="42.35757" lon="1.50741">
        <ele>747.97</ele>
        <time>2024-09-27T08:32:09.000Z</time>
      </trkpt>
      <trkpt lat="42.35746" lon="1.50689">
        <ele>747.05</ele>
        <time>2024-09-27T08:32:14.000Z</time>
      </trkpt>
      <trkpt lat="42.35741" lon="1.50637">
        <ele>746.39</ele>
        <time>2024-09-27T08:32:19.000Z</time>
      </trkpt>
      <trkpt lat="42.35738" lon="1.50588">
        <ele>745.46</ele>
        <time>2024-09-27T08:32:24.000Z</time>
      </trkpt>
      <trkpt lat="42.35741" lon="1.5054">
        <ele>744.27</ele>
        <time>2024-09-27T08:32:29.000Z</time>
      </trkpt>
      <trkpt lat="42.35745" lon="1.50494">
        <ele>743.14</ele>
        <time>2024-09-27T08:32:34.000Z</time>
      </trkpt>
      <trkpt lat="42.35746" lon="1.5045">
        <ele>742.3</ele>
        <time>2024-09-27T08:32:39.000Z</time>
      </trkpt>
      <trkpt lat="42.35748" lon="1.50409">
        <ele>741.3</ele>
        <time>2024-09-27T08:32:44.000Z</time>
      </trkpt>
      <trkpt lat="42.3575" lon="1.50369">
        <ele>740.2</ele>
        <time>2024-09-27T08:32:49.000Z</time>
      </trkpt>
      <trkpt lat="42.35752" lon="1.5033">
        <ele>739.3</ele>
        <time>2024-09-27T08:32:54.000Z</time>
      </trkpt>
      <trkpt lat="42.35759" lon="1.5029">
        <ele>738.59</ele>
        <time>2024-09-27T08:32:59.000Z</time>
      </trkpt>
      <trkpt lat="42.35767" lon="1.50248">
        <ele>738.04</ele>
        <time>2024-09-27T08:33:04.000Z</time>
      </trkpt>
      <trkpt lat="42.35775" lon="1.50207">
        <ele>737.35</ele>
        <time>2024-09-27T08:33:09.000Z</time>
      </trkpt>
      <trkpt lat="42.35784" lon="1.50164">
        <ele>736.88</ele>
        <time>2024-09-27T08:33:14.000Z</time>
      </trkpt>
      <trkpt lat="42.35791" lon="1.50121">
        <ele>736.52</ele>
        <time>2024-09-27T08:33:19.000Z</time>
      </trkpt>
      <trkpt lat="42.35797" lon="1.5008">
        <ele>736.14</ele>
        <time>2024-09-27T08:33:24.000Z</time>
      </trkpt>
      <trkpt lat="42.35802" lon="1.5004">
        <ele>735.82</ele>
        <time>2024-09-27T08:33:29.000Z</time>
      </trkpt>
      <trkpt lat="42.35806" lon="1.50001">
        <ele>735.52</ele>
        <time>2024-09-27T08:33:34.000Z</time>
      </trkpt>
      <trkpt lat="42.35809" lon="1.49963">
        <ele>735.33</ele>
        <time>2024-09-27T08:33:39.000Z</time>
      </trkpt>
      <trkpt lat="42.35811" lon="1.49926">
        <ele>735.24</ele>
        <time>2024-09-27T08:33:44.000Z</time>
      </trkpt>
      <trkpt lat="42.35814" lon="1.49891">
        <ele>735.19</ele>
        <time>2024-09-27T08:33:49.000Z</time>
      </trkpt>
      <trkpt lat="42.35817" lon="1.49857">
        <ele>735.1</ele>
        <time>2024-09-27T08:33:54.000Z</time>
      </trkpt>
      <trkpt lat="42.3582" lon="1.49823">
        <ele>734.96</ele>
        <time>2024-09-27T08:33:59.000Z</time>
      </trkpt>
      <trkpt lat="42.35825" lon="1.4979">
        <ele>734.77</ele>
        <time>2024-09-27T08:34:04.000Z</time>
      </trkpt>
      <trkpt lat="42.35831" lon="1.49758">
        <ele>734.38</ele>
        <time>2024-09-27T08:34:09.000Z</time>
      </trkpt>
      <trkpt lat="42.35839" lon="1.49725">
        <ele>733.98</ele>
        <time>2024-09-27T08:34:14.000Z</time>
      </trkpt>
      <trkpt lat="42.35847" lon="1.49691">
        <ele>733.49</ele>
        <time>2024-09-27T08:34:19.000Z</time>
      </trkpt>
      <trkpt lat="42.35855" lon="1.49657">
        <ele>733.12</ele>
        <time>2024-09-27T08:34:24.000Z</time>
      </trkpt>
      <trkpt lat="42.35863" lon="1.49622">
        <ele>732.85</ele>
        <time>2024-09-27T08:34:29.000Z</time>
      </trkpt>
      <trkpt lat="42.3587" lon="1.49589">
        <ele>732.63</ele>
        <time>2024-09-27T08:34:34.000Z</time>
      </trkpt>
      <trkpt lat="42.35877" lon="1.49556">
        <ele>732.43</ele>
        <time>2024-09-27T08:34:39.000Z</time>
      </trkpt>
      <trkpt lat="42.35884" lon="1.49523">
        <ele>732.24</ele>
        <time>2024-09-27T08:34:44.000Z</time>
      </trkpt>
      <trkpt lat="42.35892" lon="1.4949">
        <ele>732.1</ele>
        <time>2024-09-27T08:34:49.000Z</time>
      </trkpt>
      <trkpt lat="42.35899" lon="1.49458">
        <ele>731.96</ele>
        <time>2024-09-27T08:34:54.000Z</time>
      </trkpt>
      <trkpt lat="42.35906" lon="1.49426">
        <ele>731.82</ele>
        <time>2024-09-27T08:34:59.000Z</time>
      </trkpt>
      <trkpt lat="42.35915" lon="1.49391">
        <ele>731.65</ele>
        <time>2024-09-27T08:35:04.000Z</time>
      </trkpt>
      <trkpt lat="42.35929" lon="1.49353">
        <ele>731.47</ele>
        <time>2024-09-27T08:35:09.000Z</time>
      </trkpt>
      <trkpt lat="42.35948" lon="1.49313">
        <ele>731.29</ele>
        <time>2024-09-27T08:35:14.000Z</time>
      </trkpt>
      <trkpt lat="42.35971" lon="1.49269">
        <ele>731</ele>
        <time>2024-09-27T08:35:19.000Z</time>
      </trkpt>
      <trkpt lat="42.35994" lon="1.4922">
        <ele>730.77</ele>
        <time>2024-09-27T08:35:24.000Z</time>
      </trkpt>
      <trkpt lat="42.36009" lon="1.49164">
        <ele>730.49</ele>
        <time>2024-09-27T08:35:29.000Z</time>
      </trkpt>
      <trkpt lat="42.36013" lon="1.49105">
        <ele>730.24</ele>
        <time>2024-09-27T08:35:34.000Z</time>
      </trkpt>
      <trkpt lat="42.36014" lon="1.49047">
        <ele>729.84</ele>
        <time>2024-09-27T08:35:39.000Z</time>
      </trkpt>
      <trkpt lat="42.36015" lon="1.48994">
        <ele>729.35</ele>
        <time>2024-09-27T08:35:44.000Z</time>
      </trkpt>
      <trkpt lat="42.36016" lon="1.48947">
        <ele>728.86</ele>
        <time>2024-09-27T08:35:49.000Z</time>
      </trkpt>
      <trkpt lat="42.36018" lon="1.48902">
        <ele>728.41</ele>
        <time>2024-09-27T08:35:54.000Z</time>
      </trkpt>
      <trkpt lat="42.36023" lon="1.48859">
        <ele>727.98</ele>
        <time>2024-09-27T08:35:59.000Z</time>
      </trkpt>
      <trkpt lat="42.36032" lon="1.48818">
        <ele>727.42</ele>
        <time>2024-09-27T08:36:04.000Z</time>
      </trkpt>
      <trkpt lat="42.36042" lon="1.48776">
        <ele>726.9</ele>
        <time>2024-09-27T08:36:09.000Z</time>
      </trkpt>
      <trkpt lat="42.36051" lon="1.4873">
        <ele>726.69</ele>
        <time>2024-09-27T08:36:14.000Z</time>
      </trkpt>
      <trkpt lat="42.36061" lon="1.48683">
        <ele>726.45</ele>
        <time>2024-09-27T08:36:19.000Z</time>
      </trkpt>
      <trkpt lat="42.36072" lon="1.48637">
        <ele>726.07</ele>
        <time>2024-09-27T08:36:24.000Z</time>
      </trkpt>
      <trkpt lat="42.36082" lon="1.48589">
        <ele>725.49</ele>
        <time>2024-09-27T08:36:29.000Z</time>
      </trkpt>
      <trkpt lat="42.36094" lon="1.4854">
        <ele>724.98</ele>
        <time>2024-09-27T08:36:34.000Z</time>
      </trkpt>
      <trkpt lat="42.36109" lon="1.48481">
        <ele>724.32</ele>
        <time>2024-09-27T08:36:39.999Z</time>
      </trkpt>
      <trkpt lat="42.36119" lon="1.48435">
        <ele>723.78</ele>
        <time>2024-09-27T08:36:44.999Z</time>
      </trkpt>
      <trkpt lat="42.36129" lon="1.48387">
        <ele>723.23</ele>
        <time>2024-09-27T08:36:49.999Z</time>
      </trkpt>
      <trkpt lat="42.36136" lon="1.48338">
        <ele>722.92</ele>
        <time>2024-09-27T08:36:54.999Z</time>
      </trkpt>
      <trkpt lat="42.36141" lon="1.48294">
        <ele>722.71</ele>
        <time>2024-09-27T08:36:59.999Z</time>
      </trkpt>
      <trkpt lat="42.36144" lon="1.48254">
        <ele>722.43</ele>
        <time>2024-09-27T08:37:04.999Z</time>
      </trkpt>
      <trkpt lat="42.36147" lon="1.48215">
        <ele>721.94</ele>
        <time>2024-09-27T08:37:09.999Z</time>
      </trkpt>
      <trkpt lat="42.36153" lon="1.48177">
        <ele>721.38</ele>
        <time>2024-09-27T08:37:14.999Z</time>
      </trkpt>
      <trkpt lat="42.36159" lon="1.48139">
        <ele>720.78</ele>
        <time>2024-09-27T08:37:19.999Z</time>
      </trkpt>
      <trkpt lat="42.36165" lon="1.48101">
        <ele>720.23</ele>
        <time>2024-09-27T08:37:24.999Z</time>
      </trkpt>
      <trkpt lat="42.36171" lon="1.48061">
        <ele>719.69</ele>
        <time>2024-09-27T08:37:29.999Z</time>
      </trkpt>
      <trkpt lat="42.36177" lon="1.48017">
        <ele>719.18</ele>
        <time>2024-09-27T08:37:34.999Z</time>
      </trkpt>
      <trkpt lat="42.3618" lon="1.47972">
        <ele>718.68</ele>
        <time>2024-09-27T08:37:39.999Z</time>
      </trkpt>
      <trkpt lat="42.36181" lon="1.47927">
        <ele>718.23</ele>
        <time>2024-09-27T08:37:44.999Z</time>
      </trkpt>
      <trkpt lat="42.36177" lon="1.4788">
        <ele>717.93</ele>
        <time>2024-09-27T08:37:49.999Z</time>
      </trkpt>
      <trkpt lat="42.36171" lon="1.47833">
        <ele>717.25</ele>
        <time>2024-09-27T08:37:54.999Z</time>
      </trkpt>
      <trkpt lat="42.36164" lon="1.47785">
        <ele>716.92</ele>
        <time>2024-09-27T08:37:59.999Z</time>
      </trkpt>
      <trkpt lat="42.36155" lon="1.47739">
        <ele>716.36</ele>
        <time>2024-09-27T08:38:04.999Z</time>
      </trkpt>
      <trkpt lat="42.36146" lon="1.4769">
        <ele>716.25</ele>
        <time>2024-09-27T08:38:09.999Z</time>
      </trkpt>
      <trkpt lat="42.36138" lon="1.47645">
        <ele>716.09</ele>
        <time>2024-09-27T08:38:14.999Z</time>
      </trkpt>
      <trkpt lat="42.36131" lon="1.47603">
        <ele>715.94</ele>
        <time>2024-09-27T08:38:19.999Z</time>
      </trkpt>
      <trkpt lat="42.36125" lon="1.47562">
        <ele>715.91</ele>
        <time>2024-09-27T08:38:24.999Z</time>
      </trkpt>
      <trkpt lat="42.3612" lon="1.47524">
        <ele>716.23</ele>
        <time>2024-09-27T08:38:29.999Z</time>
      </trkpt>
      <trkpt lat="42.36114" lon="1.47488">
        <ele>716.5</ele>
        <time>2024-09-27T08:38:34.999Z</time>
      </trkpt>
      <trkpt lat="42.36111" lon="1.47449">
        <ele>715.68</ele>
        <time>2024-09-27T08:38:39.999Z</time>
      </trkpt>
      <trkpt lat="42.36109" lon="1.47402">
        <ele>715.03</ele>
        <time>2024-09-27T08:38:44.999Z</time>
      </trkpt>
      <trkpt lat="42.36109" lon="1.47353">
        <ele>714.56</ele>
        <time>2024-09-27T08:38:49.999Z</time>
      </trkpt>
      <trkpt lat="42.36108" lon="1.47303">
        <ele>714.09</ele>
        <time>2024-09-27T08:38:54.999Z</time>
      </trkpt>
      <trkpt lat="42.36106" lon="1.47255">
        <ele>714.17</ele>
        <time>2024-09-27T08:38:59.999Z</time>
      </trkpt>
      <trkpt lat="42.36104" lon="1.47213">
        <ele>713.77</ele>
        <time>2024-09-27T08:39:04.999Z</time>
      </trkpt>
      <trkpt lat="42.36108" lon="1.47176">
        <ele>713.22</ele>
        <time>2024-09-27T08:39:09.999Z</time>
      </trkpt>
      <trkpt lat="42.36119" lon="1.47148">
        <ele>712.68</ele>
        <time>2024-09-27T08:39:14.999Z</time>
      </trkpt>
      <trkpt lat="42.36115" lon="1.47131">
        <ele>712.62</ele>
        <time>2024-09-27T08:39:19.999Z</time>
      </trkpt>
      <trkpt lat="42.36109" lon="1.47122">
        <ele>712.2</ele>
        <time>2024-09-27T08:40:07.999Z</time>
      </trkpt>
      <trkpt lat="42.36106" lon="1.47098">
        <ele>711.64</ele>
        <time>2024-09-27T08:40:12.999Z</time>
      </trkpt>
      <trkpt lat="42.36108" lon="1.4707">
        <ele>710.3</ele>
        <time>2024-09-27T08:40:17.999Z</time>
      </trkpt>
      <trkpt lat="42.36111" lon="1.47042">
        <ele>709.53</ele>
        <time>2024-09-27T08:40:22.999Z</time>
      </trkpt>
      <trkpt lat="42.36114" lon="1.47016">
        <ele>709.08</ele>
        <time>2024-09-27T08:40:27.999Z</time>
      </trkpt>
      <trkpt lat="42.36118" lon="1.46996">
        <ele>709</ele>
        <time>2024-09-27T08:40:32.999Z</time>
      </trkpt>
      <trkpt lat="42.36109" lon="1.47001">
        <ele>708.68</ele>
        <time>2024-09-27T08:41:01.999Z</time>
      </trkpt>
      <trkpt lat="42.36106" lon="1.47028">
        <ele>707.95</ele>
        <time>2024-09-27T08:41:06.999Z</time>
      </trkpt>
      <trkpt lat="42.36103" lon="1.47057">
        <ele>707.66</ele>
        <time>2024-09-27T08:41:11.999Z</time>
      </trkpt>
      <trkpt lat="42.361" lon="1.47072">
        <ele>707.67</ele>
        <time>2024-09-27T08:41:16.999Z</time>
      </trkpt>
      <trkpt lat="42.36084" lon="1.47072">
        <ele>707.71</ele>
        <time>2024-09-27T08:41:21.999Z</time>
      </trkpt>
      <trkpt lat="42.36068" lon="1.47075">
        <ele>707.75</ele>
        <time>2024-09-27T08:41:26.999Z</time>
      </trkpt>
      <trkpt lat="42.36061" lon="1.47065">
        <ele>707.89</ele>
        <time>2024-09-27T08:41:37.999Z</time>
      </trkpt>
      <trkpt lat="42.36062" lon="1.47041">
        <ele>708.2</ele>
        <time>2024-09-27T08:41:42.999Z</time>
      </trkpt>
      <trkpt lat="42.36057" lon="1.47014">
        <ele>708.38</ele>
        <time>2024-09-27T08:41:47.999Z</time>
      </trkpt>
      <trkpt lat="42.36049" lon="1.46983">
        <ele>708.37</ele>
        <time>2024-09-27T08:41:52.999Z</time>
      </trkpt>
      <trkpt lat="42.36042" lon="1.46947">
        <ele>708.25</ele>
        <time>2024-09-27T08:41:57.999Z</time>
      </trkpt>
      <trkpt lat="42.36034" lon="1.46909">
        <ele>708.12</ele>
        <time>2024-09-27T08:42:02.999Z</time>
      </trkpt>
      <trkpt lat="42.3602" lon="1.46868">
        <ele>708.2</ele>
        <time>2024-09-27T08:42:07.999Z</time>
      </trkpt>
      <trkpt lat="42.36006" lon="1.46826">
        <ele>708.56</ele>
        <time>2024-09-27T08:42:12.999Z</time>
      </trkpt>
      <trkpt lat="42.35995" lon="1.46787">
        <ele>708.78</ele>
        <time>2024-09-27T08:42:17.999Z</time>
      </trkpt>
      <trkpt lat="42.35991" lon="1.46745">
        <ele>708.67</ele>
        <time>2024-09-27T08:42:22.999Z</time>
      </trkpt>
      <trkpt lat="42.35986" lon="1.46706">
        <ele>708.46</ele>
        <time>2024-09-27T08:42:27.999Z</time>
      </trkpt>
      <trkpt lat="42.35979" lon="1.46668">
        <ele>708.3</ele>
        <time>2024-09-27T08:42:32.999Z</time>
      </trkpt>
      <trkpt lat="42.3597" lon="1.46629">
        <ele>708.06</ele>
        <time>2024-09-27T08:42:37.999Z</time>
      </trkpt>
      <trkpt lat="42.35963" lon="1.46598">
        <ele>707.57</ele>
        <time>2024-09-27T08:42:42.999Z</time>
      </trkpt>
      <trkpt lat="42.35956" lon="1.46568">
        <ele>707.83</ele>
        <time>2024-09-27T08:42:47.999Z</time>
      </trkpt>
      <trkpt lat="42.35949" lon="1.4654">
        <ele>708.13</ele>
        <time>2024-09-27T08:42:52.999Z</time>
      </trkpt>
      <trkpt lat="42.35942" lon="1.4651">
        <ele>708.64</ele>
        <time>2024-09-27T08:42:57.999Z</time>
      </trkpt>
      <trkpt lat="42.35933" lon="1.46477">
        <ele>708.5</ele>
        <time>2024-09-27T08:43:02.999Z</time>
      </trkpt>
      <trkpt lat="42.35926" lon="1.46445">
        <ele>708.46</ele>
        <time>2024-09-27T08:43:07.999Z</time>
      </trkpt>
      <trkpt lat="42.35914" lon="1.46442">
        <ele>708.51</ele>
        <time>2024-09-27T08:43:12.999Z</time>
      </trkpt>
      <trkpt lat="42.359" lon="1.46429">
        <ele>708.53</ele>
        <time>2024-09-27T08:43:17.999Z</time>
      </trkpt>
      <trkpt lat="42.35887" lon="1.46409">
        <ele>708.41</ele>
        <time>2024-09-27T08:43:22.999Z</time>
      </trkpt>
      <trkpt lat="42.35871" lon="1.46415">
        <ele>708.25</ele>
        <time>2024-09-27T08:43:27.999Z</time>
      </trkpt>
      <trkpt lat="42.35856" lon="1.46415">
        <ele>707.96</ele>
        <time>2024-09-27T08:43:32.999Z</time>
      </trkpt>
      <trkpt lat="42.35852" lon="1.46404">
        <ele>707.85</ele>
        <time>2024-09-27T08:43:37.999Z</time>
      </trkpt>
      <trkpt lat="42.35853" lon="1.46391">
        <ele>707.61</ele>
        <time>2024-09-27T08:43:52.999Z</time>
      </trkpt>
      <trkpt lat="42.35852" lon="1.46376">
        <ele>707.43</ele>
        <time>2024-09-27T08:43:57.999Z</time>
      </trkpt>
      <trkpt lat="42.35853" lon="1.46362">
        <ele>707.2</ele>
        <time>2024-09-27T08:44:02.999Z</time>
      </trkpt>
      <trkpt lat="42.35849" lon="1.46347">
        <ele>706.94</ele>
        <time>2024-09-27T08:44:07.999Z</time>
      </trkpt>
      <trkpt lat="42.35845" lon="1.46329">
        <ele>706.66</ele>
        <time>2024-09-27T08:44:12.999Z</time>
      </trkpt>
      <trkpt lat="42.35841" lon="1.4631">
        <ele>706.39</ele>
        <time>2024-09-27T08:44:17.999Z</time>
      </trkpt>
      <trkpt lat="42.35839" lon="1.46295">
        <ele>706.13</ele>
        <time>2024-09-27T08:44:22.999Z</time>
      </trkpt>
      <trkpt lat="42.35835" lon="1.46282">
        <ele>705.88</ele>
        <time>2024-09-27T08:44:27.999Z</time>
      </trkpt>
      <trkpt lat="42.35831" lon="1.4627">
        <ele>705.42</ele>
        <time>2024-09-27T08:44:42.999Z</time>
      </trkpt>
      <trkpt lat="42.3583" lon="1.46255">
        <ele>705.21</ele>
        <time>2024-09-27T08:44:47.999Z</time>
      </trkpt>
      <trkpt lat="42.35831" lon="1.46239">
        <ele>705.01</ele>
        <time>2024-09-27T08:44:52.999Z</time>
      </trkpt>
      <trkpt lat="42.35825" lon="1.46227">
        <ele>704.84</ele>
        <time>2024-09-27T08:44:57.999Z</time>
      </trkpt>
      <trkpt lat="42.35813" lon="1.46225">
        <ele>704.67</ele>
        <time>2024-09-27T08:45:02.999Z</time>
      </trkpt>
      <trkpt lat="42.35799" lon="1.46227">
        <ele>704.51</ele>
        <time>2024-09-27T08:45:07.999Z</time>
      </trkpt>
      <trkpt lat="42.35787" lon="1.46233">
        <ele>704.32</ele>
        <time>2024-09-27T08:45:12.999Z</time>
      </trkpt>
      <trkpt lat="42.35767" lon="1.46234">
        <ele>704.15</ele>
        <time>2024-09-27T08:45:17.999Z</time>
      </trkpt>
      <trkpt lat="42.35747" lon="1.46234">
        <ele>703.23</ele>
        <time>2024-09-27T08:45:22.999Z</time>
      </trkpt>
      <trkpt lat="42.35728" lon="1.46234">
        <ele>703</ele>
        <time>2024-09-27T08:45:27.999Z</time>
      </trkpt>
      <trkpt lat="42.35717" lon="1.46225">
        <ele>702.93</ele>
        <time>2024-09-27T08:45:32.999Z</time>
      </trkpt>
      <trkpt lat="42.35705" lon="1.46223">
        <ele>702.87</ele>
        <time>2024-09-27T08:45:37.999Z</time>
      </trkpt>
      <trkpt lat="42.35695" lon="1.46219">
        <ele>702.81</ele>
        <time>2024-09-27T08:45:42.999Z</time>
      </trkpt>
      <trkpt lat="42.35684" lon="1.46212">
        <ele>702.67</ele>
        <time>2024-09-27T08:45:47.999Z</time>
      </trkpt>
      <trkpt lat="42.35672" lon="1.46208">
        <ele>702.48</ele>
        <time>2024-09-27T08:45:52.999Z</time>
      </trkpt>
      <trkpt lat="42.35663" lon="1.46208">
        <ele>702.25</ele>
        <time>2024-09-27T08:46:00.999Z</time>
      </trkpt>
      <trkpt lat="42.35652" lon="1.46204">
        <ele>702.27</ele>
        <time>2024-09-27T08:46:18.999Z</time>
      </trkpt>
      <trkpt lat="42.3564" lon="1.46198">
        <ele>702.44</ele>
        <time>2024-09-27T08:46:23.999Z</time>
      </trkpt>
      <trkpt lat="42.35626" lon="1.46192">
        <ele>702.58</ele>
        <time>2024-09-27T08:46:28.999Z</time>
      </trkpt>
      <trkpt lat="42.35611" lon="1.46184">
        <ele>702.7</ele>
        <time>2024-09-27T08:46:33.999Z</time>
      </trkpt>
      <trkpt lat="42.35598" lon="1.4618">
        <ele>702.8</ele>
        <time>2024-09-27T08:46:38.999Z</time>
      </trkpt>
      <trkpt lat="42.356" lon="1.46167">
        <ele>702.86</ele>
        <time>2024-09-27T08:46:44.999Z</time>
      </trkpt>
      <trkpt lat="42.35592" lon="1.4616">
        <ele>702.95</ele>
        <time>2024-09-27T08:46:52.999Z</time>
      </trkpt>
      <trkpt lat="42.3558" lon="1.46167">
        <ele>703.05</ele>
        <time>2024-09-27T08:46:57.999Z</time>
      </trkpt>
      <trkpt lat="42.35568" lon="1.46164">
        <ele>703.13</ele>
        <time>2024-09-27T08:47:02.999Z</time>
      </trkpt>
      <trkpt lat="42.35565" lon="1.46146">
        <ele>703.17</ele>
        <time>2024-09-27T08:47:07.999Z</time>
      </trkpt>
      <trkpt lat="42.3556" lon="1.46134">
        <ele>703.15</ele>
        <time>2024-09-27T08:47:13.999Z</time>
      </trkpt>
      <trkpt lat="42.35554" lon="1.46122">
        <ele>703.16</ele>
        <time>2024-09-27T08:47:18.999Z</time>
      </trkpt>
      <trkpt lat="42.35547" lon="1.46114">
        <ele>703.42</ele>
        <time>2024-09-27T08:47:32.999Z</time>
      </trkpt>
      <trkpt lat="42.35544" lon="1.46101">
        <ele>703.72</ele>
        <time>2024-09-27T08:47:40.999Z</time>
      </trkpt>
      <trkpt lat="42.35541" lon="1.46085">
        <ele>703.92</ele>
        <time>2024-09-27T08:47:45.999Z</time>
      </trkpt>
      <trkpt lat="42.3554" lon="1.46069">
        <ele>704.1</ele>
        <time>2024-09-27T08:47:50.999Z</time>
      </trkpt>
      <trkpt lat="42.35539" lon="1.46054">
        <ele>704.27</ele>
        <time>2024-09-27T08:47:55.999Z</time>
      </trkpt>
      <trkpt lat="42.35541" lon="1.46042">
        <ele>704.47</ele>
        <time>2024-09-27T08:48:02.999Z</time>
      </trkpt>
      <trkpt lat="42.35539" lon="1.46028">
        <ele>704.64</ele>
        <time>2024-09-27T08:48:08.999Z</time>
      </trkpt>
      <trkpt lat="42.3553" lon="1.46022">
        <ele>704.88</ele>
        <time>2024-09-27T08:48:14.999Z</time>
      </trkpt>
      <trkpt lat="42.35518" lon="1.46023">
        <ele>705.08</ele>
        <time>2024-09-27T08:48:19.999Z</time>
      </trkpt>
      <trkpt lat="42.35505" lon="1.4603">
        <ele>705.25</ele>
        <time>2024-09-27T08:48:24.999Z</time>
      </trkpt>
      <trkpt lat="42.35486" lon="1.46035">
        <ele>705.41</ele>
        <time>2024-09-27T08:48:29.999Z</time>
      </trkpt>
      <trkpt lat="42.35483" lon="1.4605">
        <ele>705.56</ele>
        <time>2024-09-27T08:48:34.999Z</time>
      </trkpt>
      <trkpt lat="42.35482" lon="1.46066">
        <ele>705.68</ele>
        <time>2024-09-27T08:48:39.999Z</time>
      </trkpt>
      <trkpt lat="42.35471" lon="1.46075">
        <ele>705.76</ele>
        <time>2024-09-27T08:48:45.000Z</time>
      </trkpt>
      <trkpt lat="42.35452" lon="1.46084">
        <ele>705.87</ele>
        <time>2024-09-27T08:48:50.000Z</time>
      </trkpt>
      <trkpt lat="42.35428" lon="1.46093">
        <ele>705.88</ele>
        <time>2024-09-27T08:48:55.000Z</time>
      </trkpt>
      <trkpt lat="42.35409" lon="1.46092">
        <ele>705.78</ele>
        <time>2024-09-27T08:49:00.000Z</time>
      </trkpt>
      <trkpt lat="42.35382" lon="1.46088">
        <ele>705.53</ele>
        <time>2024-09-27T08:49:05.000Z</time>
      </trkpt>
      <trkpt lat="42.35359" lon="1.46075">
        <ele>704.5</ele>
        <time>2024-09-27T08:49:10.000Z</time>
      </trkpt>
      <trkpt lat="42.35339" lon="1.46052">
        <ele>703.55</ele>
        <time>2024-09-27T08:49:15.000Z</time>
      </trkpt>
      <trkpt lat="42.35321" lon="1.46032">
        <ele>702.93</ele>
        <time>2024-09-27T08:49:20.000Z</time>
      </trkpt>
      <trkpt lat="42.35301" lon="1.46">
        <ele>702.26</ele>
        <time>2024-09-27T08:49:25.000Z</time>
      </trkpt>
      <trkpt lat="42.35285" lon="1.45974">
        <ele>701.54</ele>
        <time>2024-09-27T08:49:30.000Z</time>
      </trkpt>
      <trkpt lat="42.35267" lon="1.45959">
        <ele>701.21</ele>
        <time>2024-09-27T08:49:35.000Z</time>
      </trkpt>
      <trkpt lat="42.35253" lon="1.45973">
        <ele>700.61</ele>
        <time>2024-09-27T08:49:40.000Z</time>
      </trkpt>
      <trkpt lat="42.35238" lon="1.4599">
        <ele>699.92</ele>
        <time>2024-09-27T08:49:45.000Z</time>
      </trkpt>
      <trkpt lat="42.35224" lon="1.46003">
        <ele>699.76</ele>
        <time>2024-09-27T08:49:50.000Z</time>
      </trkpt>
      <trkpt lat="42.35211" lon="1.46005">
        <ele>699.59</ele>
        <time>2024-09-27T08:49:55.000Z</time>
      </trkpt>
      <trkpt lat="42.35204" lon="1.45994">
        <ele>699.38</ele>
        <time>2024-09-27T08:50:07.000Z</time>
      </trkpt>
      <trkpt lat="42.352" lon="1.45983">
        <ele>699.17</ele>
        <time>2024-09-27T08:51:01.000Z</time>
      </trkpt>
      <trkpt lat="42.35206" lon="1.45992">
        <ele>698.86</ele>
        <time>2024-09-27T08:52:52.000Z</time>
      </trkpt>
      <trkpt lat="42.35212" lon="1.46002">
        <ele>696.69</ele>
        <time>2024-09-27T08:58:04.000Z</time>
      </trkpt>
      <trkpt lat="42.35226" lon="1.45997">
        <ele>696.68</ele>
        <time>2024-09-27T08:58:09.000Z</time>
      </trkpt>
      <trkpt lat="42.35242" lon="1.45982">
        <ele>696.62</ele>
        <time>2024-09-27T08:58:14.000Z</time>
      </trkpt>
      <trkpt lat="42.35259" lon="1.45962">
        <ele>696.66</ele>
        <time>2024-09-27T08:58:19.000Z</time>
      </trkpt>
      <trkpt lat="42.35263" lon="1.45934">
        <ele>696.74</ele>
        <time>2024-09-27T08:58:24.000Z</time>
      </trkpt>
      <trkpt lat="42.35254" lon="1.45906">
        <ele>696.79</ele>
        <time>2024-09-27T08:58:29.000Z</time>
      </trkpt>
      <trkpt lat="42.35251" lon="1.45894">
        <ele>696.74</ele>
        <time>2024-09-27T08:58:56.000Z</time>
      </trkpt>
      <trkpt lat="42.35245" lon="1.45878">
        <ele>696.7</ele>
        <time>2024-09-27T08:59:01.000Z</time>
      </trkpt>
      <trkpt lat="42.35238" lon="1.4586">
        <ele>696.66</ele>
        <time>2024-09-27T08:59:06.000Z</time>
      </trkpt>
      <trkpt lat="42.35231" lon="1.45841">
        <ele>696.62</ele>
        <time>2024-09-27T08:59:11.000Z</time>
      </trkpt>
      <trkpt lat="42.35225" lon="1.45825">
        <ele>696.58</ele>
        <time>2024-09-27T08:59:16.000Z</time>
      </trkpt>
      <trkpt lat="42.3522" lon="1.45813">
        <ele>696.55</ele>
        <time>2024-09-27T08:59:21.000Z</time>
      </trkpt>
      <trkpt lat="42.35215" lon="1.458">
        <ele>696.53</ele>
        <time>2024-09-27T08:59:26.000Z</time>
      </trkpt>
      <trkpt lat="42.35213" lon="1.45784">
        <ele>696.52</ele>
        <time>2024-09-27T08:59:31.000Z</time>
      </trkpt>
      <trkpt lat="42.35214" lon="1.45767">
        <ele>696.52</ele>
        <time>2024-09-27T08:59:36.000Z</time>
      </trkpt>
      <trkpt lat="42.35217" lon="1.45753">
        <ele>696.54</ele>
        <time>2024-09-27T08:59:41.000Z</time>
      </trkpt>
      <trkpt lat="42.35224" lon="1.45737">
        <ele>696.57</ele>
        <time>2024-09-27T08:59:46.000Z</time>
      </trkpt>
      <trkpt lat="42.35232" lon="1.4572">
        <ele>696.6</ele>
        <time>2024-09-27T08:59:51.000Z</time>
      </trkpt>
      <trkpt lat="42.3524" lon="1.45701">
        <ele>696.65</ele>
        <time>2024-09-27T08:59:56.000Z</time>
      </trkpt>
      <trkpt lat="42.35248" lon="1.45685">
        <ele>696.7</ele>
        <time>2024-09-27T09:00:01.000Z</time>
      </trkpt>
      <trkpt lat="42.35259" lon="1.45666">
        <ele>696.74</ele>
        <time>2024-09-27T09:00:06.000Z</time>
      </trkpt>
      <trkpt lat="42.35268" lon="1.45647">
        <ele>696.79</ele>
        <time>2024-09-27T09:00:11.000Z</time>
      </trkpt>
      <trkpt lat="42.35277" lon="1.45627">
        <ele>696.84</ele>
        <time>2024-09-27T09:00:16.000Z</time>
      </trkpt>
      <trkpt lat="42.35288" lon="1.45606">
        <ele>696.89</ele>
        <time>2024-09-27T09:00:21.000Z</time>
      </trkpt>
      <trkpt lat="42.35304" lon="1.45595">
        <ele>697.14</ele>
        <time>2024-09-27T09:00:26.000Z</time>
      </trkpt>
      <trkpt lat="42.35315" lon="1.45581">
        <ele>697.26</ele>
        <time>2024-09-27T09:00:31.000Z</time>
      </trkpt>
      <trkpt lat="42.35312" lon="1.45558">
        <ele>697.4</ele>
        <time>2024-09-27T09:00:36.000Z</time>
      </trkpt>
      <trkpt lat="42.35313" lon="1.45528">
        <ele>698.51</ele>
        <time>2024-09-27T09:00:41.000Z</time>
      </trkpt>
      <trkpt lat="42.35309" lon="1.45494">
        <ele>698.82</ele>
        <time>2024-09-27T09:00:46.000Z</time>
      </trkpt>
      <trkpt lat="42.35304" lon="1.45455">
        <ele>698.79</ele>
        <time>2024-09-27T09:00:51.999Z</time>
      </trkpt>
      <trkpt lat="42.35303" lon="1.45426">
        <ele>698.74</ele>
        <time>2024-09-27T09:00:56.999Z</time>
      </trkpt>
      <trkpt lat="42.35325" lon="1.4542">
        <ele>698.91</ele>
        <time>2024-09-27T09:01:01.999Z</time>
      </trkpt>
      <trkpt lat="42.35347" lon="1.45415">
        <ele>699.01</ele>
        <time>2024-09-27T09:01:06.999Z</time>
      </trkpt>
      <trkpt lat="42.35367" lon="1.4541">
        <ele>699.11</ele>
        <time>2024-09-27T09:01:11.999Z</time>
      </trkpt>
      <trkpt lat="42.35388" lon="1.45406">
        <ele>699.26</ele>
        <time>2024-09-27T09:01:16.999Z</time>
      </trkpt>
      <trkpt lat="42.35409" lon="1.45401">
        <ele>699.44</ele>
        <time>2024-09-27T09:01:21.999Z</time>
      </trkpt>
      <trkpt lat="42.35432" lon="1.45396">
        <ele>699.71</ele>
        <time>2024-09-27T09:01:26.999Z</time>
      </trkpt>
      <trkpt lat="42.35455" lon="1.4539">
        <ele>700.01</ele>
        <time>2024-09-27T09:01:31.999Z</time>
      </trkpt>
      <trkpt lat="42.35477" lon="1.45386">
        <ele>700.3</ele>
        <time>2024-09-27T09:01:36.999Z</time>
      </trkpt>
      <trkpt lat="42.35501" lon="1.4538">
        <ele>700.52</ele>
        <time>2024-09-27T09:01:41.999Z</time>
      </trkpt>
      <trkpt lat="42.35524" lon="1.45375">
        <ele>700.73</ele>
        <time>2024-09-27T09:01:46.999Z</time>
      </trkpt>
      <trkpt lat="42.35547" lon="1.4537">
        <ele>700.93</ele>
        <time>2024-09-27T09:01:51.999Z</time>
      </trkpt>
      <trkpt lat="42.35565" lon="1.45376">
        <ele>701.11</ele>
        <time>2024-09-27T09:01:56.999Z</time>
      </trkpt>
      <trkpt lat="42.35568" lon="1.45405">
        <ele>701.51</ele>
        <time>2024-09-27T09:02:01.999Z</time>
      </trkpt>
      <trkpt lat="42.3557" lon="1.45436">
        <ele>701.78</ele>
        <time>2024-09-27T09:02:06.999Z</time>
      </trkpt>
      <trkpt lat="42.35574" lon="1.45465">
        <ele>701.99</ele>
        <time>2024-09-27T09:02:11.999Z</time>
      </trkpt>
      <trkpt lat="42.35577" lon="1.45491">
        <ele>702.1</ele>
        <time>2024-09-27T09:02:16.999Z</time>
      </trkpt>
      <trkpt lat="42.35578" lon="1.4552">
        <ele>702.2</ele>
        <time>2024-09-27T09:02:21.999Z</time>
      </trkpt>
      <trkpt lat="42.3558" lon="1.45547">
        <ele>702.21</ele>
        <time>2024-09-27T09:02:26.999Z</time>
      </trkpt>
      <trkpt lat="42.35584" lon="1.4557">
        <ele>702.19</ele>
        <time>2024-09-27T09:02:31.999Z</time>
      </trkpt>
      <trkpt lat="42.35586" lon="1.45586">
        <ele>702.21</ele>
        <time>2024-09-27T09:02:36.999Z</time>
      </trkpt>
      <trkpt lat="42.35591" lon="1.45597">
        <ele>702.29</ele>
        <time>2024-09-27T09:02:45.999Z</time>
      </trkpt>
      <trkpt lat="42.35608" lon="1.45591">
        <ele>702.54</ele>
        <time>2024-09-27T09:02:50.999Z</time>
      </trkpt>
      <trkpt lat="42.35619" lon="1.45588">
        <ele>703.79</ele>
        <time>2024-09-27T09:03:30.999Z</time>
      </trkpt>
      <trkpt lat="42.35634" lon="1.45586">
        <ele>704.24</ele>
        <time>2024-09-27T09:03:35.999Z</time>
      </trkpt>
      <trkpt lat="42.3565" lon="1.45583">
        <ele>704.68</ele>
        <time>2024-09-27T09:03:40.999Z</time>
      </trkpt>
      <trkpt lat="42.35664" lon="1.45578">
        <ele>705.09</ele>
        <time>2024-09-27T09:03:45.999Z</time>
      </trkpt>
      <trkpt lat="42.35676" lon="1.45572">
        <ele>705.5</ele>
        <time>2024-09-27T09:03:50.999Z</time>
      </trkpt>
      <trkpt lat="42.35684" lon="1.45561">
        <ele>705.86</ele>
        <time>2024-09-27T09:03:55.999Z</time>
      </trkpt>
      <trkpt lat="42.35696" lon="1.45561">
        <ele>707.48</ele>
        <time>2024-09-27T09:05:09.999Z</time>
      </trkpt>
      <trkpt lat="42.3569" lon="1.45571">
        <ele>708.16</ele>
        <time>2024-09-27T09:05:17.999Z</time>
      </trkpt>
      <trkpt lat="42.35686" lon="1.45559">
        <ele>708.75</ele>
        <time>2024-09-27T09:05:29.999Z</time>
      </trkpt>
      <trkpt lat="42.35686" lon="1.45543">
        <ele>709.02</ele>
        <time>2024-09-27T09:05:34.999Z</time>
      </trkpt>
      <trkpt lat="42.35688" lon="1.45524">
        <ele>709.27</ele>
        <time>2024-09-27T09:05:39.999Z</time>
      </trkpt>
      <trkpt lat="42.35688" lon="1.45506">
        <ele>709.49</ele>
        <time>2024-09-27T09:05:44.999Z</time>
      </trkpt>
      <trkpt lat="42.35687" lon="1.45489">
        <ele>709.7</ele>
        <time>2024-09-27T09:05:49.999Z</time>
      </trkpt>
      <trkpt lat="42.35689" lon="1.45475">
        <ele>709.88</ele>
        <time>2024-09-27T09:05:54.999Z</time>
      </trkpt>
      <trkpt lat="42.35698" lon="1.45458">
        <ele>710.28</ele>
        <time>2024-09-27T09:05:59.999Z</time>
      </trkpt>
      <trkpt lat="42.35691" lon="1.45433">
        <ele>711.3</ele>
        <time>2024-09-27T09:06:04.999Z</time>
      </trkpt>
      <trkpt lat="42.3569" lon="1.45406">
        <ele>711.65</ele>
        <time>2024-09-27T09:06:09.999Z</time>
      </trkpt>
      <trkpt lat="42.35691" lon="1.45381">
        <ele>711.6</ele>
        <time>2024-09-27T09:06:14.999Z</time>
      </trkpt>
      <trkpt lat="42.35692" lon="1.45354">
        <ele>711.6</ele>
        <time>2024-09-27T09:06:19.999Z</time>
      </trkpt>
      <trkpt lat="42.35694" lon="1.45327">
        <ele>711.65</ele>
        <time>2024-09-27T09:06:24.999Z</time>
      </trkpt>
      <trkpt lat="42.35695" lon="1.45298">
        <ele>711.65</ele>
        <time>2024-09-27T09:06:29.999Z</time>
      </trkpt>
      <trkpt lat="42.35694" lon="1.45268">
        <ele>711.68</ele>
        <time>2024-09-27T09:06:34.999Z</time>
      </trkpt>
      <trkpt lat="42.35696" lon="1.45243">
        <ele>711.68</ele>
        <time>2024-09-27T09:06:39.999Z</time>
      </trkpt>
      <trkpt lat="42.35697" lon="1.45214">
        <ele>711.77</ele>
        <time>2024-09-27T09:06:44.999Z</time>
      </trkpt>
      <trkpt lat="42.35697" lon="1.45185">
        <ele>712.06</ele>
        <time>2024-09-27T09:06:49.999Z</time>
      </trkpt>
      <trkpt lat="42.35698" lon="1.45157">
        <ele>712.24</ele>
        <time>2024-09-27T09:06:54.999Z</time>
      </trkpt>
      <trkpt lat="42.35708" lon="1.45137">
        <ele>712.3</ele>
        <time>2024-09-27T09:06:59.999Z</time>
      </trkpt>
      <trkpt lat="42.35701" lon="1.45107">
        <ele>712.31</ele>
        <time>2024-09-27T09:07:04.999Z</time>
      </trkpt>
      <trkpt lat="42.35704" lon="1.45055">
        <ele>711.68</ele>
        <time>2024-09-27T09:07:09.999Z</time>
      </trkpt>
      <trkpt lat="42.35705" lon="1.44996">
        <ele>711.03</ele>
        <time>2024-09-27T09:07:14.999Z</time>
      </trkpt>
      <trkpt lat="42.35705" lon="1.44942">
        <ele>710.64</ele>
        <time>2024-09-27T09:07:19.999Z</time>
      </trkpt>
      <trkpt lat="42.35706" lon="1.44898">
        <ele>710.77</ele>
        <time>2024-09-27T09:07:24.999Z</time>
      </trkpt>
      <trkpt lat="42.35708" lon="1.44866">
        <ele>710.87</ele>
        <time>2024-09-27T09:07:29.999Z</time>
      </trkpt>
      <trkpt lat="42.35708" lon="1.44844">
        <ele>710.91</ele>
        <time>2024-09-27T09:07:34.999Z</time>
      </trkpt>
      <trkpt lat="42.35703" lon="1.44831">
        <ele>710.95</ele>
        <time>2024-09-27T09:07:39.999Z</time>
      </trkpt>
      <trkpt lat="42.35694" lon="1.44827">
        <ele>711.04</ele>
        <time>2024-09-27T09:07:44.999Z</time>
      </trkpt>
      <trkpt lat="42.35684" lon="1.44826">
        <ele>711.27</ele>
        <time>2024-09-27T09:07:50.999Z</time>
      </trkpt>
      <trkpt lat="42.35674" lon="1.44823">
        <ele>711.64</ele>
        <time>2024-09-27T09:07:56.999Z</time>
      </trkpt>
      <trkpt lat="42.35667" lon="1.44813">
        <ele>712</ele>
        <time>2024-09-27T09:08:02.999Z</time>
      </trkpt>
      <trkpt lat="42.35663" lon="1.44801">
        <ele>712.3</ele>
        <time>2024-09-27T09:08:08.999Z</time>
      </trkpt>
      <trkpt lat="42.35665" lon="1.44787">
        <ele>712.53</ele>
        <time>2024-09-27T09:08:14.999Z</time>
      </trkpt>
      <trkpt lat="42.3567" lon="1.44774">
        <ele>712.79</ele>
        <time>2024-09-27T09:08:20.999Z</time>
      </trkpt>
      <trkpt lat="42.35676" lon="1.44763">
        <ele>712.91</ele>
        <time>2024-09-27T09:08:26.999Z</time>
      </trkpt>
      <trkpt lat="42.35681" lon="1.44751">
        <ele>713.01</ele>
        <time>2024-09-27T09:08:32.999Z</time>
      </trkpt>
      <trkpt lat="42.35686" lon="1.44739">
        <ele>713.19</ele>
        <time>2024-09-27T09:08:38.999Z</time>
      </trkpt>
      <trkpt lat="42.3569" lon="1.44728">
        <ele>713.39</ele>
        <time>2024-09-27T09:08:43.999Z</time>
      </trkpt>
      <trkpt lat="42.35696" lon="1.44717">
        <ele>713.62</ele>
        <time>2024-09-27T09:08:48.999Z</time>
      </trkpt>
      <trkpt lat="42.35701" lon="1.44706">
        <ele>713.87</ele>
        <time>2024-09-27T09:08:53.999Z</time>
      </trkpt>
      <trkpt lat="42.35701" lon="1.44694">
        <ele>714.14</ele>
        <time>2024-09-27T09:08:58.999Z</time>
      </trkpt>
      <trkpt lat="42.35701" lon="1.44679">
        <ele>714.43</ele>
        <time>2024-09-27T09:09:03.999Z</time>
      </trkpt>
      <trkpt lat="42.35701" lon="1.44667">
        <ele>714.77</ele>
        <time>2024-09-27T09:09:09.999Z</time>
      </trkpt>
      <trkpt lat="42.35698" lon="1.44654">
        <ele>715.14</ele>
        <time>2024-09-27T09:09:16.999Z</time>
      </trkpt>
      <trkpt lat="42.35697" lon="1.44642">
        <ele>715.42</ele>
        <time>2024-09-27T09:09:22.999Z</time>
      </trkpt>
      <trkpt lat="42.35693" lon="1.44629">
        <ele>715.71</ele>
        <time>2024-09-27T09:09:29.999Z</time>
      </trkpt>
      <trkpt lat="42.35692" lon="1.44616">
        <ele>715.96</ele>
        <time>2024-09-27T09:09:35.999Z</time>
      </trkpt>
      <trkpt lat="42.35689" lon="1.44602">
        <ele>716.24</ele>
        <time>2024-09-27T09:09:42.999Z</time>
      </trkpt>
      <trkpt lat="42.35688" lon="1.4459">
        <ele>716.5</ele>
        <time>2024-09-27T09:09:48.999Z</time>
      </trkpt>
      <trkpt lat="42.35689" lon="1.44576">
        <ele>716.8</ele>
        <time>2024-09-27T09:09:55.999Z</time>
      </trkpt>
      <trkpt lat="42.35688" lon="1.44562">
        <ele>717.08</ele>
        <time>2024-09-27T09:10:02.999Z</time>
      </trkpt>
      <trkpt lat="42.35685" lon="1.4455">
        <ele>717.33</ele>
        <time>2024-09-27T09:10:08.999Z</time>
      </trkpt>
      <trkpt lat="42.3568" lon="1.44539">
        <ele>717.58</ele>
        <time>2024-09-27T09:10:14.999Z</time>
      </trkpt>
      <trkpt lat="42.35673" lon="1.44529">
        <ele>717.88</ele>
        <time>2024-09-27T09:10:21.999Z</time>
      </trkpt>
      <trkpt lat="42.35666" lon="1.44519">
        <ele>718.2</ele>
        <time>2024-09-27T09:10:28.999Z</time>
      </trkpt>
      <trkpt lat="42.3566" lon="1.44507">
        <ele>718.54</ele>
        <time>2024-09-27T09:10:35.999Z</time>
      </trkpt>
      <trkpt lat="42.35654" lon="1.44496">
        <ele>718.8</ele>
        <time>2024-09-27T09:10:40.999Z</time>
      </trkpt>
      <trkpt lat="42.35647" lon="1.44481">
        <ele>719.05</ele>
        <time>2024-09-27T09:10:45.999Z</time>
      </trkpt>
      <trkpt lat="42.35641" lon="1.44463">
        <ele>719.34</ele>
        <time>2024-09-27T09:10:50.999Z</time>
      </trkpt>
      <trkpt lat="42.35631" lon="1.44451">
        <ele>719.69</ele>
        <time>2024-09-27T09:10:55.999Z</time>
      </trkpt>
      <trkpt lat="42.35625" lon="1.44439">
        <ele>720.05</ele>
        <time>2024-09-27T09:11:00.999Z</time>
      </trkpt>
      <trkpt lat="42.35613" lon="1.44431">
        <ele>720.44</ele>
        <time>2024-09-27T09:11:05.999Z</time>
      </trkpt>
      <trkpt lat="42.35603" lon="1.44424">
        <ele>720.78</ele>
        <time>2024-09-27T09:11:10.999Z</time>
      </trkpt>
      <trkpt lat="42.35602" lon="1.44411">
        <ele>721.9</ele>
        <time>2024-09-27T09:11:48.999Z</time>
      </trkpt>
      <trkpt lat="42.35605" lon="1.444">
        <ele>722.47</ele>
        <time>2024-09-27T09:11:54.999Z</time>
      </trkpt>
      <trkpt lat="42.35606" lon="1.44387">
        <ele>722.94</ele>
        <time>2024-09-27T09:11:59.999Z</time>
      </trkpt>
      <trkpt lat="42.356" lon="1.44373">
        <ele>723.39</ele>
        <time>2024-09-27T09:12:04.999Z</time>
      </trkpt>
      <trkpt lat="42.35593" lon="1.44365">
        <ele>723.81</ele>
        <time>2024-09-27T09:12:09.999Z</time>
      </trkpt>
      <trkpt lat="42.3559" lon="1.44377">
        <ele>725.41</ele>
        <time>2024-09-27T09:12:52.999Z</time>
      </trkpt>
      <trkpt lat="42.35601" lon="1.44378">
        <ele>725.93</ele>
        <time>2024-09-27T09:13:07.000Z</time>
      </trkpt>
      <trkpt lat="42.35606" lon="1.44359">
        <ele>727.47</ele>
        <time>2024-09-27T09:13:12.000Z</time>
      </trkpt>
      <trkpt lat="42.35616" lon="1.44329">
        <ele>728.59</ele>
        <time>2024-09-27T09:13:17.000Z</time>
      </trkpt>
      <trkpt lat="42.35622" lon="1.44309">
        <ele>728.74</ele>
        <time>2024-09-27T09:13:22.000Z</time>
      </trkpt>
      <trkpt lat="42.35626" lon="1.44298">
        <ele>728.88</ele>
        <time>2024-09-27T09:13:34.000Z</time>
      </trkpt>
      <trkpt lat="42.35628" lon="1.44286">
        <ele>729.23</ele>
        <time>2024-09-27T09:14:01.000Z</time>
      </trkpt>
      <trkpt lat="42.35618" lon="1.44258">
        <ele>730.39</ele>
        <time>2024-09-27T09:14:06.000Z</time>
      </trkpt>
      <trkpt lat="42.35603" lon="1.44231">
        <ele>730.19</ele>
        <time>2024-09-27T09:14:11.000Z</time>
      </trkpt>
      <trkpt lat="42.35582" lon="1.442">
        <ele>728.91</ele>
        <time>2024-09-27T09:14:16.000Z</time>
      </trkpt>
      <trkpt lat="42.35566" lon="1.44176">
        <ele>727.87</ele>
        <time>2024-09-27T09:14:21.000Z</time>
      </trkpt>
      <trkpt lat="42.35553" lon="1.44164">
        <ele>727.79</ele>
        <time>2024-09-27T09:14:26.000Z</time>
      </trkpt>
      <trkpt lat="42.35543" lon="1.44149">
        <ele>727.83</ele>
        <time>2024-09-27T09:14:31.000Z</time>
      </trkpt>
      <trkpt lat="42.35535" lon="1.44135">
        <ele>727.89</ele>
        <time>2024-09-27T09:14:36.000Z</time>
      </trkpt>
      <trkpt lat="42.3553" lon="1.44123">
        <ele>727.89</ele>
        <time>2024-09-27T09:14:41.000Z</time>
      </trkpt>
      <trkpt lat="42.35532" lon="1.44135">
        <ele>725.76</ele>
        <time>2024-09-27T09:16:23.000Z</time>
      </trkpt>
      <trkpt lat="42.35522" lon="1.44147">
        <ele>723.48</ele>
        <time>2024-09-27T09:16:54.000Z</time>
      </trkpt>
      <trkpt lat="42.3553" lon="1.44141">
        <ele>723.38</ele>
        <time>2024-09-27T09:17:00.000Z</time>
      </trkpt>
      <trkpt lat="42.35523" lon="1.44129">
        <ele>723.37</ele>
        <time>2024-09-27T09:17:05.000Z</time>
      </trkpt>
      <trkpt lat="42.3553" lon="1.44144">
        <ele>723.33</ele>
        <time>2024-09-27T09:17:10.000Z</time>
      </trkpt>
      <trkpt lat="42.35527" lon="1.44122">
        <ele>723.15</ele>
        <time>2024-09-27T09:17:24.000Z</time>
      </trkpt>
      <trkpt lat="42.3552" lon="1.44104">
        <ele>722.97</ele>
        <time>2024-09-27T09:17:29.000Z</time>
      </trkpt>
      <trkpt lat="42.35529" lon="1.44116">
        <ele>722.7</ele>
        <time>2024-09-27T09:17:35.000Z</time>
      </trkpt>
      <trkpt lat="42.35537" lon="1.44097">
        <ele>722.66</ele>
        <time>2024-09-27T09:17:40.000Z</time>
      </trkpt>
      <trkpt lat="42.35536" lon="1.44114">
        <ele>722.64</ele>
        <time>2024-09-27T09:17:46.000Z</time>
      </trkpt>
      <trkpt lat="42.35541" lon="1.441">
        <ele>722.39</ele>
        <time>2024-09-27T09:17:56.000Z</time>
      </trkpt>
      <trkpt lat="42.35569" lon="1.44111">
        <ele>722.28</ele>
        <time>2024-09-27T09:23:42.000Z</time>
      </trkpt>
      <trkpt lat="42.35557" lon="1.44111">
        <ele>722.73</ele>
        <time>2024-09-27T09:23:52.000Z</time>
      </trkpt>
      <trkpt lat="42.35549" lon="1.44118">
        <ele>722.4</ele>
        <time>2024-09-27T09:24:05.000Z</time>
      </trkpt>
      <trkpt lat="42.35519" lon="1.44149">
        <ele>721.64</ele>
        <time>2024-09-27T09:24:51.000Z</time>
      </trkpt>
      <trkpt lat="42.35507" lon="1.44161">
        <ele>721.36</ele>
        <time>2024-09-27T09:25:00.999Z</time>
      </trkpt>
      <trkpt lat="42.35517" lon="1.44155">
        <ele>721.35</ele>
        <time>2024-09-27T09:25:12.999Z</time>
      </trkpt>
      <trkpt lat="42.35506" lon="1.44129">
        <ele>721.41</ele>
        <time>2024-09-27T09:32:57.999Z</time>
      </trkpt>
      <trkpt lat="42.35518" lon="1.44122">
        <ele>721.33</ele>
        <time>2024-09-27T09:33:02.999Z</time>
      </trkpt>
      <trkpt lat="42.35525" lon="1.44137">
        <ele>721.5</ele>
        <time>2024-09-27T09:33:41.999Z</time>
      </trkpt>
      <trkpt lat="42.35519" lon="1.44125">
        <ele>720.24</ele>
        <time>2024-09-27T09:36:35.999Z</time>
      </trkpt>
      <trkpt lat="42.35529" lon="1.44125">
        <ele>720.55</ele>
        <time>2024-09-27T09:36:42.000Z</time>
      </trkpt>
      <trkpt lat="42.35537" lon="1.4412">
        <ele>719.96</ele>
        <time>2024-09-27T09:37:38.000Z</time>
      </trkpt>
      <trkpt lat="42.35532" lon="1.44139">
        <ele>720.08</ele>
        <time>2024-09-27T09:38:41.000Z</time>
      </trkpt>
      <trkpt lat="42.35537" lon="1.44127">
        <ele>720.51</ele>
        <time>2024-09-27T09:39:09.000Z</time>
      </trkpt>
      <trkpt lat="42.35535" lon="1.44115">
        <ele>720.18</ele>
        <time>2024-09-27T09:39:26.000Z</time>
      </trkpt>
      <trkpt lat="42.3553" lon="1.44137">
        <ele>719.38</ele>
        <time>2024-09-27T09:40:23.000Z</time>
      </trkpt>
      <trkpt lat="42.35528" lon="1.44124">
        <ele>720.43</ele>
        <time>2024-09-27T09:41:09.000Z</time>
      </trkpt>
      <trkpt lat="42.35516" lon="1.44115">
        <ele>718.36</ele>
        <time>2024-09-27T09:44:17.000Z</time>
      </trkpt>
      <trkpt lat="42.35524" lon="1.44118">
        <ele>718.55</ele>
        <time>2024-09-27T09:46:23.000Z</time>
      </trkpt>
      <trkpt lat="42.35514" lon="1.44119">
        <ele>713.79</ele>
        <time>2024-09-27T09:48:02.000Z</time>
      </trkpt>
      <trkpt lat="42.35522" lon="1.44124">
        <ele>713.81</ele>
        <time>2024-09-27T09:48:12.999Z</time>
      </trkpt>
      <trkpt lat="42.35535" lon="1.44122">
        <ele>712.08</ele>
        <time>2024-09-27T09:55:55.999Z</time>
      </trkpt>
      <trkpt lat="42.35525" lon="1.44126">
        <ele>710.47</ele>
        <time>2024-09-27T09:56:52.999Z</time>
      </trkpt>
      <trkpt lat="42.35534" lon="1.44131">
        <ele>695.57</ele>
        <time>2024-09-27T09:58:52.999Z</time>
      </trkpt>
      <trkpt lat="42.35524" lon="1.44128">
        <ele>689.86</ele>
        <time>2024-09-27T09:59:48.999Z</time>
      </trkpt>
      <trkpt lat="42.35533" lon="1.44131">
        <ele>690.72</ele>
        <time>2024-09-27T10:01:53.000Z</time>
      </trkpt>
      <trkpt lat="42.35542" lon="1.44128">
        <ele>698.03</ele>
        <time>2024-09-27T10:03:48.000Z</time>
      </trkpt>
      <trkpt lat="42.35536" lon="1.44138">
        <ele>697.65</ele>
        <time>2024-09-27T10:06:13.000Z</time>
      </trkpt>
      <trkpt lat="42.35544" lon="1.44142">
        <ele>697.1</ele>
        <time>2024-09-27T10:07:05.000Z</time>
      </trkpt>
      <trkpt lat="42.35554" lon="1.44142">
        <ele>696.91</ele>
        <time>2024-09-27T10:07:25.000Z</time>
      </trkpt>
      <trkpt lat="42.35547" lon="1.44131">
        <ele>696.56</ele>
        <time>2024-09-27T10:07:53.000Z</time>
      </trkpt>
      <trkpt lat="42.35542" lon="1.4412">
        <ele>696.54</ele>
        <time>2024-09-27T10:08:02.000Z</time>
      </trkpt>
      <trkpt lat="42.35534" lon="1.44124">
        <ele>698.28</ele>
        <time>2024-09-27T10:09:34.000Z</time>
      </trkpt>
      <trkpt lat="42.35526" lon="1.44117">
        <ele>698.81</ele>
        <time>2024-09-27T10:10:03.000Z</time>
      </trkpt>
      <trkpt lat="42.35537" lon="1.44118">
        <ele>698.71</ele>
        <time>2024-09-27T10:10:12.000Z</time>
      </trkpt>
      <trkpt lat="42.35539" lon="1.4413">
        <ele>698.69</ele>
        <time>2024-09-27T10:10:37.000Z</time>
      </trkpt>
      <trkpt lat="42.3553" lon="1.4413">
        <ele>699.9</ele>
        <time>2024-09-27T10:13:08.999Z</time>
      </trkpt>
      <trkpt lat="42.35541" lon="1.44129">
        <ele>704.35</ele>
        <time>2024-09-27T10:14:26.999Z</time>
      </trkpt>
      <trkpt lat="42.35543" lon="1.44142">
        <ele>705.81</ele>
        <time>2024-09-27T10:15:16.999Z</time>
      </trkpt>
      <trkpt lat="42.35552" lon="1.44141">
        <ele>709.86</ele>
        <time>2024-09-27T10:16:23.999Z</time>
      </trkpt>
      <trkpt lat="42.35556" lon="1.44153">
        <ele>709.59</ele>
        <time>2024-09-27T10:16:28.999Z</time>
      </trkpt>
      <trkpt lat="42.35544" lon="1.4415">
        <ele>709.66</ele>
        <time>2024-09-27T10:16:54.999Z</time>
      </trkpt>
      <trkpt lat="42.35537" lon="1.44136">
        <ele>709.78</ele>
        <time>2024-09-27T10:17:02.999Z</time>
      </trkpt>
      <trkpt lat="42.35534" lon="1.44125">
        <ele>709.95</ele>
        <time>2024-09-27T10:17:15.999Z</time>
      </trkpt>
      <trkpt lat="42.35529" lon="1.44135">
        <ele>711.16</ele>
        <time>2024-09-27T10:18:33.999Z</time>
      </trkpt>
      <trkpt lat="42.35535" lon="1.44126">
        <ele>715.66</ele>
        <time>2024-09-27T10:20:43.999Z</time>
      </trkpt>
      <trkpt lat="42.35543" lon="1.44121">
        <ele>716.67</ele>
        <time>2024-09-27T10:21:22.999Z</time>
      </trkpt>
      <trkpt lat="42.35561" lon="1.44117">
        <ele>717.1</ele>
        <time>2024-09-27T10:21:44.999Z</time>
      </trkpt>
      <trkpt lat="42.35552" lon="1.44122">
        <ele>717.3</ele>
        <time>2024-09-27T10:21:55.999Z</time>
      </trkpt>
      <trkpt lat="42.3554" lon="1.4412">
        <ele>717.73</ele>
        <time>2024-09-27T10:22:46.999Z</time>
      </trkpt>
      <trkpt lat="42.35537" lon="1.4414">
        <ele>717.62</ele>
        <time>2024-09-27T10:23:04.999Z</time>
      </trkpt>
      <trkpt lat="42.35544" lon="1.44131">
        <ele>716.9</ele>
        <time>2024-09-27T10:23:50.000Z</time>
      </trkpt>
      <trkpt lat="42.35533" lon="1.44136">
        <ele>716.75</ele>
        <time>2024-09-27T10:24:13.000Z</time>
      </trkpt>
      <trkpt lat="42.35523" lon="1.44137">
        <ele>716.73</ele>
        <time>2024-09-27T10:24:18.000Z</time>
      </trkpt>
      <trkpt lat="42.35512" lon="1.44146">
        <ele>716.69</ele>
        <time>2024-09-27T10:25:09.000Z</time>
      </trkpt>
      <trkpt lat="42.35499" lon="1.44142">
        <ele>716.5</ele>
        <time>2024-09-27T10:25:23.000Z</time>
      </trkpt>
      <trkpt lat="42.35506" lon="1.44132">
        <ele>716.34</ele>
        <time>2024-09-27T10:25:32.000Z</time>
      </trkpt>
      <trkpt lat="42.35516" lon="1.44127">
        <ele>716.01</ele>
        <time>2024-09-27T10:25:51.000Z</time>
      </trkpt>
      <trkpt lat="42.35527" lon="1.44124">
        <ele>716.01</ele>
        <time>2024-09-27T10:26:00.000Z</time>
      </trkpt>
      <trkpt lat="42.35535" lon="1.44107">
        <ele>716.15</ele>
        <time>2024-09-27T10:26:27.000Z</time>
      </trkpt>
      <trkpt lat="42.35516" lon="1.44121">
        <ele>716.07</ele>
        <time>2024-09-27T10:26:58.000Z</time>
      </trkpt>
      <trkpt lat="42.35527" lon="1.44121">
        <ele>715.96</ele>
        <time>2024-09-27T10:27:32.000Z</time>
      </trkpt>
      <trkpt lat="42.35535" lon="1.44115">
        <ele>715.88</ele>
        <time>2024-09-27T10:28:19.000Z</time>
      </trkpt>
      <trkpt lat="42.35535" lon="1.44128">
        <ele>715.88</ele>
        <time>2024-09-27T10:28:27.000Z</time>
      </trkpt>
      <trkpt lat="42.35526" lon="1.44128">
        <ele>719.03</ele>
        <time>2024-09-27T10:36:00.999Z</time>
      </trkpt>
      <trkpt lat="42.35519" lon="1.44137">
        <ele>720.7</ele>
        <time>2024-09-27T10:37:14.999Z</time>
      </trkpt>
      <trkpt lat="42.35527" lon="1.44128">
        <ele>720.79</ele>
        <time>2024-09-27T10:37:34.999Z</time>
      </trkpt>
      <trkpt lat="42.35518" lon="1.44125">
        <ele>726.92</ele>
        <time>2024-09-27T10:44:58.999Z</time>
      </trkpt>
      <trkpt lat="42.35506" lon="1.44122">
        <ele>727.41</ele>
        <time>2024-09-27T10:45:40.999Z</time>
      </trkpt>
      <trkpt lat="42.35492" lon="1.44112">
        <ele>727.61</ele>
        <time>2024-09-27T10:45:45.999Z</time>
      </trkpt>
      <trkpt lat="42.35486" lon="1.441">
        <ele>727.83</ele>
        <time>2024-09-27T10:45:51.999Z</time>
      </trkpt>
      <trkpt lat="42.35478" lon="1.44087">
        <ele>727.98</ele>
        <time>2024-09-27T10:45:56.999Z</time>
      </trkpt>
      <trkpt lat="42.35466" lon="1.44072">
        <ele>728.3</ele>
        <time>2024-09-27T10:46:01.999Z</time>
      </trkpt>
      <trkpt lat="42.3545" lon="1.44062">
        <ele>728.44</ele>
        <time>2024-09-27T10:46:06.999Z</time>
      </trkpt>
      <trkpt lat="42.3543" lon="1.4405">
        <ele>728.59</ele>
        <time>2024-09-27T10:46:11.999Z</time>
      </trkpt>
      <trkpt lat="42.35411" lon="1.44039">
        <ele>728.51</ele>
        <time>2024-09-27T10:46:16.999Z</time>
      </trkpt>
      <trkpt lat="42.35394" lon="1.44029">
        <ele>728.38</ele>
        <time>2024-09-27T10:46:21.999Z</time>
      </trkpt>
      <trkpt lat="42.35381" lon="1.44016">
        <ele>728.33</ele>
        <time>2024-09-27T10:46:26.999Z</time>
      </trkpt>
      <trkpt lat="42.35368" lon="1.44006">
        <ele>728.26</ele>
        <time>2024-09-27T10:46:31.999Z</time>
      </trkpt>
      <trkpt lat="42.35355" lon="1.43997">
        <ele>728.18</ele>
        <time>2024-09-27T10:46:36.999Z</time>
      </trkpt>
      <trkpt lat="42.35341" lon="1.43987">
        <ele>728.07</ele>
        <time>2024-09-27T10:46:41.999Z</time>
      </trkpt>
      <trkpt lat="42.35328" lon="1.43977">
        <ele>727.96</ele>
        <time>2024-09-27T10:46:46.999Z</time>
      </trkpt>
      <trkpt lat="42.35315" lon="1.43967">
        <ele>727.84</ele>
        <time>2024-09-27T10:46:51.999Z</time>
      </trkpt>
      <trkpt lat="42.35304" lon="1.43958">
        <ele>727.7</ele>
        <time>2024-09-27T10:46:56.999Z</time>
      </trkpt>
      <trkpt lat="42.35295" lon="1.4395">
        <ele>727.52</ele>
        <time>2024-09-27T10:47:03.000Z</time>
      </trkpt>
      <trkpt lat="42.35287" lon="1.43943">
        <ele>726.22</ele>
        <time>2024-09-27T10:48:26.000Z</time>
      </trkpt>
      <trkpt lat="42.3528" lon="1.43935">
        <ele>725.86</ele>
        <time>2024-09-27T10:48:34.000Z</time>
      </trkpt>
      <trkpt lat="42.35273" lon="1.43942">
        <ele>721.21</ele>
        <time>2024-09-27T10:55:58.000Z</time>
      </trkpt>
      <trkpt lat="42.35273" lon="1.4393">
        <ele>719.65</ele>
        <time>2024-09-27T11:34:16.999Z</time>
      </trkpt>
      <trkpt lat="42.35272" lon="1.43918">
        <ele>720.48</ele>
        <time>2024-09-27T11:49:16.999Z</time>
      </trkpt>
      <trkpt lat="42.35274" lon="1.43929">
        <ele>720.53</ele>
        <time>2024-09-27T11:51:08.999Z</time>
      </trkpt>
      <trkpt lat="42.35283" lon="1.43938">
        <ele>720.45</ele>
        <time>2024-09-27T11:52:33.999Z</time>
      </trkpt>
      <trkpt lat="42.35294" lon="1.43948">
        <ele>720.42</ele>
        <time>2024-09-27T11:52:38.999Z</time>
      </trkpt>
      <trkpt lat="42.35309" lon="1.4396">
        <ele>720.35</ele>
        <time>2024-09-27T11:52:43.999Z</time>
      </trkpt>
      <trkpt lat="42.35326" lon="1.43974">
        <ele>720.16</ele>
        <time>2024-09-27T11:52:48.999Z</time>
      </trkpt>
      <trkpt lat="42.35341" lon="1.43985">
        <ele>720.14</ele>
        <time>2024-09-27T11:52:53.999Z</time>
      </trkpt>
      <trkpt lat="42.35356" lon="1.43997">
        <ele>720.12</ele>
        <time>2024-09-27T11:52:58.999Z</time>
      </trkpt>
      <trkpt lat="42.3537" lon="1.44008">
        <ele>720.1</ele>
        <time>2024-09-27T11:53:03.999Z</time>
      </trkpt>
      <trkpt lat="42.35386" lon="1.44021">
        <ele>720.07</ele>
        <time>2024-09-27T11:53:08.999Z</time>
      </trkpt>
      <trkpt lat="42.35404" lon="1.44032">
        <ele>719.86</ele>
        <time>2024-09-27T11:53:13.999Z</time>
      </trkpt>
      <trkpt lat="42.35422" lon="1.44043">
        <ele>719.75</ele>
        <time>2024-09-27T11:53:18.999Z</time>
      </trkpt>
      <trkpt lat="42.35438" lon="1.44055">
        <ele>719.69</ele>
        <time>2024-09-27T11:53:23.999Z</time>
      </trkpt>
      <trkpt lat="42.35453" lon="1.44065">
        <ele>719.66</ele>
        <time>2024-09-27T11:53:28.999Z</time>
      </trkpt>
      <trkpt lat="42.35463" lon="1.44073">
        <ele>719.62</ele>
        <time>2024-09-27T11:53:33.999Z</time>
      </trkpt>
      <trkpt lat="42.35469" lon="1.44083">
        <ele>719.59</ele>
        <time>2024-09-27T11:53:38.999Z</time>
      </trkpt>
      <trkpt lat="42.35476" lon="1.44094">
        <ele>719.56</ele>
        <time>2024-09-27T11:53:44.999Z</time>
      </trkpt>
      <trkpt lat="42.35481" lon="1.44105">
        <ele>719.53</ele>
        <time>2024-09-27T11:53:51.999Z</time>
      </trkpt>
      <trkpt lat="42.35489" lon="1.44118">
        <ele>719.47</ele>
        <time>2024-09-27T11:53:56.999Z</time>
      </trkpt>
      <trkpt lat="42.35505" lon="1.4413">
        <ele>719.39</ele>
        <time>2024-09-27T11:54:01.999Z</time>
      </trkpt>
      <trkpt lat="42.35513" lon="1.44139">
        <ele>719.36</ele>
        <time>2024-09-27T11:54:06.999Z</time>
      </trkpt>
      <trkpt lat="42.35522" lon="1.44151">
        <ele>719.34</ele>
        <time>2024-09-27T11:54:11.999Z</time>
      </trkpt>
      <trkpt lat="42.35531" lon="1.44165">
        <ele>719.32</ele>
        <time>2024-09-27T11:54:16.999Z</time>
      </trkpt>
      <trkpt lat="42.35541" lon="1.4418">
        <ele>719.3</ele>
        <time>2024-09-27T11:54:21.999Z</time>
      </trkpt>
      <trkpt lat="42.35552" lon="1.44196">
        <ele>719.29</ele>
        <time>2024-09-27T11:54:26.999Z</time>
      </trkpt>
      <trkpt lat="42.35563" lon="1.44213">
        <ele>719.28</ele>
        <time>2024-09-27T11:54:31.999Z</time>
      </trkpt>
      <trkpt lat="42.35575" lon="1.44231">
        <ele>719.27</ele>
        <time>2024-09-27T11:54:36.999Z</time>
      </trkpt>
      <trkpt lat="42.35587" lon="1.44248">
        <ele>719.27</ele>
        <time>2024-09-27T11:54:41.999Z</time>
      </trkpt>
      <trkpt lat="42.35597" lon="1.44262">
        <ele>719.26</ele>
        <time>2024-09-27T11:54:46.999Z</time>
      </trkpt>
      <trkpt lat="42.35605" lon="1.44275">
        <ele>719.26</ele>
        <time>2024-09-27T11:54:51.999Z</time>
      </trkpt>
      <trkpt lat="42.35614" lon="1.44287">
        <ele>719.26</ele>
        <time>2024-09-27T11:54:56.999Z</time>
      </trkpt>
      <trkpt lat="42.35624" lon="1.443">
        <ele>719.27</ele>
        <time>2024-09-27T11:55:01.999Z</time>
      </trkpt>
      <trkpt lat="42.35632" lon="1.44312">
        <ele>719.28</ele>
        <time>2024-09-27T11:55:06.999Z</time>
      </trkpt>
      <trkpt lat="42.35641" lon="1.44321">
        <ele>719.3</ele>
        <time>2024-09-27T11:55:11.999Z</time>
      </trkpt>
      <trkpt lat="42.3565" lon="1.4433">
        <ele>719.31</ele>
        <time>2024-09-27T11:55:16.999Z</time>
      </trkpt>
      <trkpt lat="42.3566" lon="1.44335">
        <ele>719.33</ele>
        <time>2024-09-27T11:55:21.999Z</time>
      </trkpt>
      <trkpt lat="42.3567" lon="1.4434">
        <ele>719.34</ele>
        <time>2024-09-27T11:55:26.999Z</time>
      </trkpt>
      <trkpt lat="42.35681" lon="1.44341">
        <ele>719.36</ele>
        <time>2024-09-27T11:55:31.999Z</time>
      </trkpt>
      <trkpt lat="42.35691" lon="1.44343">
        <ele>719.38</ele>
        <time>2024-09-27T11:55:36.999Z</time>
      </trkpt>
      <trkpt lat="42.35701" lon="1.44346">
        <ele>719.41</ele>
        <time>2024-09-27T11:55:41.999Z</time>
      </trkpt>
      <trkpt lat="42.35713" lon="1.4435">
        <ele>719.45</ele>
        <time>2024-09-27T11:55:46.999Z</time>
      </trkpt>
      <trkpt lat="42.35721" lon="1.44356">
        <ele>719.48</ele>
        <time>2024-09-27T11:55:51.999Z</time>
      </trkpt>
      <trkpt lat="42.35731" lon="1.44363">
        <ele>719.53</ele>
        <time>2024-09-27T11:55:56.999Z</time>
      </trkpt>
      <trkpt lat="42.35741" lon="1.4437">
        <ele>719.58</ele>
        <time>2024-09-27T11:56:01.999Z</time>
      </trkpt>
      <trkpt lat="42.35751" lon="1.4438">
        <ele>719.64</ele>
        <time>2024-09-27T11:56:06.999Z</time>
      </trkpt>
      <trkpt lat="42.3576" lon="1.4439">
        <ele>719.71</ele>
        <time>2024-09-27T11:56:11.999Z</time>
      </trkpt>
      <trkpt lat="42.35769" lon="1.444">
        <ele>719.78</ele>
        <time>2024-09-27T11:56:16.999Z</time>
      </trkpt>
      <trkpt lat="42.35778" lon="1.44412">
        <ele>719.85</ele>
        <time>2024-09-27T11:56:21.999Z</time>
      </trkpt>
      <trkpt lat="42.35786" lon="1.44423">
        <ele>719.93</ele>
        <time>2024-09-27T11:56:26.999Z</time>
      </trkpt>
      <trkpt lat="42.35795" lon="1.44436">
        <ele>720.02</ele>
        <time>2024-09-27T11:56:31.999Z</time>
      </trkpt>
      <trkpt lat="42.35802" lon="1.4445">
        <ele>720.11</ele>
        <time>2024-09-27T11:56:36.999Z</time>
      </trkpt>
      <trkpt lat="42.35808" lon="1.44463">
        <ele>720.2</ele>
        <time>2024-09-27T11:56:41.999Z</time>
      </trkpt>
      <trkpt lat="42.35814" lon="1.44477">
        <ele>720.29</ele>
        <time>2024-09-27T11:56:46.999Z</time>
      </trkpt>
      <trkpt lat="42.35819" lon="1.44491">
        <ele>720.38</ele>
        <time>2024-09-27T11:56:51.999Z</time>
      </trkpt>
      <trkpt lat="42.35825" lon="1.44505">
        <ele>720.47</ele>
        <time>2024-09-27T11:56:56.999Z</time>
      </trkpt>
      <trkpt lat="42.35829" lon="1.44519">
        <ele>720.56</ele>
        <time>2024-09-27T11:57:01.999Z</time>
      </trkpt>
      <trkpt lat="42.35833" lon="1.44532">
        <ele>721.08</ele>
        <time>2024-09-27T11:58:00.999Z</time>
      </trkpt>
      <trkpt lat="42.35838" lon="1.44551">
        <ele>721.29</ele>
        <time>2024-09-27T11:58:05.999Z</time>
      </trkpt>
      <trkpt lat="42.35845" lon="1.44571">
        <ele>721.5</ele>
        <time>2024-09-27T11:58:10.999Z</time>
      </trkpt>
      <trkpt lat="42.35851" lon="1.44589">
        <ele>721.72</ele>
        <time>2024-09-27T11:58:15.999Z</time>
      </trkpt>
      <trkpt lat="42.35858" lon="1.4461">
        <ele>721.95</ele>
        <time>2024-09-27T11:58:20.999Z</time>
      </trkpt>
      <trkpt lat="42.35865" lon="1.44629">
        <ele>722.18</ele>
        <time>2024-09-27T11:58:25.999Z</time>
      </trkpt>
      <trkpt lat="42.35872" lon="1.44651">
        <ele>722.43</ele>
        <time>2024-09-27T11:58:30.999Z</time>
      </trkpt>
      <trkpt lat="42.35871" lon="1.44669">
        <ele>722.69</ele>
        <time>2024-09-27T11:58:35.999Z</time>
      </trkpt>
      <trkpt lat="42.35876" lon="1.4468">
        <ele>723.03</ele>
        <time>2024-09-27T11:58:42.000Z</time>
      </trkpt>
      <trkpt lat="42.35884" lon="1.44686">
        <ele>723.37</ele>
        <time>2024-09-27T11:58:48.000Z</time>
      </trkpt>
      <trkpt lat="42.35894" lon="1.44706">
        <ele>724.79</ele>
        <time>2024-09-27T11:58:53.000Z</time>
      </trkpt>
      <trkpt lat="42.35911" lon="1.44732">
        <ele>725.93</ele>
        <time>2024-09-27T11:58:58.000Z</time>
      </trkpt>
      <trkpt lat="42.3593" lon="1.44759">
        <ele>726.36</ele>
        <time>2024-09-27T11:59:03.000Z</time>
      </trkpt>
      <trkpt lat="42.35939" lon="1.44779">
        <ele>726.44</ele>
        <time>2024-09-27T11:59:08.000Z</time>
      </trkpt>
      <trkpt lat="42.35943" lon="1.44791">
        <ele>726.49</ele>
        <time>2024-09-27T11:59:14.000Z</time>
      </trkpt>
      <trkpt lat="42.35945" lon="1.44802">
        <ele>727.28</ele>
        <time>2024-09-27T12:01:27.000Z</time>
      </trkpt>
      <trkpt lat="42.35954" lon="1.44809">
        <ele>727.54</ele>
        <time>2024-09-27T12:01:33.000Z</time>
      </trkpt>
      <trkpt lat="42.35971" lon="1.44831">
        <ele>728.72</ele>
        <time>2024-09-27T12:01:38.000Z</time>
      </trkpt>
      <trkpt lat="42.35987" lon="1.44867">
        <ele>729.32</ele>
        <time>2024-09-27T12:01:43.000Z</time>
      </trkpt>
      <trkpt lat="42.35999" lon="1.44912">
        <ele>729.53</ele>
        <time>2024-09-27T12:01:48.000Z</time>
      </trkpt>
      <trkpt lat="42.36011" lon="1.44964">
        <ele>729.41</ele>
        <time>2024-09-27T12:01:53.000Z</time>
      </trkpt>
      <trkpt lat="42.36025" lon="1.45017">
        <ele>729.22</ele>
        <time>2024-09-27T12:01:58.000Z</time>
      </trkpt>
      <trkpt lat="42.36043" lon="1.45073">
        <ele>728.84</ele>
        <time>2024-09-27T12:02:03.000Z</time>
      </trkpt>
      <trkpt lat="42.36046" lon="1.45132">
        <ele>728.34</ele>
        <time>2024-09-27T12:02:08.000Z</time>
      </trkpt>
      <trkpt lat="42.36042" lon="1.45188">
        <ele>727.88</ele>
        <time>2024-09-27T12:02:13.000Z</time>
      </trkpt>
      <trkpt lat="42.3606" lon="1.45241">
        <ele>727.29</ele>
        <time>2024-09-27T12:02:18.000Z</time>
      </trkpt>
      <trkpt lat="42.36066" lon="1.45295">
        <ele>727.18</ele>
        <time>2024-09-27T12:02:23.000Z</time>
      </trkpt>
      <trkpt lat="42.36061" lon="1.45344">
        <ele>727.04</ele>
        <time>2024-09-27T12:02:28.000Z</time>
      </trkpt>
      <trkpt lat="42.36057" lon="1.45389">
        <ele>726.37</ele>
        <time>2024-09-27T12:02:33.000Z</time>
      </trkpt>
      <trkpt lat="42.36054" lon="1.45423">
        <ele>725.57</ele>
        <time>2024-09-27T12:02:38.000Z</time>
      </trkpt>
      <trkpt lat="42.3605" lon="1.4545">
        <ele>725.34</ele>
        <time>2024-09-27T12:02:43.000Z</time>
      </trkpt>
      <trkpt lat="42.36046" lon="1.45473">
        <ele>725.2</ele>
        <time>2024-09-27T12:02:48.000Z</time>
      </trkpt>
      <trkpt lat="42.36045" lon="1.45494">
        <ele>725</ele>
        <time>2024-09-27T12:02:53.000Z</time>
      </trkpt>
      <trkpt lat="42.3604" lon="1.45514">
        <ele>724.73</ele>
        <time>2024-09-27T12:02:58.000Z</time>
      </trkpt>
      <trkpt lat="42.36038" lon="1.45532">
        <ele>724.47</ele>
        <time>2024-09-27T12:03:03.000Z</time>
      </trkpt>
      <trkpt lat="42.36032" lon="1.45546">
        <ele>724.23</ele>
        <time>2024-09-27T12:03:08.000Z</time>
      </trkpt>
      <trkpt lat="42.36034" lon="1.4557">
        <ele>724.02</ele>
        <time>2024-09-27T12:03:13.000Z</time>
      </trkpt>
      <trkpt lat="42.36032" lon="1.4559">
        <ele>723.86</ele>
        <time>2024-09-27T12:03:18.000Z</time>
      </trkpt>
      <trkpt lat="42.3603" lon="1.4561">
        <ele>723.72</ele>
        <time>2024-09-27T12:03:23.000Z</time>
      </trkpt>
      <trkpt lat="42.36028" lon="1.45634">
        <ele>723.59</ele>
        <time>2024-09-27T12:03:28.000Z</time>
      </trkpt>
      <trkpt lat="42.36025" lon="1.45657">
        <ele>723.5</ele>
        <time>2024-09-27T12:03:33.000Z</time>
      </trkpt>
      <trkpt lat="42.36023" lon="1.4568">
        <ele>723.42</ele>
        <time>2024-09-27T12:03:38.000Z</time>
      </trkpt>
      <trkpt lat="42.3602" lon="1.45703">
        <ele>723.37</ele>
        <time>2024-09-27T12:03:43.000Z</time>
      </trkpt>
      <trkpt lat="42.36016" lon="1.45728">
        <ele>723.25</ele>
        <time>2024-09-27T12:03:48.000Z</time>
      </trkpt>
      <trkpt lat="42.36012" lon="1.45751">
        <ele>723.21</ele>
        <time>2024-09-27T12:03:53.000Z</time>
      </trkpt>
      <trkpt lat="42.36011" lon="1.45772">
        <ele>723.16</ele>
        <time>2024-09-27T12:03:58.000Z</time>
      </trkpt>
      <trkpt lat="42.36012" lon="1.45798">
        <ele>722.92</ele>
        <time>2024-09-27T12:04:03.000Z</time>
      </trkpt>
      <trkpt lat="42.36021" lon="1.45825">
        <ele>722.78</ele>
        <time>2024-09-27T12:04:08.000Z</time>
      </trkpt>
      <trkpt lat="42.36025" lon="1.4585">
        <ele>722.81</ele>
        <time>2024-09-27T12:04:13.000Z</time>
      </trkpt>
      <trkpt lat="42.36028" lon="1.45877">
        <ele>722.82</ele>
        <time>2024-09-27T12:04:18.000Z</time>
      </trkpt>
      <trkpt lat="42.36031" lon="1.45905">
        <ele>722.85</ele>
        <time>2024-09-27T12:04:23.000Z</time>
      </trkpt>
      <trkpt lat="42.36037" lon="1.45937">
        <ele>722.9</ele>
        <time>2024-09-27T12:04:28.000Z</time>
      </trkpt>
      <trkpt lat="42.36039" lon="1.45967">
        <ele>722.91</ele>
        <time>2024-09-27T12:04:33.000Z</time>
      </trkpt>
      <trkpt lat="42.3604" lon="1.45998">
        <ele>722.81</ele>
        <time>2024-09-27T12:04:38.000Z</time>
      </trkpt>
      <trkpt lat="42.36044" lon="1.46029">
        <ele>722.73</ele>
        <time>2024-09-27T12:04:43.000Z</time>
      </trkpt>
      <trkpt lat="42.36049" lon="1.46058">
        <ele>722.66</ele>
        <time>2024-09-27T12:04:48.000Z</time>
      </trkpt>
      <trkpt lat="42.36053" lon="1.46088">
        <ele>722.71</ele>
        <time>2024-09-27T12:04:53.000Z</time>
      </trkpt>
      <trkpt lat="42.36055" lon="1.46111">
        <ele>722.7</ele>
        <time>2024-09-27T12:04:58.000Z</time>
      </trkpt>
      <trkpt lat="42.36061" lon="1.46102">
        <ele>722.78</ele>
        <time>2024-09-27T12:05:30.000Z</time>
      </trkpt>
      <trkpt lat="42.36064" lon="1.46089">
        <ele>722.83</ele>
        <time>2024-09-27T12:05:39.000Z</time>
      </trkpt>
      <trkpt lat="42.36061" lon="1.46076">
        <ele>722.87</ele>
        <time>2024-09-27T12:05:48.000Z</time>
      </trkpt>
      <trkpt lat="42.36057" lon="1.46059">
        <ele>723</ele>
        <time>2024-09-27T12:06:38.000Z</time>
      </trkpt>
      <trkpt lat="42.36062" lon="1.46074">
        <ele>723.02</ele>
        <time>2024-09-27T12:06:46.000Z</time>
      </trkpt>
      <trkpt lat="42.36073" lon="1.46067">
        <ele>723.08</ele>
        <time>2024-09-27T12:07:24.000Z</time>
      </trkpt>
      <trkpt lat="42.36069" lon="1.46079">
        <ele>723.09</ele>
        <time>2024-09-27T12:07:37.000Z</time>
      </trkpt>
      <trkpt lat="42.36068" lon="1.46064">
        <ele>723.1</ele>
        <time>2024-09-27T12:07:53.000Z</time>
      </trkpt>
      <trkpt lat="42.36048" lon="1.46099">
        <ele>723.07</ele>
        <time>2024-09-27T12:11:19.999Z</time>
      </trkpt>
      <trkpt lat="42.3606" lon="1.46092">
        <ele>722.83</ele>
        <time>2024-09-27T12:11:42.999Z</time>
      </trkpt>
      <trkpt lat="42.3606" lon="1.46072">
        <ele>722.35</ele>
        <time>2024-09-27T12:14:23.999Z</time>
      </trkpt>
      <trkpt lat="42.36058" lon="1.46084">
        <ele>723.59</ele>
        <time>2024-09-27T12:15:10.999Z</time>
      </trkpt>
      <trkpt lat="42.36059" lon="1.46105">
        <ele>723.88</ele>
        <time>2024-09-27T12:15:15.999Z</time>
      </trkpt>
      <trkpt lat="42.36061" lon="1.46133">
        <ele>725.42</ele>
        <time>2024-09-27T12:15:20.999Z</time>
      </trkpt>
      <trkpt lat="42.36064" lon="1.46169">
        <ele>725.49</ele>
        <time>2024-09-27T12:15:25.999Z</time>
      </trkpt>
      <trkpt lat="42.3607" lon="1.46209">
        <ele>724.19</ele>
        <time>2024-09-27T12:15:30.999Z</time>
      </trkpt>
      <trkpt lat="42.36075" lon="1.46249">
        <ele>722.98</ele>
        <time>2024-09-27T12:15:35.999Z</time>
      </trkpt>
      <trkpt lat="42.3608" lon="1.46291">
        <ele>722.01</ele>
        <time>2024-09-27T12:15:40.999Z</time>
      </trkpt>
      <trkpt lat="42.36084" lon="1.46337">
        <ele>721.28</ele>
        <time>2024-09-27T12:15:45.999Z</time>
      </trkpt>
      <trkpt lat="42.3609" lon="1.46391">
        <ele>720.51</ele>
        <time>2024-09-27T12:15:50.999Z</time>
      </trkpt>
      <trkpt lat="42.36099" lon="1.46447">
        <ele>720.07</ele>
        <time>2024-09-27T12:15:55.999Z</time>
      </trkpt>
      <trkpt lat="42.36105" lon="1.46501">
        <ele>719.72</ele>
        <time>2024-09-27T12:16:00.999Z</time>
      </trkpt>
      <trkpt lat="42.36113" lon="1.4655">
        <ele>719.17</ele>
        <time>2024-09-27T12:16:05.999Z</time>
      </trkpt>
      <trkpt lat="42.36116" lon="1.46595">
        <ele>718.68</ele>
        <time>2024-09-27T12:16:10.999Z</time>
      </trkpt>
      <trkpt lat="42.36121" lon="1.46641">
        <ele>717.98</ele>
        <time>2024-09-27T12:16:15.999Z</time>
      </trkpt>
      <trkpt lat="42.36128" lon="1.46686">
        <ele>717.26</ele>
        <time>2024-09-27T12:16:20.999Z</time>
      </trkpt>
      <trkpt lat="42.36131" lon="1.46732">
        <ele>717.02</ele>
        <time>2024-09-27T12:16:25.999Z</time>
      </trkpt>
      <trkpt lat="42.36129" lon="1.46779">
        <ele>716.46</ele>
        <time>2024-09-27T12:16:30.999Z</time>
      </trkpt>
      <trkpt lat="42.36126" lon="1.46822">
        <ele>715.91</ele>
        <time>2024-09-27T12:16:35.999Z</time>
      </trkpt>
      <trkpt lat="42.36124" lon="1.46864">
        <ele>715.67</ele>
        <time>2024-09-27T12:16:40.999Z</time>
      </trkpt>
      <trkpt lat="42.36121" lon="1.46903">
        <ele>715.36</ele>
        <time>2024-09-27T12:16:45.999Z</time>
      </trkpt>
      <trkpt lat="42.36116" lon="1.46941">
        <ele>715.24</ele>
        <time>2024-09-27T12:16:50.999Z</time>
      </trkpt>
      <trkpt lat="42.36113" lon="1.46983">
        <ele>715.17</ele>
        <time>2024-09-27T12:16:55.999Z</time>
      </trkpt>
      <trkpt lat="42.36108" lon="1.47022">
        <ele>715.17</ele>
        <time>2024-09-27T12:17:00.999Z</time>
      </trkpt>
      <trkpt lat="42.36105" lon="1.47061">
        <ele>715.05</ele>
        <time>2024-09-27T12:17:05.999Z</time>
      </trkpt>
      <trkpt lat="42.36101" lon="1.47096">
        <ele>714.98</ele>
        <time>2024-09-27T12:17:10.999Z</time>
      </trkpt>
      <trkpt lat="42.36092" lon="1.4713">
        <ele>714.67</ele>
        <time>2024-09-27T12:17:15.999Z</time>
      </trkpt>
      <trkpt lat="42.36087" lon="1.47164">
        <ele>714.23</ele>
        <time>2024-09-27T12:17:20.999Z</time>
      </trkpt>
      <trkpt lat="42.36095" lon="1.472">
        <ele>714</ele>
        <time>2024-09-27T12:17:25.999Z</time>
      </trkpt>
      <trkpt lat="42.36099" lon="1.47238">
        <ele>713.61</ele>
        <time>2024-09-27T12:17:30.999Z</time>
      </trkpt>
      <trkpt lat="42.36101" lon="1.47275">
        <ele>713.41</ele>
        <time>2024-09-27T12:17:35.999Z</time>
      </trkpt>
      <trkpt lat="42.36102" lon="1.4731">
        <ele>713.39</ele>
        <time>2024-09-27T12:17:40.999Z</time>
      </trkpt>
      <trkpt lat="42.36103" lon="1.47339">
        <ele>713.33</ele>
        <time>2024-09-27T12:17:45.999Z</time>
      </trkpt>
      <trkpt lat="42.36103" lon="1.47364">
        <ele>713.38</ele>
        <time>2024-09-27T12:17:50.999Z</time>
      </trkpt>
      <trkpt lat="42.36103" lon="1.47386">
        <ele>713.41</ele>
        <time>2024-09-27T12:17:55.999Z</time>
      </trkpt>
      <trkpt lat="42.36104" lon="1.47407">
        <ele>713.48</ele>
        <time>2024-09-27T12:18:00.999Z</time>
      </trkpt>
      <trkpt lat="42.36104" lon="1.47426">
        <ele>713.57</ele>
        <time>2024-09-27T12:18:05.999Z</time>
      </trkpt>
      <trkpt lat="42.36106" lon="1.47444">
        <ele>713.7</ele>
        <time>2024-09-27T12:18:10.999Z</time>
      </trkpt>
      <trkpt lat="42.36107" lon="1.47461">
        <ele>713.87</ele>
        <time>2024-09-27T12:18:15.999Z</time>
      </trkpt>
      <trkpt lat="42.36108" lon="1.47478">
        <ele>714.04</ele>
        <time>2024-09-27T12:18:20.999Z</time>
      </trkpt>
      <trkpt lat="42.36109" lon="1.47495">
        <ele>714.23</ele>
        <time>2024-09-27T12:18:25.999Z</time>
      </trkpt>
      <trkpt lat="42.36111" lon="1.47516">
        <ele>714.42</ele>
        <time>2024-09-27T12:18:30.999Z</time>
      </trkpt>
      <trkpt lat="42.36115" lon="1.4754">
        <ele>714.94</ele>
        <time>2024-09-27T12:18:35.999Z</time>
      </trkpt>
      <trkpt lat="42.36118" lon="1.47566">
        <ele>715.45</ele>
        <time>2024-09-27T12:18:40.999Z</time>
      </trkpt>
      <trkpt lat="42.36123" lon="1.47594">
        <ele>715.51</ele>
        <time>2024-09-27T12:18:45.999Z</time>
      </trkpt>
      <trkpt lat="42.36128" lon="1.47623">
        <ele>715.43</ele>
        <time>2024-09-27T12:18:50.999Z</time>
      </trkpt>
      <trkpt lat="42.36132" lon="1.47652">
        <ele>715.28</ele>
        <time>2024-09-27T12:18:55.999Z</time>
      </trkpt>
      <trkpt lat="42.36138" lon="1.47684">
        <ele>715.14</ele>
        <time>2024-09-27T12:19:00.999Z</time>
      </trkpt>
      <trkpt lat="42.36144" lon="1.47715">
        <ele>715.01</ele>
        <time>2024-09-27T12:19:05.999Z</time>
      </trkpt>
      <trkpt lat="42.36149" lon="1.47744">
        <ele>714.92</ele>
        <time>2024-09-27T12:19:10.999Z</time>
      </trkpt>
      <trkpt lat="42.36153" lon="1.4777">
        <ele>714.94</ele>
        <time>2024-09-27T12:19:15.999Z</time>
      </trkpt>
      <trkpt lat="42.36157" lon="1.47797">
        <ele>715.01</ele>
        <time>2024-09-27T12:19:20.999Z</time>
      </trkpt>
      <trkpt lat="42.36162" lon="1.47825">
        <ele>714.98</ele>
        <time>2024-09-27T12:19:25.999Z</time>
      </trkpt>
      <trkpt lat="42.36165" lon="1.47852">
        <ele>714.91</ele>
        <time>2024-09-27T12:19:30.999Z</time>
      </trkpt>
      <trkpt lat="42.36168" lon="1.47877">
        <ele>714.84</ele>
        <time>2024-09-27T12:19:35.999Z</time>
      </trkpt>
      <trkpt lat="42.36171" lon="1.47902">
        <ele>714.84</ele>
        <time>2024-09-27T12:19:40.999Z</time>
      </trkpt>
      <trkpt lat="42.36174" lon="1.47928">
        <ele>714.85</ele>
        <time>2024-09-27T12:19:45.999Z</time>
      </trkpt>
      <trkpt lat="42.36173" lon="1.47953">
        <ele>714.87</ele>
        <time>2024-09-27T12:19:50.999Z</time>
      </trkpt>
      <trkpt lat="42.36172" lon="1.47978">
        <ele>714.86</ele>
        <time>2024-09-27T12:19:55.999Z</time>
      </trkpt>
      <trkpt lat="42.36172" lon="1.48001">
        <ele>714.84</ele>
        <time>2024-09-27T12:20:00.999Z</time>
      </trkpt>
      <trkpt lat="42.3617" lon="1.48019">
        <ele>714.83</ele>
        <time>2024-09-27T12:20:05.999Z</time>
      </trkpt>
      <trkpt lat="42.3617" lon="1.48033">
        <ele>714.81</ele>
        <time>2024-09-27T12:20:10.999Z</time>
      </trkpt>
      <trkpt lat="42.36176" lon="1.48047">
        <ele>714.79</ele>
        <time>2024-09-27T12:20:15.999Z</time>
      </trkpt>
      <trkpt lat="42.36186" lon="1.48059">
        <ele>714.77</ele>
        <time>2024-09-27T12:20:20.999Z</time>
      </trkpt>
      <trkpt lat="42.36187" lon="1.48071">
        <ele>714.75</ele>
        <time>2024-09-27T12:20:28.999Z</time>
      </trkpt>
      <trkpt lat="42.36182" lon="1.48081">
        <ele>714.7</ele>
        <time>2024-09-27T12:20:57.999Z</time>
      </trkpt>
      <trkpt lat="42.36179" lon="1.48099">
        <ele>714.67</ele>
        <time>2024-09-27T12:21:02.999Z</time>
      </trkpt>
      <trkpt lat="42.36181" lon="1.48112">
        <ele>714.64</ele>
        <time>2024-09-27T12:21:07.999Z</time>
      </trkpt>
      <trkpt lat="42.36182" lon="1.48126">
        <ele>714.62</ele>
        <time>2024-09-27T12:21:13.999Z</time>
      </trkpt>
      <trkpt lat="42.36182" lon="1.48138">
        <ele>714.64</ele>
        <time>2024-09-27T12:21:20.999Z</time>
      </trkpt>
      <trkpt lat="42.36186" lon="1.4815">
        <ele>714.69</ele>
        <time>2024-09-27T12:21:27.999Z</time>
      </trkpt>
      <trkpt lat="42.36187" lon="1.48165">
        <ele>714.82</ele>
        <time>2024-09-27T12:21:35.999Z</time>
      </trkpt>
      <trkpt lat="42.36184" lon="1.48181">
        <ele>714.92</ele>
        <time>2024-09-27T12:21:40.999Z</time>
      </trkpt>
      <trkpt lat="42.36181" lon="1.48194">
        <ele>715.12</ele>
        <time>2024-09-27T12:21:49.999Z</time>
      </trkpt>
      <trkpt lat="42.36184" lon="1.48207">
        <ele>715.28</ele>
        <time>2024-09-27T12:21:56.999Z</time>
      </trkpt>
      <trkpt lat="42.36181" lon="1.4822">
        <ele>715.46</ele>
        <time>2024-09-27T12:22:03.999Z</time>
      </trkpt>
      <trkpt lat="42.3619" lon="1.48216">
        <ele>717.31</ele>
        <time>2024-09-27T12:26:28.000Z</time>
      </trkpt>
      <trkpt lat="42.3619" lon="1.48199">
        <ele>717.59</ele>
        <time>2024-09-27T12:26:33.000Z</time>
      </trkpt>
      <trkpt lat="42.36191" lon="1.48186">
        <ele>717.89</ele>
        <time>2024-09-27T12:26:39.000Z</time>
      </trkpt>
      <trkpt lat="42.3619" lon="1.48174">
        <ele>718.27</ele>
        <time>2024-09-27T12:26:52.000Z</time>
      </trkpt>
      <trkpt lat="42.36191" lon="1.48159">
        <ele>718.5</ele>
        <time>2024-09-27T12:26:58.000Z</time>
      </trkpt>
      <trkpt lat="42.3619" lon="1.48147">
        <ele>718.71</ele>
        <time>2024-09-27T12:27:10.000Z</time>
      </trkpt>
      <trkpt lat="42.36188" lon="1.48124">
        <ele>718.89</ele>
        <time>2024-09-27T12:27:16.000Z</time>
      </trkpt>
      <trkpt lat="42.36186" lon="1.48107">
        <ele>719.04</ele>
        <time>2024-09-27T12:27:21.000Z</time>
      </trkpt>
      <trkpt lat="42.36177" lon="1.4811">
        <ele>719.17</ele>
        <time>2024-09-27T12:27:26.000Z</time>
      </trkpt>
      <trkpt lat="42.36171" lon="1.48119">
        <ele>719.31</ele>
        <time>2024-09-27T12:27:32.000Z</time>
      </trkpt>
      <trkpt lat="42.36165" lon="1.48134">
        <ele>719.42</ele>
        <time>2024-09-27T12:27:37.000Z</time>
      </trkpt>
      <trkpt lat="42.3616" lon="1.4815">
        <ele>719.52</ele>
        <time>2024-09-27T12:27:42.000Z</time>
      </trkpt>
      <trkpt lat="42.36158" lon="1.48165">
        <ele>719.62</ele>
        <time>2024-09-27T12:27:47.000Z</time>
      </trkpt>
      <trkpt lat="42.36157" lon="1.48178">
        <ele>719.7</ele>
        <time>2024-09-27T12:27:52.000Z</time>
      </trkpt>
      <trkpt lat="42.36158" lon="1.48163">
        <ele>719.77</ele>
        <time>2024-09-27T12:28:20.000Z</time>
      </trkpt>
      <trkpt lat="42.36162" lon="1.48145">
        <ele>719.79</ele>
        <time>2024-09-27T12:28:25.000Z</time>
      </trkpt>
      <trkpt lat="42.36166" lon="1.48134">
        <ele>719.8</ele>
        <time>2024-09-27T12:28:31.000Z</time>
      </trkpt>
      <trkpt lat="42.36174" lon="1.48128">
        <ele>718.62</ele>
        <time>2024-09-27T12:34:32.999Z</time>
      </trkpt>
      <trkpt lat="42.36177" lon="1.48114">
        <ele>716.64</ele>
        <time>2024-09-27T12:40:18.999Z</time>
      </trkpt>
      <trkpt lat="42.36183" lon="1.48096">
        <ele>716.51</ele>
        <time>2024-09-27T12:40:23.999Z</time>
      </trkpt>
      <trkpt lat="42.3619" lon="1.48078">
        <ele>716.4</ele>
        <time>2024-09-27T12:40:28.999Z</time>
      </trkpt>
      <trkpt lat="42.36193" lon="1.4806">
        <ele>716.3</ele>
        <time>2024-09-27T12:40:33.999Z</time>
      </trkpt>
      <trkpt lat="42.36196" lon="1.48043">
        <ele>716.21</ele>
        <time>2024-09-27T12:40:38.999Z</time>
      </trkpt>
      <trkpt lat="42.362" lon="1.48021">
        <ele>716.05</ele>
        <time>2024-09-27T12:40:43.999Z</time>
      </trkpt>
      <trkpt lat="42.36197" lon="1.47992">
        <ele>715.66</ele>
        <time>2024-09-27T12:40:48.999Z</time>
      </trkpt>
      <trkpt lat="42.36192" lon="1.47964">
        <ele>715.54</ele>
        <time>2024-09-27T12:40:53.999Z</time>
      </trkpt>
      <trkpt lat="42.36188" lon="1.47941">
        <ele>715.54</ele>
        <time>2024-09-27T12:40:58.999Z</time>
      </trkpt>
      <trkpt lat="42.36183" lon="1.47923">
        <ele>715.53</ele>
        <time>2024-09-27T12:41:03.999Z</time>
      </trkpt>
      <trkpt lat="42.36182" lon="1.47909">
        <ele>715.54</ele>
        <time>2024-09-27T12:41:13.999Z</time>
      </trkpt>
      <trkpt lat="42.36179" lon="1.47891">
        <ele>715.54</ele>
        <time>2024-09-27T12:41:18.999Z</time>
      </trkpt>
      <trkpt lat="42.36174" lon="1.47862">
        <ele>715.56</ele>
        <time>2024-09-27T12:41:23.999Z</time>
      </trkpt>
      <trkpt lat="42.36169" lon="1.47829">
        <ele>715.55</ele>
        <time>2024-09-27T12:41:28.999Z</time>
      </trkpt>
      <trkpt lat="42.36164" lon="1.47795">
        <ele>715.54</ele>
        <time>2024-09-27T12:41:33.999Z</time>
      </trkpt>
      <trkpt lat="42.36158" lon="1.47762">
        <ele>715.51</ele>
        <time>2024-09-27T12:41:38.999Z</time>
      </trkpt>
      <trkpt lat="42.36151" lon="1.47728">
        <ele>715.49</ele>
        <time>2024-09-27T12:41:43.999Z</time>
      </trkpt>
      <trkpt lat="42.36145" lon="1.47693">
        <ele>715.48</ele>
        <time>2024-09-27T12:41:48.999Z</time>
      </trkpt>
      <trkpt lat="42.36139" lon="1.47656">
        <ele>715.46</ele>
        <time>2024-09-27T12:41:53.999Z</time>
      </trkpt>
      <trkpt lat="42.36133" lon="1.47621">
        <ele>715.43</ele>
        <time>2024-09-27T12:41:58.999Z</time>
      </trkpt>
      <trkpt lat="42.36127" lon="1.47588">
        <ele>715.41</ele>
        <time>2024-09-27T12:42:03.999Z</time>
      </trkpt>
      <trkpt lat="42.36123" lon="1.47556">
        <ele>715.41</ele>
        <time>2024-09-27T12:42:08.999Z</time>
      </trkpt>
      <trkpt lat="42.36119" lon="1.47526">
        <ele>715.4</ele>
        <time>2024-09-27T12:42:13.999Z</time>
      </trkpt>
      <trkpt lat="42.36115" lon="1.475">
        <ele>715.4</ele>
        <time>2024-09-27T12:42:18.999Z</time>
      </trkpt>
      <trkpt lat="42.36111" lon="1.47474">
        <ele>715.37</ele>
        <time>2024-09-27T12:42:23.999Z</time>
      </trkpt>
      <trkpt lat="42.36109" lon="1.47441">
        <ele>715.35</ele>
        <time>2024-09-27T12:42:28.999Z</time>
      </trkpt>
      <trkpt lat="42.36108" lon="1.47401">
        <ele>715.31</ele>
        <time>2024-09-27T12:42:33.999Z</time>
      </trkpt>
      <trkpt lat="42.36107" lon="1.47356">
        <ele>715.27</ele>
        <time>2024-09-27T12:42:38.999Z</time>
      </trkpt>
      <trkpt lat="42.36105" lon="1.47304">
        <ele>715.05</ele>
        <time>2024-09-27T12:42:43.999Z</time>
      </trkpt>
      <trkpt lat="42.36103" lon="1.47256">
        <ele>714.82</ele>
        <time>2024-09-27T12:42:48.999Z</time>
      </trkpt>
      <trkpt lat="42.361" lon="1.47213">
        <ele>714.6</ele>
        <time>2024-09-27T12:42:53.999Z</time>
      </trkpt>
      <trkpt lat="42.36103" lon="1.47176">
        <ele>714.5</ele>
        <time>2024-09-27T12:42:58.999Z</time>
      </trkpt>
      <trkpt lat="42.36112" lon="1.47144">
        <ele>713.97</ele>
        <time>2024-09-27T12:43:03.999Z</time>
      </trkpt>
      <trkpt lat="42.36097" lon="1.47128">
        <ele>713.46</ele>
        <time>2024-09-27T12:43:08.999Z</time>
      </trkpt>
      <trkpt lat="42.36075" lon="1.47131">
        <ele>712.67</ele>
        <time>2024-09-27T12:43:13.999Z</time>
      </trkpt>
      <trkpt lat="42.3606" lon="1.47107">
        <ele>711.9</ele>
        <time>2024-09-27T12:43:18.999Z</time>
      </trkpt>
      <trkpt lat="42.36061" lon="1.47072">
        <ele>711.33</ele>
        <time>2024-09-27T12:43:23.999Z</time>
      </trkpt>
      <trkpt lat="42.36059" lon="1.47042">
        <ele>710.68</ele>
        <time>2024-09-27T12:43:28.999Z</time>
      </trkpt>
      <trkpt lat="42.36053" lon="1.47011">
        <ele>710.11</ele>
        <time>2024-09-27T12:43:33.999Z</time>
      </trkpt>
      <trkpt lat="42.36047" lon="1.46983">
        <ele>709.54</ele>
        <time>2024-09-27T12:43:38.999Z</time>
      </trkpt>
      <trkpt lat="42.36039" lon="1.46953">
        <ele>709.05</ele>
        <time>2024-09-27T12:43:43.999Z</time>
      </trkpt>
      <trkpt lat="42.36032" lon="1.46921">
        <ele>708.73</ele>
        <time>2024-09-27T12:43:48.999Z</time>
      </trkpt>
      <trkpt lat="42.36023" lon="1.46888">
        <ele>708.5</ele>
        <time>2024-09-27T12:43:53.999Z</time>
      </trkpt>
      <trkpt lat="42.36012" lon="1.46859">
        <ele>708.17</ele>
        <time>2024-09-27T12:43:58.999Z</time>
      </trkpt>
      <trkpt lat="42.36003" lon="1.46828">
        <ele>707.85</ele>
        <time>2024-09-27T12:44:03.999Z</time>
      </trkpt>
      <trkpt lat="42.35993" lon="1.46799">
        <ele>707.58</ele>
        <time>2024-09-27T12:44:08.999Z</time>
      </trkpt>
      <trkpt lat="42.35989" lon="1.46767">
        <ele>707.35</ele>
        <time>2024-09-27T12:44:13.999Z</time>
      </trkpt>
      <trkpt lat="42.35985" lon="1.46734">
        <ele>707.16</ele>
        <time>2024-09-27T12:44:18.999Z</time>
      </trkpt>
      <trkpt lat="42.35982" lon="1.46703">
        <ele>706.94</ele>
        <time>2024-09-27T12:44:23.999Z</time>
      </trkpt>
      <trkpt lat="42.35978" lon="1.46673">
        <ele>706.73</ele>
        <time>2024-09-27T12:44:28.999Z</time>
      </trkpt>
      <trkpt lat="42.35971" lon="1.46645">
        <ele>706.6</ele>
        <time>2024-09-27T12:44:33.999Z</time>
      </trkpt>
      <trkpt lat="42.35965" lon="1.46616">
        <ele>706.5</ele>
        <time>2024-09-27T12:44:38.999Z</time>
      </trkpt>
      <trkpt lat="42.35959" lon="1.46591">
        <ele>706.44</ele>
        <time>2024-09-27T12:44:43.999Z</time>
      </trkpt>
      <trkpt lat="42.35953" lon="1.46568">
        <ele>706.41</ele>
        <time>2024-09-27T12:44:48.999Z</time>
      </trkpt>
      <trkpt lat="42.35946" lon="1.46543">
        <ele>706.25</ele>
        <time>2024-09-27T12:44:53.999Z</time>
      </trkpt>
      <trkpt lat="42.35939" lon="1.46517">
        <ele>706.17</ele>
        <time>2024-09-27T12:44:58.999Z</time>
      </trkpt>
      <trkpt lat="42.35934" lon="1.46492">
        <ele>706.15</ele>
        <time>2024-09-27T12:45:03.999Z</time>
      </trkpt>
      <trkpt lat="42.35929" lon="1.46465">
        <ele>706.12</ele>
        <time>2024-09-27T12:45:08.999Z</time>
      </trkpt>
      <trkpt lat="42.35922" lon="1.46434">
        <ele>705.92</ele>
        <time>2024-09-27T12:45:13.999Z</time>
      </trkpt>
      <trkpt lat="42.35915" lon="1.46406">
        <ele>705.87</ele>
        <time>2024-09-27T12:45:18.999Z</time>
      </trkpt>
      <trkpt lat="42.35908" lon="1.46379">
        <ele>705.86</ele>
        <time>2024-09-27T12:45:23.999Z</time>
      </trkpt>
      <trkpt lat="42.35901" lon="1.46356">
        <ele>705.88</ele>
        <time>2024-09-27T12:45:28.999Z</time>
      </trkpt>
      <trkpt lat="42.35895" lon="1.46336">
        <ele>705.91</ele>
        <time>2024-09-27T12:45:33.999Z</time>
      </trkpt>
      <trkpt lat="42.35894" lon="1.46321">
        <ele>705.95</ele>
        <time>2024-09-27T12:45:38.999Z</time>
      </trkpt>
      <trkpt lat="42.35894" lon="1.46303">
        <ele>706.01</ele>
        <time>2024-09-27T12:45:43.999Z</time>
      </trkpt>
      <trkpt lat="42.35896" lon="1.46286">
        <ele>706.08</ele>
        <time>2024-09-27T12:45:48.999Z</time>
      </trkpt>
      <trkpt lat="42.35897" lon="1.46273">
        <ele>706.17</ele>
        <time>2024-09-27T12:45:54.999Z</time>
      </trkpt>
      <trkpt lat="42.35897" lon="1.46259">
        <ele>706.29</ele>
        <time>2024-09-27T12:46:00.999Z</time>
      </trkpt>
      <trkpt lat="42.35898" lon="1.46246">
        <ele>706.44</ele>
        <time>2024-09-27T12:46:06.999Z</time>
      </trkpt>
      <trkpt lat="42.359" lon="1.46233">
        <ele>706.6</ele>
        <time>2024-09-27T12:46:12.999Z</time>
      </trkpt>
      <trkpt lat="42.359" lon="1.46219">
        <ele>706.74</ele>
        <time>2024-09-27T12:46:17.999Z</time>
      </trkpt>
      <trkpt lat="42.35901" lon="1.46206">
        <ele>706.9</ele>
        <time>2024-09-27T12:46:24.000Z</time>
      </trkpt>
      <trkpt lat="42.35905" lon="1.46192">
        <ele>707.09</ele>
        <time>2024-09-27T12:46:31.000Z</time>
      </trkpt>
      <trkpt lat="42.3591" lon="1.46178">
        <ele>707.24</ele>
        <time>2024-09-27T12:46:36.000Z</time>
      </trkpt>
      <trkpt lat="42.35911" lon="1.46163">
        <ele>707.42</ele>
        <time>2024-09-27T12:46:41.000Z</time>
      </trkpt>
      <trkpt lat="42.35914" lon="1.4615">
        <ele>707.65</ele>
        <time>2024-09-27T12:46:47.000Z</time>
      </trkpt>
      <trkpt lat="42.35916" lon="1.46138">
        <ele>707.85</ele>
        <time>2024-09-27T12:46:52.000Z</time>
      </trkpt>
      <trkpt lat="42.35916" lon="1.46125">
        <ele>708.06</ele>
        <time>2024-09-27T12:46:57.000Z</time>
      </trkpt>
      <trkpt lat="42.35918" lon="1.46111">
        <ele>708.29</ele>
        <time>2024-09-27T12:47:02.000Z</time>
      </trkpt>
      <trkpt lat="42.3592" lon="1.46099">
        <ele>708.53</ele>
        <time>2024-09-27T12:47:07.000Z</time>
      </trkpt>
      <trkpt lat="42.3592" lon="1.46085">
        <ele>708.85</ele>
        <time>2024-09-27T12:47:13.000Z</time>
      </trkpt>
      <trkpt lat="42.3592" lon="1.46071">
        <ele>709.18</ele>
        <time>2024-09-27T12:47:19.000Z</time>
      </trkpt>
      <trkpt lat="42.3592" lon="1.46056">
        <ele>709.45</ele>
        <time>2024-09-27T12:47:24.000Z</time>
      </trkpt>
      <trkpt lat="42.35921" lon="1.46043">
        <ele>709.71</ele>
        <time>2024-09-27T12:47:29.000Z</time>
      </trkpt>
      <trkpt lat="42.35922" lon="1.4603">
        <ele>709.96</ele>
        <time>2024-09-27T12:47:34.000Z</time>
      </trkpt>
      <trkpt lat="42.35921" lon="1.46017">
        <ele>710.25</ele>
        <time>2024-09-27T12:47:40.000Z</time>
      </trkpt>
      <trkpt lat="42.35926" lon="1.46006">
        <ele>710.48</ele>
        <time>2024-09-27T12:47:45.000Z</time>
      </trkpt>
      <trkpt lat="42.35928" lon="1.45991">
        <ele>710.72</ele>
        <time>2024-09-27T12:47:50.000Z</time>
      </trkpt>
      <trkpt lat="42.35931" lon="1.45979">
        <ele>710.94</ele>
        <time>2024-09-27T12:47:55.000Z</time>
      </trkpt>
      <trkpt lat="42.35932" lon="1.45966">
        <ele>711.18</ele>
        <time>2024-09-27T12:48:07.000Z</time>
      </trkpt>
      <trkpt lat="42.35918" lon="1.4596">
        <ele>711.38</ele>
        <time>2024-09-27T12:48:12.000Z</time>
      </trkpt>
      <trkpt lat="42.35896" lon="1.4595">
        <ele>712.64</ele>
        <time>2024-09-27T12:48:17.000Z</time>
      </trkpt>
      <trkpt lat="42.35874" lon="1.4593">
        <ele>713.13</ele>
        <time>2024-09-27T12:48:22.000Z</time>
      </trkpt>
      <trkpt lat="42.3585" lon="1.4592">
        <ele>713.29</ele>
        <time>2024-09-27T12:48:27.000Z</time>
      </trkpt>
      <trkpt lat="42.35823" lon="1.4592">
        <ele>713.38</ele>
        <time>2024-09-27T12:48:32.000Z</time>
      </trkpt>
      <trkpt lat="42.35809" lon="1.45905">
        <ele>713.42</ele>
        <time>2024-09-27T12:48:37.000Z</time>
      </trkpt>
      <trkpt lat="42.35809" lon="1.45871">
        <ele>713.43</ele>
        <time>2024-09-27T12:48:42.000Z</time>
      </trkpt>
      <trkpt lat="42.3581" lon="1.45836">
        <ele>713.45</ele>
        <time>2024-09-27T12:48:47.000Z</time>
      </trkpt>
      <trkpt lat="42.35812" lon="1.45806">
        <ele>713.48</ele>
        <time>2024-09-27T12:48:52.000Z</time>
      </trkpt>
      <trkpt lat="42.35818" lon="1.45779">
        <ele>713.51</ele>
        <time>2024-09-27T12:48:57.000Z</time>
      </trkpt>
      <trkpt lat="42.35822" lon="1.45758">
        <ele>713.52</ele>
        <time>2024-09-27T12:49:02.000Z</time>
      </trkpt>
      <trkpt lat="42.35817" lon="1.45735">
        <ele>713.53</ele>
        <time>2024-09-27T12:49:07.000Z</time>
      </trkpt>
      <trkpt lat="42.35813" lon="1.45708">
        <ele>713.55</ele>
        <time>2024-09-27T12:49:12.000Z</time>
      </trkpt>
      <trkpt lat="42.35813" lon="1.45687">
        <ele>713.58</ele>
        <time>2024-09-27T12:49:17.000Z</time>
      </trkpt>
      <trkpt lat="42.35811" lon="1.45667">
        <ele>713.62</ele>
        <time>2024-09-27T12:49:22.000Z</time>
      </trkpt>
      <trkpt lat="42.35812" lon="1.4564">
        <ele>713.66</ele>
        <time>2024-09-27T12:49:27.000Z</time>
      </trkpt>
      <trkpt lat="42.35813" lon="1.45617">
        <ele>713.71</ele>
        <time>2024-09-27T12:49:32.000Z</time>
      </trkpt>
      <trkpt lat="42.35813" lon="1.45592">
        <ele>713.76</ele>
        <time>2024-09-27T12:49:37.000Z</time>
      </trkpt>
      <trkpt lat="42.35814" lon="1.45574">
        <ele>713.81</ele>
        <time>2024-09-27T12:49:42.000Z</time>
      </trkpt>
      <trkpt lat="42.35814" lon="1.45561">
        <ele>713.89</ele>
        <time>2024-09-27T12:49:50.000Z</time>
      </trkpt>
      <trkpt lat="42.35815" lon="1.45537">
        <ele>713.96</ele>
        <time>2024-09-27T12:49:55.000Z</time>
      </trkpt>
      <trkpt lat="42.35814" lon="1.45515">
        <ele>714.02</ele>
        <time>2024-09-27T12:50:00.000Z</time>
      </trkpt>
      <trkpt lat="42.35816" lon="1.45494">
        <ele>714.09</ele>
        <time>2024-09-27T12:50:05.000Z</time>
      </trkpt>
      <trkpt lat="42.35816" lon="1.45474">
        <ele>714.17</ele>
        <time>2024-09-27T12:50:10.000Z</time>
      </trkpt>
      <trkpt lat="42.35819" lon="1.45455">
        <ele>714.24</ele>
        <time>2024-09-27T12:50:15.000Z</time>
      </trkpt>
      <trkpt lat="42.35819" lon="1.45432">
        <ele>714.33</ele>
        <time>2024-09-27T12:50:20.000Z</time>
      </trkpt>
      <trkpt lat="42.35821" lon="1.45406">
        <ele>714.55</ele>
        <time>2024-09-27T12:50:25.000Z</time>
      </trkpt>
      <trkpt lat="42.35824" lon="1.45377">
        <ele>715.09</ele>
        <time>2024-09-27T12:50:30.000Z</time>
      </trkpt>
      <trkpt lat="42.35826" lon="1.45351">
        <ele>715.19</ele>
        <time>2024-09-27T12:50:35.000Z</time>
      </trkpt>
      <trkpt lat="42.3583" lon="1.45327">
        <ele>715.22</ele>
        <time>2024-09-27T12:50:40.000Z</time>
      </trkpt>
      <trkpt lat="42.35841" lon="1.45306">
        <ele>715.38</ele>
        <time>2024-09-27T12:50:45.000Z</time>
      </trkpt>
      <trkpt lat="42.35856" lon="1.45289">
        <ele>715.5</ele>
        <time>2024-09-27T12:50:50.000Z</time>
      </trkpt>
      <trkpt lat="42.35865" lon="1.45273">
        <ele>715.52</ele>
        <time>2024-09-27T12:50:55.000Z</time>
      </trkpt>
      <trkpt lat="42.35869" lon="1.45261">
        <ele>715.56</ele>
        <time>2024-09-27T12:51:01.000Z</time>
      </trkpt>
      <trkpt lat="42.35877" lon="1.45251">
        <ele>715.57</ele>
        <time>2024-09-27T12:51:46.000Z</time>
      </trkpt>
      <trkpt lat="42.35883" lon="1.45236">
        <ele>715.51</ele>
        <time>2024-09-27T12:51:51.000Z</time>
      </trkpt>
      <trkpt lat="42.35874" lon="1.45216">
        <ele>715.44</ele>
        <time>2024-09-27T12:51:56.000Z</time>
      </trkpt>
      <trkpt lat="42.35857" lon="1.45205">
        <ele>715.36</ele>
        <time>2024-09-27T12:52:01.000Z</time>
      </trkpt>
      <trkpt lat="42.35856" lon="1.45188">
        <ele>715.29</ele>
        <time>2024-09-27T12:52:06.000Z</time>
      </trkpt>
      <trkpt lat="42.35852" lon="1.45176">
        <ele>715.19</ele>
        <time>2024-09-27T12:52:13.000Z</time>
      </trkpt>
      <trkpt lat="42.35836" lon="1.45166">
        <ele>715.13</ele>
        <time>2024-09-27T12:52:18.000Z</time>
      </trkpt>
      <trkpt lat="42.35809" lon="1.45153">
        <ele>715.08</ele>
        <time>2024-09-27T12:52:23.000Z</time>
      </trkpt>
      <trkpt lat="42.35788" lon="1.45135">
        <ele>714.84</ele>
        <time>2024-09-27T12:52:28.000Z</time>
      </trkpt>
      <trkpt lat="42.35781" lon="1.45111">
        <ele>714.78</ele>
        <time>2024-09-27T12:52:33.000Z</time>
      </trkpt>
      <trkpt lat="42.3577" lon="1.45075">
        <ele>714.46</ele>
        <time>2024-09-27T12:52:38.000Z</time>
      </trkpt>
      <trkpt lat="42.35777" lon="1.45053">
        <ele>714.27</ele>
        <time>2024-09-27T12:52:43.000Z</time>
      </trkpt>
      <trkpt lat="42.3577" lon="1.45039">
        <ele>714.24</ele>
        <time>2024-09-27T12:52:48.000Z</time>
      </trkpt>
      <trkpt lat="42.35761" lon="1.4501">
        <ele>714.2</ele>
        <time>2024-09-27T12:52:53.000Z</time>
      </trkpt>
      <trkpt lat="42.35748" lon="1.44985">
        <ele>713.9</ele>
        <time>2024-09-27T12:52:58.000Z</time>
      </trkpt>
      <trkpt lat="42.35728" lon="1.44967">
        <ele>713.73</ele>
        <time>2024-09-27T12:53:03.000Z</time>
      </trkpt>
      <trkpt lat="42.35712" lon="1.44968">
        <ele>713.68</ele>
        <time>2024-09-27T12:53:08.000Z</time>
      </trkpt>
      <trkpt lat="42.35712" lon="1.44955">
        <ele>713.66</ele>
        <time>2024-09-27T12:53:13.000Z</time>
      </trkpt>
      <trkpt lat="42.35712" lon="1.44936">
        <ele>713.63</ele>
        <time>2024-09-27T12:53:18.000Z</time>
      </trkpt>
      <trkpt lat="42.3571" lon="1.44916">
        <ele>713.62</ele>
        <time>2024-09-27T12:53:23.000Z</time>
      </trkpt>
      <trkpt lat="42.35709" lon="1.44894">
        <ele>713.6</ele>
        <time>2024-09-27T12:53:28.000Z</time>
      </trkpt>
      <trkpt lat="42.35708" lon="1.44876">
        <ele>713.59</ele>
        <time>2024-09-27T12:53:33.000Z</time>
      </trkpt>
      <trkpt lat="42.35709" lon="1.44857">
        <ele>713.58</ele>
        <time>2024-09-27T12:53:38.000Z</time>
      </trkpt>
      <trkpt lat="42.3571" lon="1.44841">
        <ele>713.58</ele>
        <time>2024-09-27T12:53:43.000Z</time>
      </trkpt>
      <trkpt lat="42.35708" lon="1.44828">
        <ele>713.61</ele>
        <time>2024-09-27T12:54:35.000Z</time>
      </trkpt>
      <trkpt lat="42.35698" lon="1.44827">
        <ele>713.64</ele>
        <time>2024-09-27T12:54:41.000Z</time>
      </trkpt>
      <trkpt lat="42.35689" lon="1.44824">
        <ele>713.67</ele>
        <time>2024-09-27T12:54:46.000Z</time>
      </trkpt>
      <trkpt lat="42.35679" lon="1.44824">
        <ele>713.71</ele>
        <time>2024-09-27T12:54:54.000Z</time>
      </trkpt>
      <trkpt lat="42.3567" lon="1.44829">
        <ele>713.77</ele>
        <time>2024-09-27T12:55:02.000Z</time>
      </trkpt>
      <trkpt lat="42.3566" lon="1.44828">
        <ele>714.2</ele>
        <time>2024-09-27T12:55:58.000Z</time>
      </trkpt>
      <trkpt lat="42.35669" lon="1.44824">
        <ele>714.46</ele>
        <time>2024-09-27T13:03:01.999Z</time>
      </trkpt>
    </trkseg>
  </trk>
</gpx>